<?xml version="1.0" encoding="UTF-8" standalone="no" ?>
<gpx xmlns="http://www.topografix.com/GPX/1/1" xmlns:xsi="http://www.w3.org/2001/XMLSchema-instance" xsi:schemaLocation="http://www.topografix.com/GPX/1/1 http://www.topografix.com/GPX/1/1/gpx.xsd" version="1.1" creator="VisuGPX - https://www.visugpx.com">
  <metadata>
    <name>Voie verte Argeles-Gazost - Lourdes - Asson 2021</name>
    <desc><![CDATA[File with points/tracks from Locus Map/3.37.2]]></desc>
  </metadata>
  <trk>
    <name><![CDATA[2021-08-13 08:15:43]]></name>
    <trkseg>
      <trkpt lat="42.94169" lon="-0.17789">
        <ele>968.46</ele>
        <time>2021-08-13T06:15:59.999Z</time>
      </trkpt>
      <trkpt lat="42.9416" lon="-0.17796">
        <ele>968.69</ele>
        <time>2021-08-13T06:19:12.999Z</time>
      </trkpt>
      <trkpt lat="42.94151" lon="-0.17805">
        <ele>968.87</ele>
        <time>2021-08-13T06:19:17.999Z</time>
      </trkpt>
      <trkpt lat="42.94142" lon="-0.17812">
        <ele>969.19</ele>
        <time>2021-08-13T06:19:23.999Z</time>
      </trkpt>
      <trkpt lat="42.94133" lon="-0.17803">
        <ele>969.55</ele>
        <time>2021-08-13T06:19:29.999Z</time>
      </trkpt>
      <trkpt lat="42.94123" lon="-0.17782">
        <ele>970.91</ele>
        <time>2021-08-13T06:19:34.999Z</time>
      </trkpt>
      <trkpt lat="42.94125" lon="-0.1776">
        <ele>971.79</ele>
        <time>2021-08-13T06:19:39.999Z</time>
      </trkpt>
      <trkpt lat="42.94138" lon="-0.17744">
        <ele>972.01</ele>
        <time>2021-08-13T06:19:44.999Z</time>
      </trkpt>
      <trkpt lat="42.94144" lon="-0.17729">
        <ele>972.22</ele>
        <time>2021-08-13T06:19:49.999Z</time>
      </trkpt>
      <trkpt lat="42.94153" lon="-0.17715">
        <ele>972.41</ele>
        <time>2021-08-13T06:19:54.999Z</time>
      </trkpt>
      <trkpt lat="42.94168" lon="-0.17702">
        <ele>972.99</ele>
        <time>2021-08-13T06:19:59.999Z</time>
      </trkpt>
      <trkpt lat="42.94185" lon="-0.17685">
        <ele>973.63</ele>
        <time>2021-08-13T06:20:04.999Z</time>
      </trkpt>
      <trkpt lat="42.94211" lon="-0.17678">
        <ele>973.8</ele>
        <time>2021-08-13T06:20:09.999Z</time>
      </trkpt>
      <trkpt lat="42.94237" lon="-0.17665">
        <ele>973.81</ele>
        <time>2021-08-13T06:20:14.999Z</time>
      </trkpt>
      <trkpt lat="42.94263" lon="-0.17654">
        <ele>973.69</ele>
        <time>2021-08-13T06:20:19.999Z</time>
      </trkpt>
      <trkpt lat="42.94291" lon="-0.17661">
        <ele>973.54</ele>
        <time>2021-08-13T06:20:24.999Z</time>
      </trkpt>
      <trkpt lat="42.94321" lon="-0.17659">
        <ele>973.27</ele>
        <time>2021-08-13T06:20:29.999Z</time>
      </trkpt>
      <trkpt lat="42.94352" lon="-0.17644">
        <ele>973</ele>
        <time>2021-08-13T06:20:34.999Z</time>
      </trkpt>
      <trkpt lat="42.94384" lon="-0.1763">
        <ele>972.66</ele>
        <time>2021-08-13T06:20:39.999Z</time>
      </trkpt>
      <trkpt lat="42.94416" lon="-0.17615">
        <ele>972.21</ele>
        <time>2021-08-13T06:20:44.999Z</time>
      </trkpt>
      <trkpt lat="42.94446" lon="-0.17599">
        <ele>971.72</ele>
        <time>2021-08-13T06:20:49.999Z</time>
      </trkpt>
      <trkpt lat="42.9447" lon="-0.17566">
        <ele>971.26</ele>
        <time>2021-08-13T06:20:54.999Z</time>
      </trkpt>
      <trkpt lat="42.94494" lon="-0.17523">
        <ele>970.72</ele>
        <time>2021-08-13T06:20:59.999Z</time>
      </trkpt>
      <trkpt lat="42.94523" lon="-0.17488">
        <ele>969.91</ele>
        <time>2021-08-13T06:21:04.999Z</time>
      </trkpt>
      <trkpt lat="42.9455" lon="-0.17457">
        <ele>969.11</ele>
        <time>2021-08-13T06:21:09.999Z</time>
      </trkpt>
      <trkpt lat="42.94575" lon="-0.1743">
        <ele>968.18</ele>
        <time>2021-08-13T06:21:14.999Z</time>
      </trkpt>
      <trkpt lat="42.94602" lon="-0.17403">
        <ele>966.42</ele>
        <time>2021-08-13T06:21:19.999Z</time>
      </trkpt>
      <trkpt lat="42.94619" lon="-0.17353">
        <ele>964.5</ele>
        <time>2021-08-13T06:21:24.999Z</time>
      </trkpt>
      <trkpt lat="42.94637" lon="-0.17299">
        <ele>963.13</ele>
        <time>2021-08-13T06:21:29.999Z</time>
      </trkpt>
      <trkpt lat="42.94661" lon="-0.17252">
        <ele>961.66</ele>
        <time>2021-08-13T06:21:34.999Z</time>
      </trkpt>
      <trkpt lat="42.94689" lon="-0.17205">
        <ele>960.53</ele>
        <time>2021-08-13T06:21:39.999Z</time>
      </trkpt>
      <trkpt lat="42.94708" lon="-0.17156">
        <ele>959.28</ele>
        <time>2021-08-13T06:21:44.999Z</time>
      </trkpt>
      <trkpt lat="42.94747" lon="-0.17128">
        <ele>957.45</ele>
        <time>2021-08-13T06:21:49.999Z</time>
      </trkpt>
      <trkpt lat="42.94792" lon="-0.17097">
        <ele>956.15</ele>
        <time>2021-08-13T06:21:54.999Z</time>
      </trkpt>
      <trkpt lat="42.9482" lon="-0.17065">
        <ele>954.18</ele>
        <time>2021-08-13T06:21:59.999Z</time>
      </trkpt>
      <trkpt lat="42.94829" lon="-0.17057">
        <ele>953.91</ele>
        <time>2021-08-13T06:22:12.999Z</time>
      </trkpt>
      <trkpt lat="42.94839" lon="-0.17041">
        <ele>953.1</ele>
        <time>2021-08-13T06:22:17.999Z</time>
      </trkpt>
      <trkpt lat="42.94858" lon="-0.17013">
        <ele>950.36</ele>
        <time>2021-08-13T06:22:22.999Z</time>
      </trkpt>
      <trkpt lat="42.94877" lon="-0.16983">
        <ele>948.21</ele>
        <time>2021-08-13T06:22:27.999Z</time>
      </trkpt>
      <trkpt lat="42.94897" lon="-0.16949">
        <ele>946.54</ele>
        <time>2021-08-13T06:22:32.999Z</time>
      </trkpt>
      <trkpt lat="42.94923" lon="-0.16924">
        <ele>944.74</ele>
        <time>2021-08-13T06:22:37.999Z</time>
      </trkpt>
      <trkpt lat="42.94954" lon="-0.16901">
        <ele>942.98</ele>
        <time>2021-08-13T06:22:42.999Z</time>
      </trkpt>
      <trkpt lat="42.94987" lon="-0.1688">
        <ele>941.45</ele>
        <time>2021-08-13T06:22:47.999Z</time>
      </trkpt>
      <trkpt lat="42.95023" lon="-0.16861">
        <ele>939.37</ele>
        <time>2021-08-13T06:22:52.999Z</time>
      </trkpt>
      <trkpt lat="42.95062" lon="-0.16852">
        <ele>937.35</ele>
        <time>2021-08-13T06:22:57.999Z</time>
      </trkpt>
      <trkpt lat="42.95103" lon="-0.16839">
        <ele>935.64</ele>
        <time>2021-08-13T06:23:02.999Z</time>
      </trkpt>
      <trkpt lat="42.95142" lon="-0.16809">
        <ele>934.29</ele>
        <time>2021-08-13T06:23:07.999Z</time>
      </trkpt>
      <trkpt lat="42.95184" lon="-0.16794">
        <ele>932.66</ele>
        <time>2021-08-13T06:23:12.999Z</time>
      </trkpt>
      <trkpt lat="42.95228" lon="-0.16774">
        <ele>930.14</ele>
        <time>2021-08-13T06:23:17.999Z</time>
      </trkpt>
      <trkpt lat="42.95266" lon="-0.16734">
        <ele>927.29</ele>
        <time>2021-08-13T06:23:22.999Z</time>
      </trkpt>
      <trkpt lat="42.95303" lon="-0.16697">
        <ele>924.92</ele>
        <time>2021-08-13T06:23:27.999Z</time>
      </trkpt>
      <trkpt lat="42.95342" lon="-0.1667">
        <ele>922.87</ele>
        <time>2021-08-13T06:23:32.999Z</time>
      </trkpt>
      <trkpt lat="42.95374" lon="-0.16666">
        <ele>921.46</ele>
        <time>2021-08-13T06:23:37.000Z</time>
      </trkpt>
      <trkpt lat="42.95406" lon="-0.16644">
        <ele>919.6</ele>
        <time>2021-08-13T06:23:42.000Z</time>
      </trkpt>
      <trkpt lat="42.95438" lon="-0.16618">
        <ele>917.79</ele>
        <time>2021-08-13T06:23:47.000Z</time>
      </trkpt>
      <trkpt lat="42.95467" lon="-0.16587">
        <ele>916.52</ele>
        <time>2021-08-13T06:23:52.000Z</time>
      </trkpt>
      <trkpt lat="42.95486" lon="-0.16543">
        <ele>914.62</ele>
        <time>2021-08-13T06:23:57.000Z</time>
      </trkpt>
      <trkpt lat="42.95522" lon="-0.16504">
        <ele>912.56</ele>
        <time>2021-08-13T06:24:02.000Z</time>
      </trkpt>
      <trkpt lat="42.95564" lon="-0.16473">
        <ele>910.61</ele>
        <time>2021-08-13T06:24:07.000Z</time>
      </trkpt>
      <trkpt lat="42.95604" lon="-0.16452">
        <ele>909.15</ele>
        <time>2021-08-13T06:24:12.000Z</time>
      </trkpt>
      <trkpt lat="42.95642" lon="-0.1643">
        <ele>906.98</ele>
        <time>2021-08-13T06:24:17.000Z</time>
      </trkpt>
      <trkpt lat="42.95677" lon="-0.16397">
        <ele>904.96</ele>
        <time>2021-08-13T06:24:22.000Z</time>
      </trkpt>
      <trkpt lat="42.95706" lon="-0.16347">
        <ele>902.74</ele>
        <time>2021-08-13T06:24:27.000Z</time>
      </trkpt>
      <trkpt lat="42.95736" lon="-0.16296">
        <ele>900.86</ele>
        <time>2021-08-13T06:24:32.000Z</time>
      </trkpt>
      <trkpt lat="42.95777" lon="-0.16271">
        <ele>898.47</ele>
        <time>2021-08-13T06:24:37.000Z</time>
      </trkpt>
      <trkpt lat="42.95814" lon="-0.16235">
        <ele>896.37</ele>
        <time>2021-08-13T06:24:42.000Z</time>
      </trkpt>
      <trkpt lat="42.95849" lon="-0.16193">
        <ele>893.99</ele>
        <time>2021-08-13T06:24:47.000Z</time>
      </trkpt>
      <trkpt lat="42.95892" lon="-0.16159">
        <ele>891.99</ele>
        <time>2021-08-13T06:24:52.000Z</time>
      </trkpt>
      <trkpt lat="42.95923" lon="-0.16105">
        <ele>890.04</ele>
        <time>2021-08-13T06:24:57.000Z</time>
      </trkpt>
      <trkpt lat="42.95964" lon="-0.16072">
        <ele>887.95</ele>
        <time>2021-08-13T06:25:02.000Z</time>
      </trkpt>
      <trkpt lat="42.96011" lon="-0.16083">
        <ele>885.98</ele>
        <time>2021-08-13T06:25:07.000Z</time>
      </trkpt>
      <trkpt lat="42.96054" lon="-0.16084">
        <ele>884.4</ele>
        <time>2021-08-13T06:25:12.000Z</time>
      </trkpt>
      <trkpt lat="42.96088" lon="-0.16045">
        <ele>882.72</ele>
        <time>2021-08-13T06:25:17.000Z</time>
      </trkpt>
      <trkpt lat="42.96118" lon="-0.16002">
        <ele>880.89</ele>
        <time>2021-08-13T06:25:22.000Z</time>
      </trkpt>
      <trkpt lat="42.96136" lon="-0.15943">
        <ele>878.49</ele>
        <time>2021-08-13T06:25:27.000Z</time>
      </trkpt>
      <trkpt lat="42.96139" lon="-0.15888">
        <ele>875.88</ele>
        <time>2021-08-13T06:25:32.000Z</time>
      </trkpt>
      <trkpt lat="42.96138" lon="-0.15847">
        <ele>873.57</ele>
        <time>2021-08-13T06:25:37.000Z</time>
      </trkpt>
      <trkpt lat="42.96166" lon="-0.15805">
        <ele>871.95</ele>
        <time>2021-08-13T06:25:42.000Z</time>
      </trkpt>
      <trkpt lat="42.96201" lon="-0.15771">
        <ele>869.25</ele>
        <time>2021-08-13T06:25:47.000Z</time>
      </trkpt>
      <trkpt lat="42.96245" lon="-0.15752">
        <ele>866.53</ele>
        <time>2021-08-13T06:25:52.000Z</time>
      </trkpt>
      <trkpt lat="42.9629" lon="-0.15735">
        <ele>864.24</ele>
        <time>2021-08-13T06:25:57.000Z</time>
      </trkpt>
      <trkpt lat="42.96331" lon="-0.15718">
        <ele>861.81</ele>
        <time>2021-08-13T06:26:02.000Z</time>
      </trkpt>
      <trkpt lat="42.96377" lon="-0.15689">
        <ele>857.08</ele>
        <time>2021-08-13T06:26:07.000Z</time>
      </trkpt>
      <trkpt lat="42.9643" lon="-0.15679">
        <ele>852.72</ele>
        <time>2021-08-13T06:26:12.000Z</time>
      </trkpt>
      <trkpt lat="42.96483" lon="-0.15652">
        <ele>848.29</ele>
        <time>2021-08-13T06:26:17.000Z</time>
      </trkpt>
      <trkpt lat="42.96536" lon="-0.15625">
        <ele>844.85</ele>
        <time>2021-08-13T06:26:22.000Z</time>
      </trkpt>
      <trkpt lat="42.96585" lon="-0.15616">
        <ele>842.16</ele>
        <time>2021-08-13T06:26:27.000Z</time>
      </trkpt>
      <trkpt lat="42.96623" lon="-0.15583">
        <ele>839.04</ele>
        <time>2021-08-13T06:26:32.000Z</time>
      </trkpt>
      <trkpt lat="42.96664" lon="-0.15563">
        <ele>835.06</ele>
        <time>2021-08-13T06:26:37.000Z</time>
      </trkpt>
      <trkpt lat="42.96691" lon="-0.15511">
        <ele>831.45</ele>
        <time>2021-08-13T06:26:42.000Z</time>
      </trkpt>
      <trkpt lat="42.96731" lon="-0.15467">
        <ele>827.76</ele>
        <time>2021-08-13T06:26:47.000Z</time>
      </trkpt>
      <trkpt lat="42.96786" lon="-0.15457">
        <ele>824.74</ele>
        <time>2021-08-13T06:26:52.000Z</time>
      </trkpt>
      <trkpt lat="42.96841" lon="-0.15486">
        <ele>820.97</ele>
        <time>2021-08-13T06:26:57.000Z</time>
      </trkpt>
      <trkpt lat="42.969" lon="-0.15511">
        <ele>814.06</ele>
        <time>2021-08-13T06:27:02.000Z</time>
      </trkpt>
      <trkpt lat="42.96968" lon="-0.15497">
        <ele>806.38</ele>
        <time>2021-08-13T06:27:07.000Z</time>
      </trkpt>
      <trkpt lat="42.97031" lon="-0.15486">
        <ele>798.73</ele>
        <time>2021-08-13T06:27:12.000Z</time>
      </trkpt>
      <trkpt lat="42.97076" lon="-0.15449">
        <ele>792.91</ele>
        <time>2021-08-13T06:27:17.000Z</time>
      </trkpt>
      <trkpt lat="42.97125" lon="-0.15429">
        <ele>789.82</ele>
        <time>2021-08-13T06:27:22.000Z</time>
      </trkpt>
      <trkpt lat="42.97165" lon="-0.15378">
        <ele>786.24</ele>
        <time>2021-08-13T06:27:27.000Z</time>
      </trkpt>
      <trkpt lat="42.97207" lon="-0.15326">
        <ele>781.21</ele>
        <time>2021-08-13T06:27:32.000Z</time>
      </trkpt>
      <trkpt lat="42.97265" lon="-0.15315">
        <ele>773.84</ele>
        <time>2021-08-13T06:27:37.000Z</time>
      </trkpt>
      <trkpt lat="42.97319" lon="-0.15282">
        <ele>767.65</ele>
        <time>2021-08-13T06:27:42.000Z</time>
      </trkpt>
      <trkpt lat="42.97377" lon="-0.15253">
        <ele>762.62</ele>
        <time>2021-08-13T06:27:47.000Z</time>
      </trkpt>
      <trkpt lat="42.97434" lon="-0.1523">
        <ele>755.9</ele>
        <time>2021-08-13T06:27:52.000Z</time>
      </trkpt>
      <trkpt lat="42.97492" lon="-0.15215">
        <ele>749.11</ele>
        <time>2021-08-13T06:27:57.000Z</time>
      </trkpt>
      <trkpt lat="42.97549" lon="-0.15186">
        <ele>743.55</ele>
        <time>2021-08-13T06:28:02.000Z</time>
      </trkpt>
      <trkpt lat="42.97611" lon="-0.15158">
        <ele>737.24</ele>
        <time>2021-08-13T06:28:07.000Z</time>
      </trkpt>
      <trkpt lat="42.97665" lon="-0.15122">
        <ele>731.14</ele>
        <time>2021-08-13T06:28:12.000Z</time>
      </trkpt>
      <trkpt lat="42.97707" lon="-0.15067">
        <ele>726</ele>
        <time>2021-08-13T06:28:17.000Z</time>
      </trkpt>
      <trkpt lat="42.97759" lon="-0.15033">
        <ele>721.65</ele>
        <time>2021-08-13T06:28:22.000Z</time>
      </trkpt>
      <trkpt lat="42.97807" lon="-0.14991">
        <ele>717.95</ele>
        <time>2021-08-13T06:28:27.000Z</time>
      </trkpt>
      <trkpt lat="42.97834" lon="-0.14925">
        <ele>714.42</ele>
        <time>2021-08-13T06:28:32.000Z</time>
      </trkpt>
      <trkpt lat="42.97873" lon="-0.14873">
        <ele>710.52</ele>
        <time>2021-08-13T06:28:37.000Z</time>
      </trkpt>
      <trkpt lat="42.9792" lon="-0.14831">
        <ele>706.22</ele>
        <time>2021-08-13T06:28:42.000Z</time>
      </trkpt>
      <trkpt lat="42.97961" lon="-0.1478">
        <ele>702.23</ele>
        <time>2021-08-13T06:28:47.000Z</time>
      </trkpt>
      <trkpt lat="42.97976" lon="-0.14708">
        <ele>699.19</ele>
        <time>2021-08-13T06:28:52.000Z</time>
      </trkpt>
      <trkpt lat="42.98005" lon="-0.14643">
        <ele>695.01</ele>
        <time>2021-08-13T06:28:57.000Z</time>
      </trkpt>
      <trkpt lat="42.98023" lon="-0.1457">
        <ele>690.68</ele>
        <time>2021-08-13T06:29:02.000Z</time>
      </trkpt>
      <trkpt lat="42.98038" lon="-0.14506">
        <ele>687.17</ele>
        <time>2021-08-13T06:29:07.000Z</time>
      </trkpt>
      <trkpt lat="42.98041" lon="-0.14448">
        <ele>683.51</ele>
        <time>2021-08-13T06:29:12.000Z</time>
      </trkpt>
      <trkpt lat="42.98056" lon="-0.14404">
        <ele>679.98</ele>
        <time>2021-08-13T06:29:17.000Z</time>
      </trkpt>
      <trkpt lat="42.98081" lon="-0.14371">
        <ele>677.36</ele>
        <time>2021-08-13T06:29:22.000Z</time>
      </trkpt>
      <trkpt lat="42.9811" lon="-0.14371">
        <ele>675.53</ele>
        <time>2021-08-13T06:29:27.000Z</time>
      </trkpt>
      <trkpt lat="42.98131" lon="-0.14397">
        <ele>673.89</ele>
        <time>2021-08-13T06:29:32.000Z</time>
      </trkpt>
      <trkpt lat="42.98171" lon="-0.14377">
        <ele>669.67</ele>
        <time>2021-08-13T06:29:37.000Z</time>
      </trkpt>
      <trkpt lat="42.98212" lon="-0.14345">
        <ele>666.11</ele>
        <time>2021-08-13T06:29:42.000Z</time>
      </trkpt>
      <trkpt lat="42.98246" lon="-0.14351">
        <ele>663.88</ele>
        <time>2021-08-13T06:29:47.000Z</time>
      </trkpt>
      <trkpt lat="42.98267" lon="-0.14327">
        <ele>661.9</ele>
        <time>2021-08-13T06:29:52.000Z</time>
      </trkpt>
      <trkpt lat="42.98287" lon="-0.1428">
        <ele>659.95</ele>
        <time>2021-08-13T06:29:57.000Z</time>
      </trkpt>
      <trkpt lat="42.98291" lon="-0.14212">
        <ele>658.52</ele>
        <time>2021-08-13T06:30:02.000Z</time>
      </trkpt>
      <trkpt lat="42.98291" lon="-0.14144">
        <ele>656.56</ele>
        <time>2021-08-13T06:30:07.000Z</time>
      </trkpt>
      <trkpt lat="42.98285" lon="-0.14077">
        <ele>653.88</ele>
        <time>2021-08-13T06:30:12.000Z</time>
      </trkpt>
      <trkpt lat="42.9828" lon="-0.14011">
        <ele>651.24</ele>
        <time>2021-08-13T06:30:17.000Z</time>
      </trkpt>
      <trkpt lat="42.98272" lon="-0.13948">
        <ele>648.93</ele>
        <time>2021-08-13T06:30:22.000Z</time>
      </trkpt>
      <trkpt lat="42.9827" lon="-0.1389">
        <ele>646.07</ele>
        <time>2021-08-13T06:30:27.000Z</time>
      </trkpt>
      <trkpt lat="42.98275" lon="-0.13832">
        <ele>643.08</ele>
        <time>2021-08-13T06:30:32.000Z</time>
      </trkpt>
      <trkpt lat="42.98283" lon="-0.13772">
        <ele>640.1</ele>
        <time>2021-08-13T06:30:37.000Z</time>
      </trkpt>
      <trkpt lat="42.98284" lon="-0.13707">
        <ele>638.14</ele>
        <time>2021-08-13T06:30:42.000Z</time>
      </trkpt>
      <trkpt lat="42.9831" lon="-0.13656">
        <ele>637.2</ele>
        <time>2021-08-13T06:30:47.000Z</time>
      </trkpt>
      <trkpt lat="42.98349" lon="-0.13622">
        <ele>636.1</ele>
        <time>2021-08-13T06:30:52.000Z</time>
      </trkpt>
      <trkpt lat="42.9839" lon="-0.13594">
        <ele>635.15</ele>
        <time>2021-08-13T06:30:57.000Z</time>
      </trkpt>
      <trkpt lat="42.98433" lon="-0.1358">
        <ele>634.78</ele>
        <time>2021-08-13T06:31:02.000Z</time>
      </trkpt>
      <trkpt lat="42.98472" lon="-0.13567">
        <ele>634.05</ele>
        <time>2021-08-13T06:31:07.000Z</time>
      </trkpt>
      <trkpt lat="42.98505" lon="-0.13546">
        <ele>631.74</ele>
        <time>2021-08-13T06:31:12.000Z</time>
      </trkpt>
      <trkpt lat="42.98525" lon="-0.13508">
        <ele>629.17</ele>
        <time>2021-08-13T06:31:17.000Z</time>
      </trkpt>
      <trkpt lat="42.98543" lon="-0.13472">
        <ele>626.99</ele>
        <time>2021-08-13T06:31:22.000Z</time>
      </trkpt>
      <trkpt lat="42.98558" lon="-0.13442">
        <ele>625.48</ele>
        <time>2021-08-13T06:31:27.000Z</time>
      </trkpt>
      <trkpt lat="42.98561" lon="-0.13419">
        <ele>625.12</ele>
        <time>2021-08-13T06:31:32.000Z</time>
      </trkpt>
      <trkpt lat="42.98564" lon="-0.13401">
        <ele>625.01</ele>
        <time>2021-08-13T06:31:37.000Z</time>
      </trkpt>
      <trkpt lat="42.98569" lon="-0.13386">
        <ele>624.87</ele>
        <time>2021-08-13T06:31:42.000Z</time>
      </trkpt>
      <trkpt lat="42.98575" lon="-0.13373">
        <ele>624.73</ele>
        <time>2021-08-13T06:31:47.000Z</time>
      </trkpt>
      <trkpt lat="42.98582" lon="-0.13362">
        <ele>624.58</ele>
        <time>2021-08-13T06:31:52.000Z</time>
      </trkpt>
      <trkpt lat="42.98589" lon="-0.13351">
        <ele>624.43</ele>
        <time>2021-08-13T06:31:57.000Z</time>
      </trkpt>
      <trkpt lat="42.98594" lon="-0.13337">
        <ele>624.28</ele>
        <time>2021-08-13T06:32:02.000Z</time>
      </trkpt>
      <trkpt lat="42.98595" lon="-0.13322">
        <ele>624.14</ele>
        <time>2021-08-13T06:32:07.000Z</time>
      </trkpt>
      <trkpt lat="42.98597" lon="-0.13308">
        <ele>624.01</ele>
        <time>2021-08-13T06:32:12.000Z</time>
      </trkpt>
      <trkpt lat="42.98597" lon="-0.13295">
        <ele>623.89</ele>
        <time>2021-08-13T06:32:17.000Z</time>
      </trkpt>
      <trkpt lat="42.98597" lon="-0.13281">
        <ele>623.79</ele>
        <time>2021-08-13T06:32:22.000Z</time>
      </trkpt>
      <trkpt lat="42.98599" lon="-0.13269">
        <ele>623.72</ele>
        <time>2021-08-13T06:32:27.000Z</time>
      </trkpt>
      <trkpt lat="42.98601" lon="-0.13254">
        <ele>623.7</ele>
        <time>2021-08-13T06:32:33.000Z</time>
      </trkpt>
      <trkpt lat="42.98603" lon="-0.1324">
        <ele>623.73</ele>
        <time>2021-08-13T06:32:39.000Z</time>
      </trkpt>
      <trkpt lat="42.98605" lon="-0.13227">
        <ele>623.79</ele>
        <time>2021-08-13T06:32:45.000Z</time>
      </trkpt>
      <trkpt lat="42.98607" lon="-0.13213">
        <ele>623.85</ele>
        <time>2021-08-13T06:32:51.000Z</time>
      </trkpt>
      <trkpt lat="42.9861" lon="-0.132">
        <ele>623.9</ele>
        <time>2021-08-13T06:32:57.000Z</time>
      </trkpt>
      <trkpt lat="42.98613" lon="-0.13187">
        <ele>623.99</ele>
        <time>2021-08-13T06:33:03.000Z</time>
      </trkpt>
      <trkpt lat="42.98616" lon="-0.13175">
        <ele>624.13</ele>
        <time>2021-08-13T06:33:09.000Z</time>
      </trkpt>
      <trkpt lat="42.98619" lon="-0.13161">
        <ele>624.32</ele>
        <time>2021-08-13T06:33:16.000Z</time>
      </trkpt>
      <trkpt lat="42.98622" lon="-0.13148">
        <ele>624.54</ele>
        <time>2021-08-13T06:33:23.000Z</time>
      </trkpt>
      <trkpt lat="42.98625" lon="-0.13134">
        <ele>624.79</ele>
        <time>2021-08-13T06:33:30.000Z</time>
      </trkpt>
      <trkpt lat="42.98628" lon="-0.13122">
        <ele>625.02</ele>
        <time>2021-08-13T06:33:36.000Z</time>
      </trkpt>
      <trkpt lat="42.98631" lon="-0.13109">
        <ele>625.34</ele>
        <time>2021-08-13T06:33:43.000Z</time>
      </trkpt>
      <trkpt lat="42.98634" lon="-0.13096">
        <ele>625.68</ele>
        <time>2021-08-13T06:33:50.000Z</time>
      </trkpt>
      <trkpt lat="42.98637" lon="-0.13084">
        <ele>626</ele>
        <time>2021-08-13T06:33:56.000Z</time>
      </trkpt>
      <trkpt lat="42.98639" lon="-0.13072">
        <ele>626.33</ele>
        <time>2021-08-13T06:34:02.000Z</time>
      </trkpt>
      <trkpt lat="42.98641" lon="-0.13059">
        <ele>626.67</ele>
        <time>2021-08-13T06:34:08.000Z</time>
      </trkpt>
      <trkpt lat="42.98642" lon="-0.13046">
        <ele>627</ele>
        <time>2021-08-13T06:34:14.000Z</time>
      </trkpt>
      <trkpt lat="42.98643" lon="-0.13033">
        <ele>627.34</ele>
        <time>2021-08-13T06:34:20.000Z</time>
      </trkpt>
      <trkpt lat="42.98644" lon="-0.13021">
        <ele>627.7</ele>
        <time>2021-08-13T06:34:26.000Z</time>
      </trkpt>
      <trkpt lat="42.98645" lon="-0.13009">
        <ele>628.07</ele>
        <time>2021-08-13T06:34:32.000Z</time>
      </trkpt>
      <trkpt lat="42.98647" lon="-0.12995">
        <ele>628.52</ele>
        <time>2021-08-13T06:34:39.000Z</time>
      </trkpt>
      <trkpt lat="42.9865" lon="-0.12983">
        <ele>628.9</ele>
        <time>2021-08-13T06:34:45.000Z</time>
      </trkpt>
      <trkpt lat="42.98653" lon="-0.1297">
        <ele>629.27</ele>
        <time>2021-08-13T06:34:51.000Z</time>
      </trkpt>
      <trkpt lat="42.98656" lon="-0.12957">
        <ele>629.65</ele>
        <time>2021-08-13T06:34:57.000Z</time>
      </trkpt>
      <trkpt lat="42.98657" lon="-0.12945">
        <ele>630.02</ele>
        <time>2021-08-13T06:35:03.000Z</time>
      </trkpt>
      <trkpt lat="42.98656" lon="-0.12931">
        <ele>630.39</ele>
        <time>2021-08-13T06:35:09.000Z</time>
      </trkpt>
      <trkpt lat="42.98658" lon="-0.12917">
        <ele>630.84</ele>
        <time>2021-08-13T06:35:15.999Z</time>
      </trkpt>
      <trkpt lat="42.98661" lon="-0.12905">
        <ele>631.25</ele>
        <time>2021-08-13T06:35:21.999Z</time>
      </trkpt>
      <trkpt lat="42.98667" lon="-0.12895">
        <ele>631.6</ele>
        <time>2021-08-13T06:35:26.999Z</time>
      </trkpt>
      <trkpt lat="42.98678" lon="-0.12884">
        <ele>631.93</ele>
        <time>2021-08-13T06:35:31.999Z</time>
      </trkpt>
      <trkpt lat="42.98689" lon="-0.12873">
        <ele>632.25</ele>
        <time>2021-08-13T06:35:36.999Z</time>
      </trkpt>
      <trkpt lat="42.98702" lon="-0.12864">
        <ele>632.56</ele>
        <time>2021-08-13T06:35:41.999Z</time>
      </trkpt>
      <trkpt lat="42.98717" lon="-0.12861">
        <ele>632.86</ele>
        <time>2021-08-13T06:35:46.999Z</time>
      </trkpt>
      <trkpt lat="42.98731" lon="-0.12859">
        <ele>633.16</ele>
        <time>2021-08-13T06:35:51.999Z</time>
      </trkpt>
      <trkpt lat="42.98746" lon="-0.12857">
        <ele>633.46</ele>
        <time>2021-08-13T06:35:56.999Z</time>
      </trkpt>
      <trkpt lat="42.9876" lon="-0.12855">
        <ele>633.77</ele>
        <time>2021-08-13T06:36:01.999Z</time>
      </trkpt>
      <trkpt lat="42.98771" lon="-0.12853">
        <ele>634.08</ele>
        <time>2021-08-13T06:36:06.999Z</time>
      </trkpt>
      <trkpt lat="42.98782" lon="-0.12852">
        <ele>634.4</ele>
        <time>2021-08-13T06:36:11.999Z</time>
      </trkpt>
      <trkpt lat="42.98792" lon="-0.12851">
        <ele>634.72</ele>
        <time>2021-08-13T06:36:16.999Z</time>
      </trkpt>
      <trkpt lat="42.98803" lon="-0.12849">
        <ele>635.04</ele>
        <time>2021-08-13T06:36:21.999Z</time>
      </trkpt>
      <trkpt lat="42.98814" lon="-0.12846">
        <ele>635.37</ele>
        <time>2021-08-13T06:36:26.999Z</time>
      </trkpt>
      <trkpt lat="42.98824" lon="-0.1284">
        <ele>635.71</ele>
        <time>2021-08-13T06:36:31.999Z</time>
      </trkpt>
      <trkpt lat="42.98835" lon="-0.12835">
        <ele>636.03</ele>
        <time>2021-08-13T06:36:36.999Z</time>
      </trkpt>
      <trkpt lat="42.98845" lon="-0.12829">
        <ele>636.35</ele>
        <time>2021-08-13T06:36:41.999Z</time>
      </trkpt>
      <trkpt lat="42.98858" lon="-0.12823">
        <ele>636.66</ele>
        <time>2021-08-13T06:36:46.999Z</time>
      </trkpt>
      <trkpt lat="42.98872" lon="-0.12815">
        <ele>636.96</ele>
        <time>2021-08-13T06:36:51.999Z</time>
      </trkpt>
      <trkpt lat="42.98884" lon="-0.12803">
        <ele>637.25</ele>
        <time>2021-08-13T06:36:56.999Z</time>
      </trkpt>
      <trkpt lat="42.98893" lon="-0.12789">
        <ele>637.54</ele>
        <time>2021-08-13T06:37:01.999Z</time>
      </trkpt>
      <trkpt lat="42.98902" lon="-0.1278">
        <ele>637.83</ele>
        <time>2021-08-13T06:37:06.999Z</time>
      </trkpt>
      <trkpt lat="42.9891" lon="-0.12771">
        <ele>638.11</ele>
        <time>2021-08-13T06:37:11.999Z</time>
      </trkpt>
      <trkpt lat="42.98919" lon="-0.12762">
        <ele>638.38</ele>
        <time>2021-08-13T06:37:16.999Z</time>
      </trkpt>
      <trkpt lat="42.98927" lon="-0.12752">
        <ele>638.65</ele>
        <time>2021-08-13T06:37:21.999Z</time>
      </trkpt>
      <trkpt lat="42.98936" lon="-0.12744">
        <ele>638.91</ele>
        <time>2021-08-13T06:37:26.999Z</time>
      </trkpt>
      <trkpt lat="42.98944" lon="-0.12734">
        <ele>639.16</ele>
        <time>2021-08-13T06:37:31.999Z</time>
      </trkpt>
      <trkpt lat="42.98951" lon="-0.12725">
        <ele>639.4</ele>
        <time>2021-08-13T06:37:36.999Z</time>
      </trkpt>
      <trkpt lat="42.98959" lon="-0.12714">
        <ele>639.65</ele>
        <time>2021-08-13T06:37:41.999Z</time>
      </trkpt>
      <trkpt lat="42.98967" lon="-0.12703">
        <ele>639.89</ele>
        <time>2021-08-13T06:37:46.999Z</time>
      </trkpt>
      <trkpt lat="42.98976" lon="-0.12692">
        <ele>640.14</ele>
        <time>2021-08-13T06:37:51.999Z</time>
      </trkpt>
      <trkpt lat="42.98987" lon="-0.12679">
        <ele>640.39</ele>
        <time>2021-08-13T06:37:56.999Z</time>
      </trkpt>
      <trkpt lat="42.98998" lon="-0.12669">
        <ele>640.64</ele>
        <time>2021-08-13T06:38:01.999Z</time>
      </trkpt>
      <trkpt lat="42.99008" lon="-0.12663">
        <ele>640.88</ele>
        <time>2021-08-13T06:38:06.999Z</time>
      </trkpt>
      <trkpt lat="42.99017" lon="-0.12657">
        <ele>641.13</ele>
        <time>2021-08-13T06:38:11.999Z</time>
      </trkpt>
      <trkpt lat="42.99025" lon="-0.12649">
        <ele>641.38</ele>
        <time>2021-08-13T06:38:16.999Z</time>
      </trkpt>
      <trkpt lat="42.99032" lon="-0.12639">
        <ele>641.64</ele>
        <time>2021-08-13T06:38:21.999Z</time>
      </trkpt>
      <trkpt lat="42.99038" lon="-0.12629">
        <ele>641.91</ele>
        <time>2021-08-13T06:38:26.999Z</time>
      </trkpt>
      <trkpt lat="42.99042" lon="-0.12616">
        <ele>642.24</ele>
        <time>2021-08-13T06:38:32.999Z</time>
      </trkpt>
      <trkpt lat="42.99047" lon="-0.12603">
        <ele>642.63</ele>
        <time>2021-08-13T06:38:39.999Z</time>
      </trkpt>
      <trkpt lat="42.99051" lon="-0.1259">
        <ele>643.04</ele>
        <time>2021-08-13T06:38:46.999Z</time>
      </trkpt>
      <trkpt lat="42.99052" lon="-0.12576">
        <ele>643.46</ele>
        <time>2021-08-13T06:38:53.999Z</time>
      </trkpt>
      <trkpt lat="42.99053" lon="-0.12563">
        <ele>643.9</ele>
        <time>2021-08-13T06:39:00.999Z</time>
      </trkpt>
      <trkpt lat="42.99054" lon="-0.12549">
        <ele>644.35</ele>
        <time>2021-08-13T06:39:07.999Z</time>
      </trkpt>
      <trkpt lat="42.99059" lon="-0.12538">
        <ele>644.75</ele>
        <time>2021-08-13T06:39:13.999Z</time>
      </trkpt>
      <trkpt lat="42.99066" lon="-0.12529">
        <ele>645.07</ele>
        <time>2021-08-13T06:39:18.999Z</time>
      </trkpt>
      <trkpt lat="42.99073" lon="-0.1252">
        <ele>645.44</ele>
        <time>2021-08-13T06:39:24.999Z</time>
      </trkpt>
      <trkpt lat="42.9908" lon="-0.1251">
        <ele>645.8</ele>
        <time>2021-08-13T06:39:30.999Z</time>
      </trkpt>
      <trkpt lat="42.99087" lon="-0.12502">
        <ele>646.16</ele>
        <time>2021-08-13T06:39:36.999Z</time>
      </trkpt>
      <trkpt lat="42.99095" lon="-0.12498">
        <ele>646.57</ele>
        <time>2021-08-13T06:39:43.999Z</time>
      </trkpt>
      <trkpt lat="42.99104" lon="-0.12505">
        <ele>646.99</ele>
        <time>2021-08-13T06:39:50.999Z</time>
      </trkpt>
      <trkpt lat="42.9911" lon="-0.12515">
        <ele>647.41</ele>
        <time>2021-08-13T06:39:57.999Z</time>
      </trkpt>
      <trkpt lat="42.99115" lon="-0.12527">
        <ele>647.85</ele>
        <time>2021-08-13T06:40:04.999Z</time>
      </trkpt>
      <trkpt lat="42.9912" lon="-0.12539">
        <ele>648.3</ele>
        <time>2021-08-13T06:40:11.999Z</time>
      </trkpt>
      <trkpt lat="42.99127" lon="-0.12549">
        <ele>648.77</ele>
        <time>2021-08-13T06:40:18.999Z</time>
      </trkpt>
      <trkpt lat="42.99132" lon="-0.1256">
        <ele>649.28</ele>
        <time>2021-08-13T06:40:25.999Z</time>
      </trkpt>
      <trkpt lat="42.99137" lon="-0.12571">
        <ele>649.81</ele>
        <time>2021-08-13T06:40:32.999Z</time>
      </trkpt>
      <trkpt lat="42.99147" lon="-0.12575">
        <ele>650.37</ele>
        <time>2021-08-13T06:40:39.999Z</time>
      </trkpt>
      <trkpt lat="42.99155" lon="-0.12567">
        <ele>650.93</ele>
        <time>2021-08-13T06:40:46.999Z</time>
      </trkpt>
      <trkpt lat="42.99164" lon="-0.1256">
        <ele>651.54</ele>
        <time>2021-08-13T06:40:54.999Z</time>
      </trkpt>
      <trkpt lat="42.99171" lon="-0.12554">
        <ele>651.96</ele>
        <time>2021-08-13T06:41:00.999Z</time>
      </trkpt>
      <trkpt lat="42.9918" lon="-0.12548">
        <ele>652.44</ele>
        <time>2021-08-13T06:41:07.999Z</time>
      </trkpt>
      <trkpt lat="42.99189" lon="-0.12544">
        <ele>652.83</ele>
        <time>2021-08-13T06:41:13.999Z</time>
      </trkpt>
      <trkpt lat="42.99198" lon="-0.12549">
        <ele>653.21</ele>
        <time>2021-08-13T06:41:19.999Z</time>
      </trkpt>
      <trkpt lat="42.99207" lon="-0.12556">
        <ele>653.59</ele>
        <time>2021-08-13T06:41:25.999Z</time>
      </trkpt>
      <trkpt lat="42.99217" lon="-0.12556">
        <ele>653.96</ele>
        <time>2021-08-13T06:41:31.999Z</time>
      </trkpt>
      <trkpt lat="42.99226" lon="-0.12553">
        <ele>654.33</ele>
        <time>2021-08-13T06:41:37.999Z</time>
      </trkpt>
      <trkpt lat="42.99235" lon="-0.12546">
        <ele>654.73</ele>
        <time>2021-08-13T06:41:44.999Z</time>
      </trkpt>
      <trkpt lat="42.99243" lon="-0.12537">
        <ele>655.11</ele>
        <time>2021-08-13T06:41:51.999Z</time>
      </trkpt>
      <trkpt lat="42.99249" lon="-0.12526">
        <ele>655.37</ele>
        <time>2021-08-13T06:41:56.999Z</time>
      </trkpt>
      <trkpt lat="42.99259" lon="-0.12514">
        <ele>655.63</ele>
        <time>2021-08-13T06:42:01.999Z</time>
      </trkpt>
      <trkpt lat="42.99271" lon="-0.12501">
        <ele>655.88</ele>
        <time>2021-08-13T06:42:06.999Z</time>
      </trkpt>
      <trkpt lat="42.9929" lon="-0.1249">
        <ele>657.52</ele>
        <time>2021-08-13T06:42:11.999Z</time>
      </trkpt>
      <trkpt lat="42.99314" lon="-0.12477">
        <ele>658.21</ele>
        <time>2021-08-13T06:42:16.999Z</time>
      </trkpt>
      <trkpt lat="42.99336" lon="-0.12465">
        <ele>658.52</ele>
        <time>2021-08-13T06:42:21.999Z</time>
      </trkpt>
      <trkpt lat="42.99355" lon="-0.12443">
        <ele>658.73</ele>
        <time>2021-08-13T06:42:26.999Z</time>
      </trkpt>
      <trkpt lat="42.99385" lon="-0.12414">
        <ele>658.96</ele>
        <time>2021-08-13T06:42:31.999Z</time>
      </trkpt>
      <trkpt lat="42.99429" lon="-0.12384">
        <ele>658.98</ele>
        <time>2021-08-13T06:42:36.999Z</time>
      </trkpt>
      <trkpt lat="42.99461" lon="-0.12325">
        <ele>658.63</ele>
        <time>2021-08-13T06:42:41.999Z</time>
      </trkpt>
      <trkpt lat="42.99488" lon="-0.12252">
        <ele>658.3</ele>
        <time>2021-08-13T06:42:46.999Z</time>
      </trkpt>
      <trkpt lat="42.9951" lon="-0.12171">
        <ele>657.8</ele>
        <time>2021-08-13T06:42:51.999Z</time>
      </trkpt>
      <trkpt lat="42.99512" lon="-0.12085">
        <ele>657.41</ele>
        <time>2021-08-13T06:42:56.999Z</time>
      </trkpt>
      <trkpt lat="42.99487" lon="-0.12">
        <ele>656.59</ele>
        <time>2021-08-13T06:43:01.999Z</time>
      </trkpt>
      <trkpt lat="42.99497" lon="-0.11912">
        <ele>655.94</ele>
        <time>2021-08-13T06:43:06.999Z</time>
      </trkpt>
      <trkpt lat="42.99508" lon="-0.11823">
        <ele>655.67</ele>
        <time>2021-08-13T06:43:11.999Z</time>
      </trkpt>
      <trkpt lat="42.9954" lon="-0.11749">
        <ele>655.03</ele>
        <time>2021-08-13T06:43:16.999Z</time>
      </trkpt>
      <trkpt lat="42.99598" lon="-0.1173">
        <ele>654.67</ele>
        <time>2021-08-13T06:43:21.999Z</time>
      </trkpt>
      <trkpt lat="42.99661" lon="-0.11719">
        <ele>653.79</ele>
        <time>2021-08-13T06:43:26.999Z</time>
      </trkpt>
      <trkpt lat="42.99725" lon="-0.11701">
        <ele>651.59</ele>
        <time>2021-08-13T06:43:31.999Z</time>
      </trkpt>
      <trkpt lat="42.99785" lon="-0.11653">
        <ele>648.8</ele>
        <time>2021-08-13T06:43:36.999Z</time>
      </trkpt>
      <trkpt lat="42.99828" lon="-0.11583">
        <ele>639.27</ele>
        <time>2021-08-13T06:43:41.999Z</time>
      </trkpt>
      <trkpt lat="42.99837" lon="-0.11495">
        <ele>630.99</ele>
        <time>2021-08-13T06:43:46.999Z</time>
      </trkpt>
      <trkpt lat="42.99854" lon="-0.11409">
        <ele>624.35</ele>
        <time>2021-08-13T06:43:51.999Z</time>
      </trkpt>
      <trkpt lat="42.99855" lon="-0.11323">
        <ele>618.13</ele>
        <time>2021-08-13T06:43:56.999Z</time>
      </trkpt>
      <trkpt lat="42.99887" lon="-0.11252">
        <ele>613.2</ele>
        <time>2021-08-13T06:44:01.999Z</time>
      </trkpt>
      <trkpt lat="42.99921" lon="-0.11188">
        <ele>605.9</ele>
        <time>2021-08-13T06:44:06.999Z</time>
      </trkpt>
      <trkpt lat="42.99899" lon="-0.1112">
        <ele>600.82</ele>
        <time>2021-08-13T06:44:11.999Z</time>
      </trkpt>
      <trkpt lat="42.9991" lon="-0.11044">
        <ele>597</ele>
        <time>2021-08-13T06:44:16.999Z</time>
      </trkpt>
      <trkpt lat="42.99915" lon="-0.1096">
        <ele>592.99</ele>
        <time>2021-08-13T06:44:21.999Z</time>
      </trkpt>
      <trkpt lat="42.99923" lon="-0.10875">
        <ele>590.21</ele>
        <time>2021-08-13T06:44:26.999Z</time>
      </trkpt>
      <trkpt lat="42.99974" lon="-0.10858">
        <ele>585.85</ele>
        <time>2021-08-13T06:44:31.999Z</time>
      </trkpt>
      <trkpt lat="43.00033" lon="-0.10853">
        <ele>574.53</ele>
        <time>2021-08-13T06:44:36.999Z</time>
      </trkpt>
      <trkpt lat="43.00087" lon="-0.10807">
        <ele>568.84</ele>
        <time>2021-08-13T06:44:41.999Z</time>
      </trkpt>
      <trkpt lat="43.00142" lon="-0.10759">
        <ele>565.64</ele>
        <time>2021-08-13T06:44:46.999Z</time>
      </trkpt>
      <trkpt lat="43.00196" lon="-0.10707">
        <ele>562.47</ele>
        <time>2021-08-13T06:44:51.999Z</time>
      </trkpt>
      <trkpt lat="43.00254" lon="-0.1066">
        <ele>557.85</ele>
        <time>2021-08-13T06:44:56.999Z</time>
      </trkpt>
      <trkpt lat="43.00303" lon="-0.10594">
        <ele>552.37</ele>
        <time>2021-08-13T06:45:01.999Z</time>
      </trkpt>
      <trkpt lat="43.00359" lon="-0.10542">
        <ele>546.76</ele>
        <time>2021-08-13T06:45:06.999Z</time>
      </trkpt>
      <trkpt lat="43.00401" lon="-0.10468">
        <ele>538.15</ele>
        <time>2021-08-13T06:45:11.999Z</time>
      </trkpt>
      <trkpt lat="43.00451" lon="-0.1041">
        <ele>532.07</ele>
        <time>2021-08-13T06:45:16.999Z</time>
      </trkpt>
      <trkpt lat="43.00478" lon="-0.10349">
        <ele>526.23</ele>
        <time>2021-08-13T06:45:21.999Z</time>
      </trkpt>
      <trkpt lat="43.00491" lon="-0.1028">
        <ele>521.31</ele>
        <time>2021-08-13T06:45:26.999Z</time>
      </trkpt>
      <trkpt lat="43.00528" lon="-0.10226">
        <ele>515.79</ele>
        <time>2021-08-13T06:45:31.999Z</time>
      </trkpt>
      <trkpt lat="43.00564" lon="-0.10175">
        <ele>509.79</ele>
        <time>2021-08-13T06:45:36.999Z</time>
      </trkpt>
      <trkpt lat="43.00608" lon="-0.10153">
        <ele>502</ele>
        <time>2021-08-13T06:45:41.999Z</time>
      </trkpt>
      <trkpt lat="43.00665" lon="-0.10152">
        <ele>495.73</ele>
        <time>2021-08-13T06:45:46.999Z</time>
      </trkpt>
      <trkpt lat="43.00701" lon="-0.10129">
        <ele>491.96</ele>
        <time>2021-08-13T06:45:51.999Z</time>
      </trkpt>
      <trkpt lat="43.00682" lon="-0.10105">
        <ele>488.94</ele>
        <time>2021-08-13T06:45:56.999Z</time>
      </trkpt>
      <trkpt lat="43.00667" lon="-0.10082">
        <ele>487.51</ele>
        <time>2021-08-13T06:46:01.999Z</time>
      </trkpt>
      <trkpt lat="43.00664" lon="-0.10064">
        <ele>488.39</ele>
        <time>2021-08-13T06:46:58.000Z</time>
      </trkpt>
      <trkpt lat="43.00665" lon="-0.10051">
        <ele>488.57</ele>
        <time>2021-08-13T06:47:03.000Z</time>
      </trkpt>
      <trkpt lat="43.0067" lon="-0.10037">
        <ele>488.46</ele>
        <time>2021-08-13T06:47:09.000Z</time>
      </trkpt>
      <trkpt lat="43.00677" lon="-0.10017">
        <ele>486.33</ele>
        <time>2021-08-13T06:47:14.000Z</time>
      </trkpt>
      <trkpt lat="43.00693" lon="-0.1001">
        <ele>485.35</ele>
        <time>2021-08-13T06:47:19.000Z</time>
      </trkpt>
      <trkpt lat="43.00697" lon="-0.09998">
        <ele>483.49</ele>
        <time>2021-08-13T06:47:56.000Z</time>
      </trkpt>
      <trkpt lat="43.00714" lon="-0.0999">
        <ele>480.84</ele>
        <time>2021-08-13T06:48:01.000Z</time>
      </trkpt>
      <trkpt lat="43.00731" lon="-0.09986">
        <ele>477.85</ele>
        <time>2021-08-13T06:48:06.000Z</time>
      </trkpt>
      <trkpt lat="43.00743" lon="-0.09984">
        <ele>477.03</ele>
        <time>2021-08-13T06:48:11.000Z</time>
      </trkpt>
      <trkpt lat="43.00734" lon="-0.0998">
        <ele>472.85</ele>
        <time>2021-08-13T06:48:29.000Z</time>
      </trkpt>
      <trkpt lat="43.00702" lon="-0.09952">
        <ele>467.82</ele>
        <time>2021-08-13T06:48:34.000Z</time>
      </trkpt>
      <trkpt lat="43.00675" lon="-0.09924">
        <ele>464.08</ele>
        <time>2021-08-13T06:48:39.000Z</time>
      </trkpt>
      <trkpt lat="43.00675" lon="-0.09895">
        <ele>461.38</ele>
        <time>2021-08-13T06:48:44.000Z</time>
      </trkpt>
      <trkpt lat="43.00684" lon="-0.09866">
        <ele>459.88</ele>
        <time>2021-08-13T06:48:49.000Z</time>
      </trkpt>
      <trkpt lat="43.00689" lon="-0.09842">
        <ele>458.28</ele>
        <time>2021-08-13T06:48:54.000Z</time>
      </trkpt>
      <trkpt lat="43.00701" lon="-0.09814">
        <ele>456.5</ele>
        <time>2021-08-13T06:48:59.000Z</time>
      </trkpt>
      <trkpt lat="43.00708" lon="-0.09787">
        <ele>455.44</ele>
        <time>2021-08-13T06:49:04.000Z</time>
      </trkpt>
      <trkpt lat="43.00708" lon="-0.09757">
        <ele>454.02</ele>
        <time>2021-08-13T06:49:09.000Z</time>
      </trkpt>
      <trkpt lat="43.00709" lon="-0.0972">
        <ele>452.36</ele>
        <time>2021-08-13T06:49:14.000Z</time>
      </trkpt>
      <trkpt lat="43.00709" lon="-0.09685">
        <ele>450.95</ele>
        <time>2021-08-13T06:49:19.000Z</time>
      </trkpt>
      <trkpt lat="43.00709" lon="-0.09646">
        <ele>449.84</ele>
        <time>2021-08-13T06:49:24.000Z</time>
      </trkpt>
      <trkpt lat="43.0071" lon="-0.0961">
        <ele>448.6</ele>
        <time>2021-08-13T06:49:29.000Z</time>
      </trkpt>
      <trkpt lat="43.00712" lon="-0.09572">
        <ele>446.91</ele>
        <time>2021-08-13T06:49:34.000Z</time>
      </trkpt>
      <trkpt lat="43.00716" lon="-0.09535">
        <ele>445.4</ele>
        <time>2021-08-13T06:49:39.000Z</time>
      </trkpt>
      <trkpt lat="43.00736" lon="-0.09513">
        <ele>443.49</ele>
        <time>2021-08-13T06:49:44.000Z</time>
      </trkpt>
      <trkpt lat="43.00757" lon="-0.09503">
        <ele>442.12</ele>
        <time>2021-08-13T06:49:49.000Z</time>
      </trkpt>
      <trkpt lat="43.00771" lon="-0.09494">
        <ele>441.77</ele>
        <time>2021-08-13T06:49:54.000Z</time>
      </trkpt>
      <trkpt lat="43.00779" lon="-0.0951">
        <ele>441.63</ele>
        <time>2021-08-13T06:49:59.000Z</time>
      </trkpt>
      <trkpt lat="43.00792" lon="-0.09525">
        <ele>440.86</ele>
        <time>2021-08-13T06:50:04.000Z</time>
      </trkpt>
      <trkpt lat="43.00806" lon="-0.09543">
        <ele>439.76</ele>
        <time>2021-08-13T06:50:09.000Z</time>
      </trkpt>
      <trkpt lat="43.00821" lon="-0.09562">
        <ele>439.18</ele>
        <time>2021-08-13T06:50:14.000Z</time>
      </trkpt>
      <trkpt lat="43.00837" lon="-0.09583">
        <ele>438.78</ele>
        <time>2021-08-13T06:50:19.000Z</time>
      </trkpt>
      <trkpt lat="43.00852" lon="-0.09602">
        <ele>438.62</ele>
        <time>2021-08-13T06:50:24.000Z</time>
      </trkpt>
      <trkpt lat="43.00868" lon="-0.09623">
        <ele>438.57</ele>
        <time>2021-08-13T06:50:29.000Z</time>
      </trkpt>
      <trkpt lat="43.00886" lon="-0.09641">
        <ele>438.59</ele>
        <time>2021-08-13T06:50:34.000Z</time>
      </trkpt>
      <trkpt lat="43.00903" lon="-0.09659">
        <ele>438.78</ele>
        <time>2021-08-13T06:50:39.000Z</time>
      </trkpt>
      <trkpt lat="43.0092" lon="-0.09678">
        <ele>438.82</ele>
        <time>2021-08-13T06:50:44.000Z</time>
      </trkpt>
      <trkpt lat="43.00936" lon="-0.09697">
        <ele>438.8</ele>
        <time>2021-08-13T06:50:49.000Z</time>
      </trkpt>
      <trkpt lat="43.00953" lon="-0.09714">
        <ele>438.73</ele>
        <time>2021-08-13T06:50:54.000Z</time>
      </trkpt>
      <trkpt lat="43.00975" lon="-0.09733">
        <ele>438.54</ele>
        <time>2021-08-13T06:50:59.000Z</time>
      </trkpt>
      <trkpt lat="43.00998" lon="-0.09749">
        <ele>438.15</ele>
        <time>2021-08-13T06:51:04.000Z</time>
      </trkpt>
      <trkpt lat="43.01024" lon="-0.09764">
        <ele>437.61</ele>
        <time>2021-08-13T06:51:09.000Z</time>
      </trkpt>
      <trkpt lat="43.01052" lon="-0.09775">
        <ele>437.21</ele>
        <time>2021-08-13T06:51:14.000Z</time>
      </trkpt>
      <trkpt lat="43.01084" lon="-0.09782">
        <ele>436.65</ele>
        <time>2021-08-13T06:51:19.000Z</time>
      </trkpt>
      <trkpt lat="43.01116" lon="-0.09787">
        <ele>435.96</ele>
        <time>2021-08-13T06:51:24.000Z</time>
      </trkpt>
      <trkpt lat="43.01155" lon="-0.09788">
        <ele>435.06</ele>
        <time>2021-08-13T06:51:29.000Z</time>
      </trkpt>
      <trkpt lat="43.01189" lon="-0.09789">
        <ele>434.02</ele>
        <time>2021-08-13T06:51:34.000Z</time>
      </trkpt>
      <trkpt lat="43.01223" lon="-0.09787">
        <ele>433.52</ele>
        <time>2021-08-13T06:51:39.000Z</time>
      </trkpt>
      <trkpt lat="43.01251" lon="-0.09786">
        <ele>433.56</ele>
        <time>2021-08-13T06:51:44.000Z</time>
      </trkpt>
      <trkpt lat="43.01273" lon="-0.09784">
        <ele>434.24</ele>
        <time>2021-08-13T06:51:49.000Z</time>
      </trkpt>
      <trkpt lat="43.01294" lon="-0.09782">
        <ele>434.03</ele>
        <time>2021-08-13T06:51:54.000Z</time>
      </trkpt>
      <trkpt lat="43.01314" lon="-0.09781">
        <ele>433.12</ele>
        <time>2021-08-13T06:51:59.000Z</time>
      </trkpt>
      <trkpt lat="43.01337" lon="-0.09779">
        <ele>431.65</ele>
        <time>2021-08-13T06:52:04.000Z</time>
      </trkpt>
      <trkpt lat="43.01363" lon="-0.09778">
        <ele>429.81</ele>
        <time>2021-08-13T06:52:09.000Z</time>
      </trkpt>
      <trkpt lat="43.01387" lon="-0.09775">
        <ele>428.21</ele>
        <time>2021-08-13T06:52:14.000Z</time>
      </trkpt>
      <trkpt lat="43.01412" lon="-0.09771">
        <ele>426.98</ele>
        <time>2021-08-13T06:52:19.000Z</time>
      </trkpt>
      <trkpt lat="43.01439" lon="-0.09765">
        <ele>425.82</ele>
        <time>2021-08-13T06:52:24.000Z</time>
      </trkpt>
      <trkpt lat="43.01465" lon="-0.09758">
        <ele>424.87</ele>
        <time>2021-08-13T06:52:29.000Z</time>
      </trkpt>
      <trkpt lat="43.0149" lon="-0.09751">
        <ele>424.1</ele>
        <time>2021-08-13T06:52:34.000Z</time>
      </trkpt>
      <trkpt lat="43.01516" lon="-0.09745">
        <ele>423.42</ele>
        <time>2021-08-13T06:52:39.000Z</time>
      </trkpt>
      <trkpt lat="43.01541" lon="-0.09739">
        <ele>422.74</ele>
        <time>2021-08-13T06:52:44.000Z</time>
      </trkpt>
      <trkpt lat="43.01566" lon="-0.09731">
        <ele>422.3</ele>
        <time>2021-08-13T06:52:49.000Z</time>
      </trkpt>
      <trkpt lat="43.01591" lon="-0.09724">
        <ele>421.87</ele>
        <time>2021-08-13T06:52:54.000Z</time>
      </trkpt>
      <trkpt lat="43.01617" lon="-0.09717">
        <ele>421.39</ele>
        <time>2021-08-13T06:52:59.000Z</time>
      </trkpt>
      <trkpt lat="43.01642" lon="-0.0971">
        <ele>421</ele>
        <time>2021-08-13T06:53:04.000Z</time>
      </trkpt>
      <trkpt lat="43.01669" lon="-0.09703">
        <ele>420.54</ele>
        <time>2021-08-13T06:53:09.000Z</time>
      </trkpt>
      <trkpt lat="43.01694" lon="-0.09697">
        <ele>420.24</ele>
        <time>2021-08-13T06:53:14.000Z</time>
      </trkpt>
      <trkpt lat="43.01719" lon="-0.0969">
        <ele>420.22</ele>
        <time>2021-08-13T06:53:19.000Z</time>
      </trkpt>
      <trkpt lat="43.01743" lon="-0.09683">
        <ele>420.21</ele>
        <time>2021-08-13T06:53:24.000Z</time>
      </trkpt>
      <trkpt lat="43.01767" lon="-0.09677">
        <ele>420.03</ele>
        <time>2021-08-13T06:53:29.000Z</time>
      </trkpt>
      <trkpt lat="43.01792" lon="-0.09669">
        <ele>419.79</ele>
        <time>2021-08-13T06:53:34.000Z</time>
      </trkpt>
      <trkpt lat="43.01815" lon="-0.09657">
        <ele>419.63</ele>
        <time>2021-08-13T06:53:39.000Z</time>
      </trkpt>
      <trkpt lat="43.0184" lon="-0.09643">
        <ele>419.46</ele>
        <time>2021-08-13T06:53:44.000Z</time>
      </trkpt>
      <trkpt lat="43.01863" lon="-0.09629">
        <ele>419.27</ele>
        <time>2021-08-13T06:53:49.000Z</time>
      </trkpt>
      <trkpt lat="43.01884" lon="-0.09612">
        <ele>419.07</ele>
        <time>2021-08-13T06:53:54.000Z</time>
      </trkpt>
      <trkpt lat="43.01904" lon="-0.09594">
        <ele>418.83</ele>
        <time>2021-08-13T06:53:59.000Z</time>
      </trkpt>
      <trkpt lat="43.01921" lon="-0.09575">
        <ele>418.74</ele>
        <time>2021-08-13T06:54:04.000Z</time>
      </trkpt>
      <trkpt lat="43.01936" lon="-0.09559">
        <ele>418.66</ele>
        <time>2021-08-13T06:54:09.000Z</time>
      </trkpt>
      <trkpt lat="43.0195" lon="-0.09539">
        <ele>418.33</ele>
        <time>2021-08-13T06:54:14.000Z</time>
      </trkpt>
      <trkpt lat="43.01964" lon="-0.09516">
        <ele>418.01</ele>
        <time>2021-08-13T06:54:19.000Z</time>
      </trkpt>
      <trkpt lat="43.01978" lon="-0.09492">
        <ele>417.96</ele>
        <time>2021-08-13T06:54:24.000Z</time>
      </trkpt>
      <trkpt lat="43.01991" lon="-0.09467">
        <ele>417.82</ele>
        <time>2021-08-13T06:54:29.000Z</time>
      </trkpt>
      <trkpt lat="43.02003" lon="-0.09441">
        <ele>417.67</ele>
        <time>2021-08-13T06:54:34.000Z</time>
      </trkpt>
      <trkpt lat="43.02012" lon="-0.09415">
        <ele>417.4</ele>
        <time>2021-08-13T06:54:39.000Z</time>
      </trkpt>
      <trkpt lat="43.02021" lon="-0.09386">
        <ele>417.11</ele>
        <time>2021-08-13T06:54:44.000Z</time>
      </trkpt>
      <trkpt lat="43.02029" lon="-0.09355">
        <ele>416.78</ele>
        <time>2021-08-13T06:54:49.000Z</time>
      </trkpt>
      <trkpt lat="43.02036" lon="-0.09326">
        <ele>416.54</ele>
        <time>2021-08-13T06:54:54.000Z</time>
      </trkpt>
      <trkpt lat="43.02043" lon="-0.09296">
        <ele>416.41</ele>
        <time>2021-08-13T06:54:59.000Z</time>
      </trkpt>
      <trkpt lat="43.0205" lon="-0.09265">
        <ele>416.4</ele>
        <time>2021-08-13T06:55:04.000Z</time>
      </trkpt>
      <trkpt lat="43.02058" lon="-0.09234">
        <ele>416.17</ele>
        <time>2021-08-13T06:55:09.000Z</time>
      </trkpt>
      <trkpt lat="43.02066" lon="-0.09204">
        <ele>415.94</ele>
        <time>2021-08-13T06:55:14.000Z</time>
      </trkpt>
      <trkpt lat="43.02073" lon="-0.09175">
        <ele>415.76</ele>
        <time>2021-08-13T06:55:19.000Z</time>
      </trkpt>
      <trkpt lat="43.0208" lon="-0.09145">
        <ele>415.69</ele>
        <time>2021-08-13T06:55:24.000Z</time>
      </trkpt>
      <trkpt lat="43.02087" lon="-0.09116">
        <ele>415.55</ele>
        <time>2021-08-13T06:55:29.000Z</time>
      </trkpt>
      <trkpt lat="43.02095" lon="-0.09086">
        <ele>415.44</ele>
        <time>2021-08-13T06:55:34.000Z</time>
      </trkpt>
      <trkpt lat="43.02102" lon="-0.09056">
        <ele>415.27</ele>
        <time>2021-08-13T06:55:39.000Z</time>
      </trkpt>
      <trkpt lat="43.02109" lon="-0.09026">
        <ele>415.11</ele>
        <time>2021-08-13T06:55:44.000Z</time>
      </trkpt>
      <trkpt lat="43.02117" lon="-0.08995">
        <ele>415.08</ele>
        <time>2021-08-13T06:55:49.000Z</time>
      </trkpt>
      <trkpt lat="43.02124" lon="-0.08964">
        <ele>415</ele>
        <time>2021-08-13T06:55:54.000Z</time>
      </trkpt>
      <trkpt lat="43.02132" lon="-0.08933">
        <ele>414.78</ele>
        <time>2021-08-13T06:55:59.000Z</time>
      </trkpt>
      <trkpt lat="43.02139" lon="-0.08902">
        <ele>414.66</ele>
        <time>2021-08-13T06:56:04.000Z</time>
      </trkpt>
      <trkpt lat="43.02146" lon="-0.08872">
        <ele>414.5</ele>
        <time>2021-08-13T06:56:09.000Z</time>
      </trkpt>
      <trkpt lat="43.02153" lon="-0.08842">
        <ele>414.38</ele>
        <time>2021-08-13T06:56:14.000Z</time>
      </trkpt>
      <trkpt lat="43.02161" lon="-0.08812">
        <ele>414.15</ele>
        <time>2021-08-13T06:56:19.000Z</time>
      </trkpt>
      <trkpt lat="43.02169" lon="-0.08781">
        <ele>413.9</ele>
        <time>2021-08-13T06:56:24.000Z</time>
      </trkpt>
      <trkpt lat="43.02177" lon="-0.08751">
        <ele>413.76</ele>
        <time>2021-08-13T06:56:29.000Z</time>
      </trkpt>
      <trkpt lat="43.02184" lon="-0.08723">
        <ele>413.66</ele>
        <time>2021-08-13T06:56:34.000Z</time>
      </trkpt>
      <trkpt lat="43.02191" lon="-0.08693">
        <ele>413.35</ele>
        <time>2021-08-13T06:56:39.000Z</time>
      </trkpt>
      <trkpt lat="43.022" lon="-0.0866">
        <ele>412.74</ele>
        <time>2021-08-13T06:56:44.000Z</time>
      </trkpt>
      <trkpt lat="43.0221" lon="-0.08623">
        <ele>412.2</ele>
        <time>2021-08-13T06:56:49.000Z</time>
      </trkpt>
      <trkpt lat="43.02219" lon="-0.08585">
        <ele>411.67</ele>
        <time>2021-08-13T06:56:54.000Z</time>
      </trkpt>
      <trkpt lat="43.0223" lon="-0.08546">
        <ele>411.28</ele>
        <time>2021-08-13T06:56:59.000Z</time>
      </trkpt>
      <trkpt lat="43.02238" lon="-0.08506">
        <ele>411.09</ele>
        <time>2021-08-13T06:57:04.000Z</time>
      </trkpt>
      <trkpt lat="43.02241" lon="-0.08463">
        <ele>411.09</ele>
        <time>2021-08-13T06:57:09.000Z</time>
      </trkpt>
      <trkpt lat="43.02216" lon="-0.08446">
        <ele>411.02</ele>
        <time>2021-08-13T06:57:14.000Z</time>
      </trkpt>
      <trkpt lat="43.02202" lon="-0.08433">
        <ele>410.97</ele>
        <time>2021-08-13T06:57:19.000Z</time>
      </trkpt>
      <trkpt lat="43.02201" lon="-0.0842">
        <ele>411.3</ele>
        <time>2021-08-13T06:58:18.999Z</time>
      </trkpt>
      <trkpt lat="43.02199" lon="-0.08408">
        <ele>411.46</ele>
        <time>2021-08-13T06:58:23.999Z</time>
      </trkpt>
      <trkpt lat="43.02198" lon="-0.08393">
        <ele>411.63</ele>
        <time>2021-08-13T06:58:28.999Z</time>
      </trkpt>
      <trkpt lat="43.02202" lon="-0.0838">
        <ele>411.8</ele>
        <time>2021-08-13T06:58:34.999Z</time>
      </trkpt>
      <trkpt lat="43.02208" lon="-0.08367">
        <ele>411.92</ele>
        <time>2021-08-13T06:58:39.999Z</time>
      </trkpt>
      <trkpt lat="43.02217" lon="-0.08351">
        <ele>412.01</ele>
        <time>2021-08-13T06:58:44.999Z</time>
      </trkpt>
      <trkpt lat="43.02224" lon="-0.08331">
        <ele>412.09</ele>
        <time>2021-08-13T06:58:49.999Z</time>
      </trkpt>
      <trkpt lat="43.02228" lon="-0.08313">
        <ele>412.15</ele>
        <time>2021-08-13T06:58:54.999Z</time>
      </trkpt>
      <trkpt lat="43.02228" lon="-0.08298">
        <ele>412.21</ele>
        <time>2021-08-13T06:58:59.999Z</time>
      </trkpt>
      <trkpt lat="43.02229" lon="-0.08278">
        <ele>412.25</ele>
        <time>2021-08-13T06:59:04.999Z</time>
      </trkpt>
      <trkpt lat="43.02229" lon="-0.08255">
        <ele>412.27</ele>
        <time>2021-08-13T06:59:09.999Z</time>
      </trkpt>
      <trkpt lat="43.02229" lon="-0.08229">
        <ele>412.26</ele>
        <time>2021-08-13T06:59:14.999Z</time>
      </trkpt>
      <trkpt lat="43.02228" lon="-0.08204">
        <ele>412.25</ele>
        <time>2021-08-13T06:59:19.999Z</time>
      </trkpt>
      <trkpt lat="43.02228" lon="-0.08177">
        <ele>412.23</ele>
        <time>2021-08-13T06:59:24.999Z</time>
      </trkpt>
      <trkpt lat="43.02227" lon="-0.08152">
        <ele>412.15</ele>
        <time>2021-08-13T06:59:29.999Z</time>
      </trkpt>
      <trkpt lat="43.02228" lon="-0.08128">
        <ele>411.84</ele>
        <time>2021-08-13T06:59:34.999Z</time>
      </trkpt>
      <trkpt lat="43.02228" lon="-0.08101">
        <ele>411.49</ele>
        <time>2021-08-13T06:59:39.999Z</time>
      </trkpt>
      <trkpt lat="43.0223" lon="-0.08071">
        <ele>411.63</ele>
        <time>2021-08-13T06:59:44.999Z</time>
      </trkpt>
      <trkpt lat="43.0224" lon="-0.07988">
        <ele>411.81</ele>
        <time>2021-08-13T06:59:57.999Z</time>
      </trkpt>
      <trkpt lat="43.02257" lon="-0.07917">
        <ele>412.06</ele>
        <time>2021-08-13T07:00:08.999Z</time>
      </trkpt>
      <trkpt lat="43.02266" lon="-0.07885">
        <ele>411.91</ele>
        <time>2021-08-13T07:00:13.999Z</time>
      </trkpt>
      <trkpt lat="43.02275" lon="-0.07852">
        <ele>411.75</ele>
        <time>2021-08-13T07:00:18.999Z</time>
      </trkpt>
      <trkpt lat="43.02284" lon="-0.07817">
        <ele>411.81</ele>
        <time>2021-08-13T07:00:23.999Z</time>
      </trkpt>
      <trkpt lat="43.02292" lon="-0.07782">
        <ele>411.92</ele>
        <time>2021-08-13T07:00:28.999Z</time>
      </trkpt>
      <trkpt lat="43.02301" lon="-0.07748">
        <ele>412.27</ele>
        <time>2021-08-13T07:00:33.999Z</time>
      </trkpt>
      <trkpt lat="43.0231" lon="-0.0771">
        <ele>412.68</ele>
        <time>2021-08-13T07:00:38.999Z</time>
      </trkpt>
      <trkpt lat="43.0232" lon="-0.07674">
        <ele>412.77</ele>
        <time>2021-08-13T07:00:43.999Z</time>
      </trkpt>
      <trkpt lat="43.02329" lon="-0.07637">
        <ele>412.81</ele>
        <time>2021-08-13T07:00:48.999Z</time>
      </trkpt>
      <trkpt lat="43.02339" lon="-0.076">
        <ele>412.56</ele>
        <time>2021-08-13T07:00:53.999Z</time>
      </trkpt>
      <trkpt lat="43.02348" lon="-0.07563">
        <ele>412.19</ele>
        <time>2021-08-13T07:00:58.999Z</time>
      </trkpt>
      <trkpt lat="43.02358" lon="-0.07527">
        <ele>411.78</ele>
        <time>2021-08-13T07:01:03.999Z</time>
      </trkpt>
      <trkpt lat="43.02367" lon="-0.07491">
        <ele>411.31</ele>
        <time>2021-08-13T07:01:08.999Z</time>
      </trkpt>
      <trkpt lat="43.02376" lon="-0.07456">
        <ele>410.72</ele>
        <time>2021-08-13T07:01:13.999Z</time>
      </trkpt>
      <trkpt lat="43.02384" lon="-0.0742">
        <ele>410</ele>
        <time>2021-08-13T07:01:18.999Z</time>
      </trkpt>
      <trkpt lat="43.02393" lon="-0.07383">
        <ele>409.48</ele>
        <time>2021-08-13T07:01:23.999Z</time>
      </trkpt>
      <trkpt lat="43.02401" lon="-0.07348">
        <ele>408.95</ele>
        <time>2021-08-13T07:01:28.999Z</time>
      </trkpt>
      <trkpt lat="43.0241" lon="-0.07311">
        <ele>408.29</ele>
        <time>2021-08-13T07:01:33.999Z</time>
      </trkpt>
      <trkpt lat="43.02419" lon="-0.07277">
        <ele>407.7</ele>
        <time>2021-08-13T07:01:38.999Z</time>
      </trkpt>
      <trkpt lat="43.02427" lon="-0.07243">
        <ele>407.55</ele>
        <time>2021-08-13T07:01:43.999Z</time>
      </trkpt>
      <trkpt lat="43.02436" lon="-0.07209">
        <ele>407.27</ele>
        <time>2021-08-13T07:01:48.999Z</time>
      </trkpt>
      <trkpt lat="43.02443" lon="-0.07177">
        <ele>406.97</ele>
        <time>2021-08-13T07:01:53.999Z</time>
      </trkpt>
      <trkpt lat="43.02451" lon="-0.07146">
        <ele>406.32</ele>
        <time>2021-08-13T07:01:58.999Z</time>
      </trkpt>
      <trkpt lat="43.02459" lon="-0.07116">
        <ele>405.33</ele>
        <time>2021-08-13T07:02:03.999Z</time>
      </trkpt>
      <trkpt lat="43.02465" lon="-0.07092">
        <ele>404.91</ele>
        <time>2021-08-13T07:02:08.999Z</time>
      </trkpt>
      <trkpt lat="43.02471" lon="-0.07068">
        <ele>404.51</ele>
        <time>2021-08-13T07:02:13.999Z</time>
      </trkpt>
      <trkpt lat="43.02479" lon="-0.0704">
        <ele>404.3</ele>
        <time>2021-08-13T07:02:18.999Z</time>
      </trkpt>
      <trkpt lat="43.02487" lon="-0.0701">
        <ele>404.18</ele>
        <time>2021-08-13T07:02:23.999Z</time>
      </trkpt>
      <trkpt lat="43.02494" lon="-0.06979">
        <ele>404.22</ele>
        <time>2021-08-13T07:02:28.999Z</time>
      </trkpt>
      <trkpt lat="43.02502" lon="-0.06949">
        <ele>404.25</ele>
        <time>2021-08-13T07:02:33.999Z</time>
      </trkpt>
      <trkpt lat="43.0251" lon="-0.06919">
        <ele>404.29</ele>
        <time>2021-08-13T07:02:38.999Z</time>
      </trkpt>
      <trkpt lat="43.02517" lon="-0.06887">
        <ele>404.35</ele>
        <time>2021-08-13T07:02:43.999Z</time>
      </trkpt>
      <trkpt lat="43.02526" lon="-0.06856">
        <ele>404.39</ele>
        <time>2021-08-13T07:02:48.999Z</time>
      </trkpt>
      <trkpt lat="43.02533" lon="-0.06824">
        <ele>404.44</ele>
        <time>2021-08-13T07:02:53.999Z</time>
      </trkpt>
      <trkpt lat="43.02541" lon="-0.06794">
        <ele>404.47</ele>
        <time>2021-08-13T07:02:58.999Z</time>
      </trkpt>
      <trkpt lat="43.02549" lon="-0.06763">
        <ele>404.48</ele>
        <time>2021-08-13T07:03:03.999Z</time>
      </trkpt>
      <trkpt lat="43.02556" lon="-0.06732">
        <ele>404.53</ele>
        <time>2021-08-13T07:03:08.999Z</time>
      </trkpt>
      <trkpt lat="43.02564" lon="-0.06702">
        <ele>404.57</ele>
        <time>2021-08-13T07:03:13.999Z</time>
      </trkpt>
      <trkpt lat="43.02573" lon="-0.06671">
        <ele>404.57</ele>
        <time>2021-08-13T07:03:18.999Z</time>
      </trkpt>
      <trkpt lat="43.02584" lon="-0.06641">
        <ele>404.61</ele>
        <time>2021-08-13T07:03:23.999Z</time>
      </trkpt>
      <trkpt lat="43.02596" lon="-0.06611">
        <ele>404.63</ele>
        <time>2021-08-13T07:03:28.999Z</time>
      </trkpt>
      <trkpt lat="43.0261" lon="-0.06579">
        <ele>404.65</ele>
        <time>2021-08-13T07:03:33.999Z</time>
      </trkpt>
      <trkpt lat="43.02625" lon="-0.0655">
        <ele>404.66</ele>
        <time>2021-08-13T07:03:38.999Z</time>
      </trkpt>
      <trkpt lat="43.02643" lon="-0.06521">
        <ele>404.67</ele>
        <time>2021-08-13T07:03:43.999Z</time>
      </trkpt>
      <trkpt lat="43.02662" lon="-0.06495">
        <ele>404.66</ele>
        <time>2021-08-13T07:03:48.999Z</time>
      </trkpt>
      <trkpt lat="43.02682" lon="-0.06469">
        <ele>404.67</ele>
        <time>2021-08-13T07:03:53.999Z</time>
      </trkpt>
      <trkpt lat="43.02704" lon="-0.06443">
        <ele>404.69</ele>
        <time>2021-08-13T07:03:58.999Z</time>
      </trkpt>
      <trkpt lat="43.02727" lon="-0.0642">
        <ele>404.68</ele>
        <time>2021-08-13T07:04:03.999Z</time>
      </trkpt>
      <trkpt lat="43.02751" lon="-0.064">
        <ele>404.73</ele>
        <time>2021-08-13T07:04:08.999Z</time>
      </trkpt>
      <trkpt lat="43.02774" lon="-0.06383">
        <ele>404.8</ele>
        <time>2021-08-13T07:04:13.999Z</time>
      </trkpt>
      <trkpt lat="43.02799" lon="-0.06366">
        <ele>404.86</ele>
        <time>2021-08-13T07:04:18.999Z</time>
      </trkpt>
      <trkpt lat="43.02823" lon="-0.06353">
        <ele>404.96</ele>
        <time>2021-08-13T07:04:23.999Z</time>
      </trkpt>
      <trkpt lat="43.02848" lon="-0.06341">
        <ele>405.09</ele>
        <time>2021-08-13T07:04:28.999Z</time>
      </trkpt>
      <trkpt lat="43.02873" lon="-0.06332">
        <ele>405.21</ele>
        <time>2021-08-13T07:04:33.999Z</time>
      </trkpt>
      <trkpt lat="43.02899" lon="-0.06324">
        <ele>405.26</ele>
        <time>2021-08-13T07:04:38.999Z</time>
      </trkpt>
      <trkpt lat="43.02925" lon="-0.06314">
        <ele>405.25</ele>
        <time>2021-08-13T07:04:43.999Z</time>
      </trkpt>
      <trkpt lat="43.02951" lon="-0.06306">
        <ele>405.29</ele>
        <time>2021-08-13T07:04:48.999Z</time>
      </trkpt>
      <trkpt lat="43.02977" lon="-0.06297">
        <ele>405.34</ele>
        <time>2021-08-13T07:04:53.999Z</time>
      </trkpt>
      <trkpt lat="43.03004" lon="-0.06287">
        <ele>405.43</ele>
        <time>2021-08-13T07:04:58.999Z</time>
      </trkpt>
      <trkpt lat="43.03029" lon="-0.06279">
        <ele>405.54</ele>
        <time>2021-08-13T07:05:03.999Z</time>
      </trkpt>
      <trkpt lat="43.03055" lon="-0.06269">
        <ele>405.61</ele>
        <time>2021-08-13T07:05:08.999Z</time>
      </trkpt>
      <trkpt lat="43.0308" lon="-0.06262">
        <ele>405.69</ele>
        <time>2021-08-13T07:05:13.999Z</time>
      </trkpt>
      <trkpt lat="43.03106" lon="-0.06254">
        <ele>405.72</ele>
        <time>2021-08-13T07:05:18.999Z</time>
      </trkpt>
      <trkpt lat="43.03133" lon="-0.06245">
        <ele>405.76</ele>
        <time>2021-08-13T07:05:23.999Z</time>
      </trkpt>
      <trkpt lat="43.0316" lon="-0.06235">
        <ele>405.83</ele>
        <time>2021-08-13T07:05:28.999Z</time>
      </trkpt>
      <trkpt lat="43.03186" lon="-0.06225">
        <ele>405.95</ele>
        <time>2021-08-13T07:05:33.999Z</time>
      </trkpt>
      <trkpt lat="43.03212" lon="-0.06217">
        <ele>406.03</ele>
        <time>2021-08-13T07:05:38.999Z</time>
      </trkpt>
      <trkpt lat="43.03237" lon="-0.0621">
        <ele>406.07</ele>
        <time>2021-08-13T07:05:43.999Z</time>
      </trkpt>
      <trkpt lat="43.03261" lon="-0.06201">
        <ele>406.12</ele>
        <time>2021-08-13T07:05:48.999Z</time>
      </trkpt>
      <trkpt lat="43.03286" lon="-0.06192">
        <ele>406.19</ele>
        <time>2021-08-13T07:05:53.999Z</time>
      </trkpt>
      <trkpt lat="43.03311" lon="-0.06184">
        <ele>406.25</ele>
        <time>2021-08-13T07:05:58.999Z</time>
      </trkpt>
      <trkpt lat="43.03336" lon="-0.06176">
        <ele>406.29</ele>
        <time>2021-08-13T07:06:03.999Z</time>
      </trkpt>
      <trkpt lat="43.0336" lon="-0.06168">
        <ele>406.3</ele>
        <time>2021-08-13T07:06:08.999Z</time>
      </trkpt>
      <trkpt lat="43.03385" lon="-0.0616">
        <ele>406.32</ele>
        <time>2021-08-13T07:06:13.999Z</time>
      </trkpt>
      <trkpt lat="43.03411" lon="-0.06151">
        <ele>406.34</ele>
        <time>2021-08-13T07:06:18.999Z</time>
      </trkpt>
      <trkpt lat="43.03436" lon="-0.06144">
        <ele>406.38</ele>
        <time>2021-08-13T07:06:23.999Z</time>
      </trkpt>
      <trkpt lat="43.03462" lon="-0.06137">
        <ele>406.39</ele>
        <time>2021-08-13T07:06:28.999Z</time>
      </trkpt>
      <trkpt lat="43.03488" lon="-0.06131">
        <ele>406.4</ele>
        <time>2021-08-13T07:06:33.999Z</time>
      </trkpt>
      <trkpt lat="43.03515" lon="-0.06126">
        <ele>406.43</ele>
        <time>2021-08-13T07:06:38.999Z</time>
      </trkpt>
      <trkpt lat="43.03542" lon="-0.06119">
        <ele>406.42</ele>
        <time>2021-08-13T07:06:43.999Z</time>
      </trkpt>
      <trkpt lat="43.03568" lon="-0.06113">
        <ele>406.38</ele>
        <time>2021-08-13T07:06:48.999Z</time>
      </trkpt>
      <trkpt lat="43.03595" lon="-0.06107">
        <ele>406.34</ele>
        <time>2021-08-13T07:06:53.999Z</time>
      </trkpt>
      <trkpt lat="43.03622" lon="-0.061">
        <ele>406.28</ele>
        <time>2021-08-13T07:06:58.999Z</time>
      </trkpt>
      <trkpt lat="43.03649" lon="-0.06094">
        <ele>406.24</ele>
        <time>2021-08-13T07:07:03.999Z</time>
      </trkpt>
      <trkpt lat="43.03677" lon="-0.06087">
        <ele>406.21</ele>
        <time>2021-08-13T07:07:08.999Z</time>
      </trkpt>
      <trkpt lat="43.03704" lon="-0.06081">
        <ele>406.15</ele>
        <time>2021-08-13T07:07:13.999Z</time>
      </trkpt>
      <trkpt lat="43.03732" lon="-0.06074">
        <ele>406.1</ele>
        <time>2021-08-13T07:07:18.999Z</time>
      </trkpt>
      <trkpt lat="43.03758" lon="-0.06068">
        <ele>406.05</ele>
        <time>2021-08-13T07:07:23.999Z</time>
      </trkpt>
      <trkpt lat="43.03784" lon="-0.06062">
        <ele>406.04</ele>
        <time>2021-08-13T07:07:28.999Z</time>
      </trkpt>
      <trkpt lat="43.03809" lon="-0.06056">
        <ele>406.04</ele>
        <time>2021-08-13T07:07:33.999Z</time>
      </trkpt>
      <trkpt lat="43.03832" lon="-0.0605">
        <ele>406.07</ele>
        <time>2021-08-13T07:07:38.999Z</time>
      </trkpt>
      <trkpt lat="43.03855" lon="-0.06044">
        <ele>406.1</ele>
        <time>2021-08-13T07:07:43.999Z</time>
      </trkpt>
      <trkpt lat="43.03876" lon="-0.06038">
        <ele>406.1</ele>
        <time>2021-08-13T07:07:48.999Z</time>
      </trkpt>
      <trkpt lat="43.03898" lon="-0.06032">
        <ele>406.12</ele>
        <time>2021-08-13T07:07:53.999Z</time>
      </trkpt>
      <trkpt lat="43.03919" lon="-0.06026">
        <ele>406.17</ele>
        <time>2021-08-13T07:07:58.999Z</time>
      </trkpt>
      <trkpt lat="43.0394" lon="-0.06019">
        <ele>406.2</ele>
        <time>2021-08-13T07:08:03.999Z</time>
      </trkpt>
      <trkpt lat="43.0396" lon="-0.06011">
        <ele>406.22</ele>
        <time>2021-08-13T07:08:08.999Z</time>
      </trkpt>
      <trkpt lat="43.03982" lon="-0.06006">
        <ele>406.25</ele>
        <time>2021-08-13T07:08:13.999Z</time>
      </trkpt>
      <trkpt lat="43.04002" lon="-0.05998">
        <ele>406.27</ele>
        <time>2021-08-13T07:08:18.999Z</time>
      </trkpt>
      <trkpt lat="43.04022" lon="-0.05988">
        <ele>406.24</ele>
        <time>2021-08-13T07:08:23.999Z</time>
      </trkpt>
      <trkpt lat="43.04043" lon="-0.05977">
        <ele>406.23</ele>
        <time>2021-08-13T07:08:28.999Z</time>
      </trkpt>
      <trkpt lat="43.04066" lon="-0.05964">
        <ele>406.24</ele>
        <time>2021-08-13T07:08:33.999Z</time>
      </trkpt>
      <trkpt lat="43.04088" lon="-0.05947">
        <ele>406.25</ele>
        <time>2021-08-13T07:08:38.999Z</time>
      </trkpt>
      <trkpt lat="43.04111" lon="-0.0593">
        <ele>406.21</ele>
        <time>2021-08-13T07:08:43.999Z</time>
      </trkpt>
      <trkpt lat="43.04133" lon="-0.05912">
        <ele>406.16</ele>
        <time>2021-08-13T07:08:48.999Z</time>
      </trkpt>
      <trkpt lat="43.04157" lon="-0.05892">
        <ele>406.11</ele>
        <time>2021-08-13T07:08:53.999Z</time>
      </trkpt>
      <trkpt lat="43.04175" lon="-0.05875">
        <ele>406.08</ele>
        <time>2021-08-13T07:08:58.000Z</time>
      </trkpt>
      <trkpt lat="43.04197" lon="-0.05854">
        <ele>406.02</ele>
        <time>2021-08-13T07:09:03.000Z</time>
      </trkpt>
      <trkpt lat="43.04218" lon="-0.05833">
        <ele>405.93</ele>
        <time>2021-08-13T07:09:08.000Z</time>
      </trkpt>
      <trkpt lat="43.04235" lon="-0.05814">
        <ele>405.84</ele>
        <time>2021-08-13T07:09:13.000Z</time>
      </trkpt>
      <trkpt lat="43.04253" lon="-0.0579">
        <ele>405.76</ele>
        <time>2021-08-13T07:09:18.000Z</time>
      </trkpt>
      <trkpt lat="43.04273" lon="-0.05765">
        <ele>405.66</ele>
        <time>2021-08-13T07:09:23.000Z</time>
      </trkpt>
      <trkpt lat="43.04292" lon="-0.0574">
        <ele>405.54</ele>
        <time>2021-08-13T07:09:28.000Z</time>
      </trkpt>
      <trkpt lat="43.04312" lon="-0.05716">
        <ele>405.44</ele>
        <time>2021-08-13T07:09:33.000Z</time>
      </trkpt>
      <trkpt lat="43.04331" lon="-0.05691">
        <ele>405.34</ele>
        <time>2021-08-13T07:09:38.000Z</time>
      </trkpt>
      <trkpt lat="43.04351" lon="-0.05667">
        <ele>405.25</ele>
        <time>2021-08-13T07:09:43.000Z</time>
      </trkpt>
      <trkpt lat="43.0437" lon="-0.05642">
        <ele>405.17</ele>
        <time>2021-08-13T07:09:48.000Z</time>
      </trkpt>
      <trkpt lat="43.04389" lon="-0.05617">
        <ele>405.08</ele>
        <time>2021-08-13T07:09:53.000Z</time>
      </trkpt>
      <trkpt lat="43.04408" lon="-0.05595">
        <ele>404.97</ele>
        <time>2021-08-13T07:09:58.000Z</time>
      </trkpt>
      <trkpt lat="43.04427" lon="-0.05571">
        <ele>404.87</ele>
        <time>2021-08-13T07:10:03.000Z</time>
      </trkpt>
      <trkpt lat="43.04446" lon="-0.05547">
        <ele>404.77</ele>
        <time>2021-08-13T07:10:08.000Z</time>
      </trkpt>
      <trkpt lat="43.04464" lon="-0.05524">
        <ele>404.69</ele>
        <time>2021-08-13T07:10:13.000Z</time>
      </trkpt>
      <trkpt lat="43.04483" lon="-0.05499">
        <ele>404.61</ele>
        <time>2021-08-13T07:10:18.000Z</time>
      </trkpt>
      <trkpt lat="43.04502" lon="-0.05476">
        <ele>404.52</ele>
        <time>2021-08-13T07:10:23.000Z</time>
      </trkpt>
      <trkpt lat="43.0452" lon="-0.05451">
        <ele>404.43</ele>
        <time>2021-08-13T07:10:28.000Z</time>
      </trkpt>
      <trkpt lat="43.0454" lon="-0.05427">
        <ele>404.38</ele>
        <time>2021-08-13T07:10:33.000Z</time>
      </trkpt>
      <trkpt lat="43.0456" lon="-0.05402">
        <ele>404.32</ele>
        <time>2021-08-13T07:10:38.000Z</time>
      </trkpt>
      <trkpt lat="43.0458" lon="-0.05376">
        <ele>404.23</ele>
        <time>2021-08-13T07:10:43.000Z</time>
      </trkpt>
      <trkpt lat="43.046" lon="-0.05352">
        <ele>404.12</ele>
        <time>2021-08-13T07:10:48.000Z</time>
      </trkpt>
      <trkpt lat="43.04619" lon="-0.05328">
        <ele>404.01</ele>
        <time>2021-08-13T07:10:53.000Z</time>
      </trkpt>
      <trkpt lat="43.04638" lon="-0.05304">
        <ele>403.93</ele>
        <time>2021-08-13T07:10:58.000Z</time>
      </trkpt>
      <trkpt lat="43.04657" lon="-0.05281">
        <ele>403.86</ele>
        <time>2021-08-13T07:11:03.000Z</time>
      </trkpt>
      <trkpt lat="43.04676" lon="-0.05258">
        <ele>403.78</ele>
        <time>2021-08-13T07:11:08.000Z</time>
      </trkpt>
      <trkpt lat="43.04694" lon="-0.05234">
        <ele>403.67</ele>
        <time>2021-08-13T07:11:13.000Z</time>
      </trkpt>
      <trkpt lat="43.04712" lon="-0.05211">
        <ele>403.56</ele>
        <time>2021-08-13T07:11:18.000Z</time>
      </trkpt>
      <trkpt lat="43.0473" lon="-0.05188">
        <ele>403.49</ele>
        <time>2021-08-13T07:11:23.000Z</time>
      </trkpt>
      <trkpt lat="43.04748" lon="-0.05166">
        <ele>403.4</ele>
        <time>2021-08-13T07:11:28.000Z</time>
      </trkpt>
      <trkpt lat="43.04766" lon="-0.05143">
        <ele>403.31</ele>
        <time>2021-08-13T07:11:33.000Z</time>
      </trkpt>
      <trkpt lat="43.04784" lon="-0.0512">
        <ele>403.22</ele>
        <time>2021-08-13T07:11:38.000Z</time>
      </trkpt>
      <trkpt lat="43.04802" lon="-0.05097">
        <ele>403.16</ele>
        <time>2021-08-13T07:11:43.000Z</time>
      </trkpt>
      <trkpt lat="43.0482" lon="-0.05074">
        <ele>403.1</ele>
        <time>2021-08-13T07:11:48.000Z</time>
      </trkpt>
      <trkpt lat="43.04839" lon="-0.05052">
        <ele>403.05</ele>
        <time>2021-08-13T07:11:53.000Z</time>
      </trkpt>
      <trkpt lat="43.04857" lon="-0.05028">
        <ele>403</ele>
        <time>2021-08-13T07:11:58.000Z</time>
      </trkpt>
      <trkpt lat="43.04875" lon="-0.05006">
        <ele>402.93</ele>
        <time>2021-08-13T07:12:03.000Z</time>
      </trkpt>
      <trkpt lat="43.04894" lon="-0.04983">
        <ele>402.87</ele>
        <time>2021-08-13T07:12:08.000Z</time>
      </trkpt>
      <trkpt lat="43.04912" lon="-0.04961">
        <ele>402.81</ele>
        <time>2021-08-13T07:12:13.000Z</time>
      </trkpt>
      <trkpt lat="43.0493" lon="-0.04939">
        <ele>402.75</ele>
        <time>2021-08-13T07:12:18.000Z</time>
      </trkpt>
      <trkpt lat="43.04947" lon="-0.04916">
        <ele>402.68</ele>
        <time>2021-08-13T07:12:23.000Z</time>
      </trkpt>
      <trkpt lat="43.04965" lon="-0.04893">
        <ele>402.59</ele>
        <time>2021-08-13T07:12:28.000Z</time>
      </trkpt>
      <trkpt lat="43.04983" lon="-0.04871">
        <ele>402.52</ele>
        <time>2021-08-13T07:12:33.000Z</time>
      </trkpt>
      <trkpt lat="43.05001" lon="-0.04848">
        <ele>402.46</ele>
        <time>2021-08-13T07:12:38.000Z</time>
      </trkpt>
      <trkpt lat="43.05019" lon="-0.04826">
        <ele>402.39</ele>
        <time>2021-08-13T07:12:43.000Z</time>
      </trkpt>
      <trkpt lat="43.05036" lon="-0.04803">
        <ele>402.31</ele>
        <time>2021-08-13T07:12:48.000Z</time>
      </trkpt>
      <trkpt lat="43.05054" lon="-0.04782">
        <ele>402.23</ele>
        <time>2021-08-13T07:12:53.000Z</time>
      </trkpt>
      <trkpt lat="43.05072" lon="-0.04759">
        <ele>402.16</ele>
        <time>2021-08-13T07:12:58.000Z</time>
      </trkpt>
      <trkpt lat="43.05089" lon="-0.04737">
        <ele>402.06</ele>
        <time>2021-08-13T07:13:03.000Z</time>
      </trkpt>
      <trkpt lat="43.05107" lon="-0.04715">
        <ele>401.97</ele>
        <time>2021-08-13T07:13:08.000Z</time>
      </trkpt>
      <trkpt lat="43.05125" lon="-0.04692">
        <ele>401.88</ele>
        <time>2021-08-13T07:13:13.000Z</time>
      </trkpt>
      <trkpt lat="43.05143" lon="-0.0467">
        <ele>401.77</ele>
        <time>2021-08-13T07:13:18.000Z</time>
      </trkpt>
      <trkpt lat="43.05162" lon="-0.04647">
        <ele>401.67</ele>
        <time>2021-08-13T07:13:23.000Z</time>
      </trkpt>
      <trkpt lat="43.05182" lon="-0.04627">
        <ele>401.58</ele>
        <time>2021-08-13T07:13:28.000Z</time>
      </trkpt>
      <trkpt lat="43.05202" lon="-0.04606">
        <ele>401.5</ele>
        <time>2021-08-13T07:13:33.000Z</time>
      </trkpt>
      <trkpt lat="43.05224" lon="-0.04587">
        <ele>401.44</ele>
        <time>2021-08-13T07:13:38.000Z</time>
      </trkpt>
      <trkpt lat="43.05244" lon="-0.04573">
        <ele>401.37</ele>
        <time>2021-08-13T07:13:43.000Z</time>
      </trkpt>
      <trkpt lat="43.05266" lon="-0.04558">
        <ele>401.3</ele>
        <time>2021-08-13T07:13:48.000Z</time>
      </trkpt>
      <trkpt lat="43.05288" lon="-0.04545">
        <ele>401.25</ele>
        <time>2021-08-13T07:13:53.000Z</time>
      </trkpt>
      <trkpt lat="43.0531" lon="-0.04532">
        <ele>401.18</ele>
        <time>2021-08-13T07:13:58.000Z</time>
      </trkpt>
      <trkpt lat="43.05331" lon="-0.04518">
        <ele>401.11</ele>
        <time>2021-08-13T07:14:03.000Z</time>
      </trkpt>
      <trkpt lat="43.05352" lon="-0.04504">
        <ele>401.06</ele>
        <time>2021-08-13T07:14:08.000Z</time>
      </trkpt>
      <trkpt lat="43.05373" lon="-0.04491">
        <ele>400.99</ele>
        <time>2021-08-13T07:14:13.000Z</time>
      </trkpt>
      <trkpt lat="43.05395" lon="-0.04478">
        <ele>400.93</ele>
        <time>2021-08-13T07:14:18.000Z</time>
      </trkpt>
      <trkpt lat="43.05417" lon="-0.04465">
        <ele>400.89</ele>
        <time>2021-08-13T07:14:23.000Z</time>
      </trkpt>
      <trkpt lat="43.05439" lon="-0.04452">
        <ele>400.83</ele>
        <time>2021-08-13T07:14:28.000Z</time>
      </trkpt>
      <trkpt lat="43.0546" lon="-0.04438">
        <ele>400.78</ele>
        <time>2021-08-13T07:14:33.000Z</time>
      </trkpt>
      <trkpt lat="43.05482" lon="-0.04423">
        <ele>400.73</ele>
        <time>2021-08-13T07:14:38.000Z</time>
      </trkpt>
      <trkpt lat="43.05504" lon="-0.04409">
        <ele>400.69</ele>
        <time>2021-08-13T07:14:43.000Z</time>
      </trkpt>
      <trkpt lat="43.05525" lon="-0.04396">
        <ele>400.66</ele>
        <time>2021-08-13T07:14:48.000Z</time>
      </trkpt>
      <trkpt lat="43.05548" lon="-0.04382">
        <ele>400.62</ele>
        <time>2021-08-13T07:14:53.000Z</time>
      </trkpt>
      <trkpt lat="43.0557" lon="-0.04368">
        <ele>400.56</ele>
        <time>2021-08-13T07:14:58.000Z</time>
      </trkpt>
      <trkpt lat="43.05591" lon="-0.04354">
        <ele>400.47</ele>
        <time>2021-08-13T07:15:03.000Z</time>
      </trkpt>
      <trkpt lat="43.05614" lon="-0.04341">
        <ele>400.43</ele>
        <time>2021-08-13T07:15:08.000Z</time>
      </trkpt>
      <trkpt lat="43.05636" lon="-0.04327">
        <ele>400.42</ele>
        <time>2021-08-13T07:15:13.000Z</time>
      </trkpt>
      <trkpt lat="43.05657" lon="-0.04314">
        <ele>400.4</ele>
        <time>2021-08-13T07:15:18.000Z</time>
      </trkpt>
      <trkpt lat="43.05678" lon="-0.04299">
        <ele>400.31</ele>
        <time>2021-08-13T07:15:23.000Z</time>
      </trkpt>
      <trkpt lat="43.057" lon="-0.04286">
        <ele>400.22</ele>
        <time>2021-08-13T07:15:28.000Z</time>
      </trkpt>
      <trkpt lat="43.05722" lon="-0.04272">
        <ele>400.13</ele>
        <time>2021-08-13T07:15:33.000Z</time>
      </trkpt>
      <trkpt lat="43.05742" lon="-0.04259">
        <ele>400</ele>
        <time>2021-08-13T07:15:38.000Z</time>
      </trkpt>
      <trkpt lat="43.05764" lon="-0.04246">
        <ele>399.9</ele>
        <time>2021-08-13T07:15:43.000Z</time>
      </trkpt>
      <trkpt lat="43.05783" lon="-0.04231">
        <ele>399.8</ele>
        <time>2021-08-13T07:15:48.000Z</time>
      </trkpt>
      <trkpt lat="43.05804" lon="-0.04218">
        <ele>399.69</ele>
        <time>2021-08-13T07:15:53.000Z</time>
      </trkpt>
      <trkpt lat="43.05826" lon="-0.04203">
        <ele>399.62</ele>
        <time>2021-08-13T07:15:58.000Z</time>
      </trkpt>
      <trkpt lat="43.05847" lon="-0.04191">
        <ele>399.56</ele>
        <time>2021-08-13T07:16:03.000Z</time>
      </trkpt>
      <trkpt lat="43.05869" lon="-0.04179">
        <ele>399.54</ele>
        <time>2021-08-13T07:16:08.000Z</time>
      </trkpt>
      <trkpt lat="43.0589" lon="-0.04167">
        <ele>399.54</ele>
        <time>2021-08-13T07:16:13.000Z</time>
      </trkpt>
      <trkpt lat="43.05909" lon="-0.04151">
        <ele>399.54</ele>
        <time>2021-08-13T07:16:18.000Z</time>
      </trkpt>
      <trkpt lat="43.0593" lon="-0.04138">
        <ele>399.56</ele>
        <time>2021-08-13T07:16:23.000Z</time>
      </trkpt>
      <trkpt lat="43.0595" lon="-0.04124">
        <ele>399.6</ele>
        <time>2021-08-13T07:16:28.000Z</time>
      </trkpt>
      <trkpt lat="43.05972" lon="-0.04114">
        <ele>399.65</ele>
        <time>2021-08-13T07:16:33.000Z</time>
      </trkpt>
      <trkpt lat="43.05994" lon="-0.04102">
        <ele>399.68</ele>
        <time>2021-08-13T07:16:38.000Z</time>
      </trkpt>
      <trkpt lat="43.06016" lon="-0.04092">
        <ele>399.71</ele>
        <time>2021-08-13T07:16:43.000Z</time>
      </trkpt>
      <trkpt lat="43.06038" lon="-0.04083">
        <ele>399.72</ele>
        <time>2021-08-13T07:16:48.000Z</time>
      </trkpt>
      <trkpt lat="43.0606" lon="-0.04075">
        <ele>399.72</ele>
        <time>2021-08-13T07:16:53.000Z</time>
      </trkpt>
      <trkpt lat="43.06083" lon="-0.04064">
        <ele>399.69</ele>
        <time>2021-08-13T07:16:58.000Z</time>
      </trkpt>
      <trkpt lat="43.06106" lon="-0.04054">
        <ele>399.66</ele>
        <time>2021-08-13T07:17:03.000Z</time>
      </trkpt>
      <trkpt lat="43.06129" lon="-0.04044">
        <ele>399.66</ele>
        <time>2021-08-13T07:17:08.000Z</time>
      </trkpt>
      <trkpt lat="43.06152" lon="-0.04035">
        <ele>399.66</ele>
        <time>2021-08-13T07:17:13.000Z</time>
      </trkpt>
      <trkpt lat="43.06175" lon="-0.04027">
        <ele>399.68</ele>
        <time>2021-08-13T07:17:18.000Z</time>
      </trkpt>
      <trkpt lat="43.06196" lon="-0.04021">
        <ele>399.71</ele>
        <time>2021-08-13T07:17:23.000Z</time>
      </trkpt>
      <trkpt lat="43.06219" lon="-0.04017">
        <ele>399.74</ele>
        <time>2021-08-13T07:17:28.000Z</time>
      </trkpt>
      <trkpt lat="43.06243" lon="-0.04014">
        <ele>399.75</ele>
        <time>2021-08-13T07:17:33.000Z</time>
      </trkpt>
      <trkpt lat="43.06268" lon="-0.04011">
        <ele>399.72</ele>
        <time>2021-08-13T07:17:38.000Z</time>
      </trkpt>
      <trkpt lat="43.06292" lon="-0.0401">
        <ele>399.69</ele>
        <time>2021-08-13T07:17:43.000Z</time>
      </trkpt>
      <trkpt lat="43.06316" lon="-0.04009">
        <ele>399.63</ele>
        <time>2021-08-13T07:17:48.000Z</time>
      </trkpt>
      <trkpt lat="43.06339" lon="-0.04007">
        <ele>399.56</ele>
        <time>2021-08-13T07:17:53.000Z</time>
      </trkpt>
      <trkpt lat="43.06362" lon="-0.04006">
        <ele>399.46</ele>
        <time>2021-08-13T07:17:58.000Z</time>
      </trkpt>
      <trkpt lat="43.06386" lon="-0.04007">
        <ele>399.36</ele>
        <time>2021-08-13T07:18:03.000Z</time>
      </trkpt>
      <trkpt lat="43.06408" lon="-0.04005">
        <ele>399.27</ele>
        <time>2021-08-13T07:18:08.000Z</time>
      </trkpt>
      <trkpt lat="43.06431" lon="-0.04006">
        <ele>399.2</ele>
        <time>2021-08-13T07:18:13.000Z</time>
      </trkpt>
      <trkpt lat="43.06454" lon="-0.04006">
        <ele>399.12</ele>
        <time>2021-08-13T07:18:18.000Z</time>
      </trkpt>
      <trkpt lat="43.06477" lon="-0.04005">
        <ele>399.05</ele>
        <time>2021-08-13T07:18:23.000Z</time>
      </trkpt>
      <trkpt lat="43.065" lon="-0.04005">
        <ele>398.97</ele>
        <time>2021-08-13T07:18:28.000Z</time>
      </trkpt>
      <trkpt lat="43.06523" lon="-0.04005">
        <ele>398.9</ele>
        <time>2021-08-13T07:18:33.000Z</time>
      </trkpt>
      <trkpt lat="43.06546" lon="-0.04004">
        <ele>398.83</ele>
        <time>2021-08-13T07:18:38.000Z</time>
      </trkpt>
      <trkpt lat="43.06569" lon="-0.04005">
        <ele>398.76</ele>
        <time>2021-08-13T07:18:43.000Z</time>
      </trkpt>
      <trkpt lat="43.06593" lon="-0.04004">
        <ele>398.7</ele>
        <time>2021-08-13T07:18:48.000Z</time>
      </trkpt>
      <trkpt lat="43.06616" lon="-0.04003">
        <ele>398.63</ele>
        <time>2021-08-13T07:18:53.000Z</time>
      </trkpt>
      <trkpt lat="43.06639" lon="-0.04004">
        <ele>398.57</ele>
        <time>2021-08-13T07:18:58.000Z</time>
      </trkpt>
      <trkpt lat="43.06663" lon="-0.04006">
        <ele>398.52</ele>
        <time>2021-08-13T07:19:03.000Z</time>
      </trkpt>
      <trkpt lat="43.06688" lon="-0.04011">
        <ele>398.46</ele>
        <time>2021-08-13T07:19:08.000Z</time>
      </trkpt>
      <trkpt lat="43.06713" lon="-0.04017">
        <ele>398.41</ele>
        <time>2021-08-13T07:19:13.000Z</time>
      </trkpt>
      <trkpt lat="43.06739" lon="-0.04024">
        <ele>398.36</ele>
        <time>2021-08-13T07:19:18.000Z</time>
      </trkpt>
      <trkpt lat="43.06765" lon="-0.04032">
        <ele>398.3</ele>
        <time>2021-08-13T07:19:23.000Z</time>
      </trkpt>
      <trkpt lat="43.06793" lon="-0.04041">
        <ele>398.21</ele>
        <time>2021-08-13T07:19:28.000Z</time>
      </trkpt>
      <trkpt lat="43.0682" lon="-0.04049">
        <ele>398.09</ele>
        <time>2021-08-13T07:19:33.000Z</time>
      </trkpt>
      <trkpt lat="43.06848" lon="-0.04056">
        <ele>397.98</ele>
        <time>2021-08-13T07:19:38.000Z</time>
      </trkpt>
      <trkpt lat="43.06876" lon="-0.04064">
        <ele>397.87</ele>
        <time>2021-08-13T07:19:43.000Z</time>
      </trkpt>
      <trkpt lat="43.06904" lon="-0.0407">
        <ele>397.79</ele>
        <time>2021-08-13T07:19:48.000Z</time>
      </trkpt>
      <trkpt lat="43.0693" lon="-0.04078">
        <ele>397.68</ele>
        <time>2021-08-13T07:19:53.000Z</time>
      </trkpt>
      <trkpt lat="43.06955" lon="-0.04081">
        <ele>397.56</ele>
        <time>2021-08-13T07:19:58.000Z</time>
      </trkpt>
      <trkpt lat="43.06982" lon="-0.04083">
        <ele>397.44</ele>
        <time>2021-08-13T07:20:03.000Z</time>
      </trkpt>
      <trkpt lat="43.07008" lon="-0.04079">
        <ele>397.34</ele>
        <time>2021-08-13T07:20:08.000Z</time>
      </trkpt>
      <trkpt lat="43.07034" lon="-0.04075">
        <ele>397.24</ele>
        <time>2021-08-13T07:20:13.000Z</time>
      </trkpt>
      <trkpt lat="43.07059" lon="-0.04068">
        <ele>397.14</ele>
        <time>2021-08-13T07:20:18.000Z</time>
      </trkpt>
      <trkpt lat="43.07084" lon="-0.0406">
        <ele>397.06</ele>
        <time>2021-08-13T07:20:22.999Z</time>
      </trkpt>
      <trkpt lat="43.0711" lon="-0.04053">
        <ele>396.99</ele>
        <time>2021-08-13T07:20:27.999Z</time>
      </trkpt>
      <trkpt lat="43.07135" lon="-0.04046">
        <ele>396.92</ele>
        <time>2021-08-13T07:20:32.999Z</time>
      </trkpt>
      <trkpt lat="43.0716" lon="-0.04039">
        <ele>396.85</ele>
        <time>2021-08-13T07:20:37.999Z</time>
      </trkpt>
      <trkpt lat="43.07185" lon="-0.04032">
        <ele>396.8</ele>
        <time>2021-08-13T07:20:42.999Z</time>
      </trkpt>
      <trkpt lat="43.07209" lon="-0.04024">
        <ele>396.68</ele>
        <time>2021-08-13T07:20:47.999Z</time>
      </trkpt>
      <trkpt lat="43.07234" lon="-0.04017">
        <ele>396.54</ele>
        <time>2021-08-13T07:20:52.999Z</time>
      </trkpt>
      <trkpt lat="43.07259" lon="-0.0401">
        <ele>396.44</ele>
        <time>2021-08-13T07:20:57.999Z</time>
      </trkpt>
      <trkpt lat="43.07283" lon="-0.04007">
        <ele>396.36</ele>
        <time>2021-08-13T07:21:02.999Z</time>
      </trkpt>
      <trkpt lat="43.07307" lon="-0.04006">
        <ele>396.28</ele>
        <time>2021-08-13T07:21:07.999Z</time>
      </trkpt>
      <trkpt lat="43.07332" lon="-0.0401">
        <ele>396.22</ele>
        <time>2021-08-13T07:21:12.999Z</time>
      </trkpt>
      <trkpt lat="43.07356" lon="-0.04013">
        <ele>396.14</ele>
        <time>2021-08-13T07:21:17.999Z</time>
      </trkpt>
      <trkpt lat="43.07379" lon="-0.04018">
        <ele>396.06</ele>
        <time>2021-08-13T07:21:22.999Z</time>
      </trkpt>
      <trkpt lat="43.07402" lon="-0.04025">
        <ele>396</ele>
        <time>2021-08-13T07:21:27.999Z</time>
      </trkpt>
      <trkpt lat="43.07423" lon="-0.04034">
        <ele>395.93</ele>
        <time>2021-08-13T07:21:32.999Z</time>
      </trkpt>
      <trkpt lat="43.07443" lon="-0.04045">
        <ele>395.86</ele>
        <time>2021-08-13T07:21:37.999Z</time>
      </trkpt>
      <trkpt lat="43.07462" lon="-0.04053">
        <ele>395.84</ele>
        <time>2021-08-13T07:21:42.999Z</time>
      </trkpt>
      <trkpt lat="43.07481" lon="-0.04061">
        <ele>395.77</ele>
        <time>2021-08-13T07:21:47.999Z</time>
      </trkpt>
      <trkpt lat="43.075" lon="-0.04069">
        <ele>395.75</ele>
        <time>2021-08-13T07:21:52.999Z</time>
      </trkpt>
      <trkpt lat="43.0752" lon="-0.04078">
        <ele>395.65</ele>
        <time>2021-08-13T07:21:57.999Z</time>
      </trkpt>
      <trkpt lat="43.07539" lon="-0.04086">
        <ele>395.6</ele>
        <time>2021-08-13T07:22:02.999Z</time>
      </trkpt>
      <trkpt lat="43.07557" lon="-0.04095">
        <ele>395.48</ele>
        <time>2021-08-13T07:22:07.999Z</time>
      </trkpt>
      <trkpt lat="43.07575" lon="-0.04104">
        <ele>395.44</ele>
        <time>2021-08-13T07:22:12.999Z</time>
      </trkpt>
      <trkpt lat="43.07592" lon="-0.04109">
        <ele>395.42</ele>
        <time>2021-08-13T07:22:17.999Z</time>
      </trkpt>
      <trkpt lat="43.07609" lon="-0.04114">
        <ele>395.41</ele>
        <time>2021-08-13T07:22:22.999Z</time>
      </trkpt>
      <trkpt lat="43.07627" lon="-0.04117">
        <ele>395.4</ele>
        <time>2021-08-13T07:22:27.999Z</time>
      </trkpt>
      <trkpt lat="43.07644" lon="-0.04117">
        <ele>395.39</ele>
        <time>2021-08-13T07:22:32.999Z</time>
      </trkpt>
      <trkpt lat="43.0766" lon="-0.04117">
        <ele>395.38</ele>
        <time>2021-08-13T07:22:37.999Z</time>
      </trkpt>
      <trkpt lat="43.0768" lon="-0.04118">
        <ele>395.37</ele>
        <time>2021-08-13T07:22:42.999Z</time>
      </trkpt>
      <trkpt lat="43.07699" lon="-0.04118">
        <ele>395.3</ele>
        <time>2021-08-13T07:22:47.999Z</time>
      </trkpt>
      <trkpt lat="43.07717" lon="-0.04116">
        <ele>395.27</ele>
        <time>2021-08-13T07:22:52.999Z</time>
      </trkpt>
      <trkpt lat="43.07735" lon="-0.04113">
        <ele>395.26</ele>
        <time>2021-08-13T07:22:57.999Z</time>
      </trkpt>
      <trkpt lat="43.07753" lon="-0.04111">
        <ele>395.24</ele>
        <time>2021-08-13T07:23:02.999Z</time>
      </trkpt>
      <trkpt lat="43.07771" lon="-0.0411">
        <ele>395.2</ele>
        <time>2021-08-13T07:23:07.999Z</time>
      </trkpt>
      <trkpt lat="43.0779" lon="-0.0411">
        <ele>395.13</ele>
        <time>2021-08-13T07:23:12.999Z</time>
      </trkpt>
      <trkpt lat="43.0781" lon="-0.04114">
        <ele>395.07</ele>
        <time>2021-08-13T07:23:17.999Z</time>
      </trkpt>
      <trkpt lat="43.07829" lon="-0.04117">
        <ele>394.99</ele>
        <time>2021-08-13T07:23:22.999Z</time>
      </trkpt>
      <trkpt lat="43.07848" lon="-0.0412">
        <ele>394.96</ele>
        <time>2021-08-13T07:23:27.999Z</time>
      </trkpt>
      <trkpt lat="43.07868" lon="-0.04123">
        <ele>394.94</ele>
        <time>2021-08-13T07:23:32.999Z</time>
      </trkpt>
      <trkpt lat="43.07887" lon="-0.04126">
        <ele>394.96</ele>
        <time>2021-08-13T07:23:37.999Z</time>
      </trkpt>
      <trkpt lat="43.07907" lon="-0.04128">
        <ele>394.96</ele>
        <time>2021-08-13T07:23:42.999Z</time>
      </trkpt>
      <trkpt lat="43.07925" lon="-0.0413">
        <ele>394.96</ele>
        <time>2021-08-13T07:23:47.999Z</time>
      </trkpt>
      <trkpt lat="43.07944" lon="-0.04134">
        <ele>394.96</ele>
        <time>2021-08-13T07:23:52.999Z</time>
      </trkpt>
      <trkpt lat="43.07962" lon="-0.04135">
        <ele>394.97</ele>
        <time>2021-08-13T07:23:57.999Z</time>
      </trkpt>
      <trkpt lat="43.07981" lon="-0.04137">
        <ele>394.99</ele>
        <time>2021-08-13T07:24:02.999Z</time>
      </trkpt>
      <trkpt lat="43.08" lon="-0.04142">
        <ele>394.99</ele>
        <time>2021-08-13T07:24:07.999Z</time>
      </trkpt>
      <trkpt lat="43.08018" lon="-0.0415">
        <ele>394.99</ele>
        <time>2021-08-13T07:24:12.999Z</time>
      </trkpt>
      <trkpt lat="43.08037" lon="-0.04158">
        <ele>395.01</ele>
        <time>2021-08-13T07:24:17.999Z</time>
      </trkpt>
      <trkpt lat="43.08055" lon="-0.04166">
        <ele>395.03</ele>
        <time>2021-08-13T07:24:22.999Z</time>
      </trkpt>
      <trkpt lat="43.08072" lon="-0.04179">
        <ele>395.03</ele>
        <time>2021-08-13T07:24:27.999Z</time>
      </trkpt>
      <trkpt lat="43.0809" lon="-0.04193">
        <ele>395.01</ele>
        <time>2021-08-13T07:24:32.999Z</time>
      </trkpt>
      <trkpt lat="43.08107" lon="-0.04208">
        <ele>395.01</ele>
        <time>2021-08-13T07:24:37.999Z</time>
      </trkpt>
      <trkpt lat="43.08122" lon="-0.04223">
        <ele>395.01</ele>
        <time>2021-08-13T07:24:42.999Z</time>
      </trkpt>
      <trkpt lat="43.08135" lon="-0.0424">
        <ele>395.02</ele>
        <time>2021-08-13T07:24:47.999Z</time>
      </trkpt>
      <trkpt lat="43.08147" lon="-0.04259">
        <ele>395.02</ele>
        <time>2021-08-13T07:24:52.999Z</time>
      </trkpt>
      <trkpt lat="43.08161" lon="-0.0428">
        <ele>395.02</ele>
        <time>2021-08-13T07:24:57.999Z</time>
      </trkpt>
      <trkpt lat="43.08173" lon="-0.04296">
        <ele>395.02</ele>
        <time>2021-08-13T07:25:02.999Z</time>
      </trkpt>
      <trkpt lat="43.08185" lon="-0.04312">
        <ele>395.01</ele>
        <time>2021-08-13T07:25:07.999Z</time>
      </trkpt>
      <trkpt lat="43.08197" lon="-0.0433">
        <ele>395</ele>
        <time>2021-08-13T07:25:12.999Z</time>
      </trkpt>
      <trkpt lat="43.0821" lon="-0.0435">
        <ele>394.96</ele>
        <time>2021-08-13T07:25:17.999Z</time>
      </trkpt>
      <trkpt lat="43.08222" lon="-0.04372">
        <ele>394.93</ele>
        <time>2021-08-13T07:25:22.999Z</time>
      </trkpt>
      <trkpt lat="43.08233" lon="-0.04395">
        <ele>394.9</ele>
        <time>2021-08-13T07:25:27.999Z</time>
      </trkpt>
      <trkpt lat="43.08242" lon="-0.04414">
        <ele>394.91</ele>
        <time>2021-08-13T07:25:32.999Z</time>
      </trkpt>
      <trkpt lat="43.08252" lon="-0.04429">
        <ele>394.91</ele>
        <time>2021-08-13T07:25:37.999Z</time>
      </trkpt>
      <trkpt lat="43.08261" lon="-0.0445">
        <ele>394.91</ele>
        <time>2021-08-13T07:25:42.999Z</time>
      </trkpt>
      <trkpt lat="43.08273" lon="-0.0448">
        <ele>394.93</ele>
        <time>2021-08-13T07:25:47.999Z</time>
      </trkpt>
      <trkpt lat="43.08282" lon="-0.04499">
        <ele>394.94</ele>
        <time>2021-08-13T07:25:52.999Z</time>
      </trkpt>
      <trkpt lat="43.08291" lon="-0.0452">
        <ele>394.96</ele>
        <time>2021-08-13T07:25:57.999Z</time>
      </trkpt>
      <trkpt lat="43.08301" lon="-0.0454">
        <ele>394.97</ele>
        <time>2021-08-13T07:26:02.999Z</time>
      </trkpt>
      <trkpt lat="43.08314" lon="-0.04559">
        <ele>395.02</ele>
        <time>2021-08-13T07:26:07.999Z</time>
      </trkpt>
      <trkpt lat="43.08328" lon="-0.0458">
        <ele>395.09</ele>
        <time>2021-08-13T07:26:12.999Z</time>
      </trkpt>
      <trkpt lat="43.0834" lon="-0.04597">
        <ele>395.12</ele>
        <time>2021-08-13T07:26:17.999Z</time>
      </trkpt>
      <trkpt lat="43.08353" lon="-0.04614">
        <ele>395.15</ele>
        <time>2021-08-13T07:26:22.999Z</time>
      </trkpt>
      <trkpt lat="43.08365" lon="-0.0463">
        <ele>395.18</ele>
        <time>2021-08-13T07:26:27.999Z</time>
      </trkpt>
      <trkpt lat="43.08379" lon="-0.04644">
        <ele>395.27</ele>
        <time>2021-08-13T07:26:32.999Z</time>
      </trkpt>
      <trkpt lat="43.08396" lon="-0.0466">
        <ele>395.48</ele>
        <time>2021-08-13T07:26:37.999Z</time>
      </trkpt>
      <trkpt lat="43.08413" lon="-0.04675">
        <ele>395.56</ele>
        <time>2021-08-13T07:26:42.999Z</time>
      </trkpt>
      <trkpt lat="43.0843" lon="-0.04687">
        <ele>395.62</ele>
        <time>2021-08-13T07:26:47.999Z</time>
      </trkpt>
      <trkpt lat="43.08448" lon="-0.047">
        <ele>395.73</ele>
        <time>2021-08-13T07:26:52.999Z</time>
      </trkpt>
      <trkpt lat="43.08466" lon="-0.04712">
        <ele>395.83</ele>
        <time>2021-08-13T07:26:57.999Z</time>
      </trkpt>
      <trkpt lat="43.08486" lon="-0.04722">
        <ele>395.96</ele>
        <time>2021-08-13T07:27:02.999Z</time>
      </trkpt>
      <trkpt lat="43.08504" lon="-0.04732">
        <ele>396.1</ele>
        <time>2021-08-13T07:27:07.999Z</time>
      </trkpt>
      <trkpt lat="43.08523" lon="-0.04739">
        <ele>396.2</ele>
        <time>2021-08-13T07:27:12.999Z</time>
      </trkpt>
      <trkpt lat="43.08542" lon="-0.04746">
        <ele>396.29</ele>
        <time>2021-08-13T07:27:17.999Z</time>
      </trkpt>
      <trkpt lat="43.08562" lon="-0.04752">
        <ele>396.39</ele>
        <time>2021-08-13T07:27:22.999Z</time>
      </trkpt>
      <trkpt lat="43.08583" lon="-0.04757">
        <ele>396.53</ele>
        <time>2021-08-13T07:27:27.999Z</time>
      </trkpt>
      <trkpt lat="43.08603" lon="-0.04761">
        <ele>396.67</ele>
        <time>2021-08-13T07:27:32.999Z</time>
      </trkpt>
      <trkpt lat="43.08624" lon="-0.04763">
        <ele>396.78</ele>
        <time>2021-08-13T07:27:37.999Z</time>
      </trkpt>
      <trkpt lat="43.08643" lon="-0.04763">
        <ele>396.92</ele>
        <time>2021-08-13T07:27:42.999Z</time>
      </trkpt>
      <trkpt lat="43.08663" lon="-0.04763">
        <ele>397.06</ele>
        <time>2021-08-13T07:27:47.999Z</time>
      </trkpt>
      <trkpt lat="43.08682" lon="-0.04761">
        <ele>397.19</ele>
        <time>2021-08-13T07:27:52.999Z</time>
      </trkpt>
      <trkpt lat="43.08701" lon="-0.04758">
        <ele>397.32</ele>
        <time>2021-08-13T07:27:57.999Z</time>
      </trkpt>
      <trkpt lat="43.0872" lon="-0.04754">
        <ele>397.45</ele>
        <time>2021-08-13T07:28:02.999Z</time>
      </trkpt>
      <trkpt lat="43.08738" lon="-0.04749">
        <ele>397.56</ele>
        <time>2021-08-13T07:28:07.999Z</time>
      </trkpt>
      <trkpt lat="43.08757" lon="-0.04743">
        <ele>397.66</ele>
        <time>2021-08-13T07:28:12.999Z</time>
      </trkpt>
      <trkpt lat="43.08775" lon="-0.04736">
        <ele>397.74</ele>
        <time>2021-08-13T07:28:17.999Z</time>
      </trkpt>
      <trkpt lat="43.08793" lon="-0.04728">
        <ele>397.78</ele>
        <time>2021-08-13T07:28:22.999Z</time>
      </trkpt>
      <trkpt lat="43.08811" lon="-0.04718">
        <ele>397.79</ele>
        <time>2021-08-13T07:28:27.999Z</time>
      </trkpt>
      <trkpt lat="43.08828" lon="-0.04708">
        <ele>397.79</ele>
        <time>2021-08-13T07:28:32.999Z</time>
      </trkpt>
      <trkpt lat="43.08845" lon="-0.04696">
        <ele>397.8</ele>
        <time>2021-08-13T07:28:37.999Z</time>
      </trkpt>
      <trkpt lat="43.08862" lon="-0.04683">
        <ele>397.82</ele>
        <time>2021-08-13T07:28:42.999Z</time>
      </trkpt>
      <trkpt lat="43.08878" lon="-0.04671">
        <ele>397.82</ele>
        <time>2021-08-13T07:28:47.999Z</time>
      </trkpt>
      <trkpt lat="43.08892" lon="-0.04657">
        <ele>397.83</ele>
        <time>2021-08-13T07:28:52.999Z</time>
      </trkpt>
      <trkpt lat="43.08908" lon="-0.04642">
        <ele>397.85</ele>
        <time>2021-08-13T07:28:57.999Z</time>
      </trkpt>
      <trkpt lat="43.08919" lon="-0.04631">
        <ele>397.87</ele>
        <time>2021-08-13T07:29:02.999Z</time>
      </trkpt>
      <trkpt lat="43.08926" lon="-0.04622">
        <ele>397.9</ele>
        <time>2021-08-13T07:29:08.999Z</time>
      </trkpt>
      <trkpt lat="43.08935" lon="-0.04616">
        <ele>398.75</ele>
        <time>2021-08-13T07:30:13.999Z</time>
      </trkpt>
      <trkpt lat="43.08942" lon="-0.04609">
        <ele>399.25</ele>
        <time>2021-08-13T07:30:20.999Z</time>
      </trkpt>
      <trkpt lat="43.08955" lon="-0.04608">
        <ele>399.57</ele>
        <time>2021-08-13T07:30:25.999Z</time>
      </trkpt>
      <trkpt lat="43.08967" lon="-0.0461">
        <ele>399.86</ele>
        <time>2021-08-13T07:30:30.999Z</time>
      </trkpt>
      <trkpt lat="43.08978" lon="-0.04608">
        <ele>400.12</ele>
        <time>2021-08-13T07:30:35.999Z</time>
      </trkpt>
      <trkpt lat="43.08993" lon="-0.04607">
        <ele>400.36</ele>
        <time>2021-08-13T07:30:40.999Z</time>
      </trkpt>
      <trkpt lat="43.0901" lon="-0.04609">
        <ele>400.58</ele>
        <time>2021-08-13T07:30:45.999Z</time>
      </trkpt>
      <trkpt lat="43.09024" lon="-0.04609">
        <ele>400.78</ele>
        <time>2021-08-13T07:30:50.999Z</time>
      </trkpt>
      <trkpt lat="43.0904" lon="-0.04609">
        <ele>400.96</ele>
        <time>2021-08-13T07:30:55.999Z</time>
      </trkpt>
      <trkpt lat="43.09058" lon="-0.0461">
        <ele>401.12</ele>
        <time>2021-08-13T07:31:00.999Z</time>
      </trkpt>
      <trkpt lat="43.09074" lon="-0.04608">
        <ele>401.26</ele>
        <time>2021-08-13T07:31:05.999Z</time>
      </trkpt>
      <trkpt lat="43.09089" lon="-0.0461">
        <ele>401.4</ele>
        <time>2021-08-13T07:31:10.999Z</time>
      </trkpt>
      <trkpt lat="43.09105" lon="-0.04613">
        <ele>401.52</ele>
        <time>2021-08-13T07:31:15.999Z</time>
      </trkpt>
      <trkpt lat="43.09123" lon="-0.04612">
        <ele>401.64</ele>
        <time>2021-08-13T07:31:20.999Z</time>
      </trkpt>
      <trkpt lat="43.09141" lon="-0.04613">
        <ele>401.89</ele>
        <time>2021-08-13T07:31:25.999Z</time>
      </trkpt>
      <trkpt lat="43.0916" lon="-0.04616">
        <ele>402.03</ele>
        <time>2021-08-13T07:31:30.999Z</time>
      </trkpt>
      <trkpt lat="43.09179" lon="-0.04615">
        <ele>402.12</ele>
        <time>2021-08-13T07:31:35.999Z</time>
      </trkpt>
      <trkpt lat="43.09198" lon="-0.04616">
        <ele>402.45</ele>
        <time>2021-08-13T07:31:40.999Z</time>
      </trkpt>
      <trkpt lat="43.09214" lon="-0.04616">
        <ele>402.67</ele>
        <time>2021-08-13T07:31:45.000Z</time>
      </trkpt>
      <trkpt lat="43.09232" lon="-0.04617">
        <ele>402.72</ele>
        <time>2021-08-13T07:31:50.000Z</time>
      </trkpt>
      <trkpt lat="43.09249" lon="-0.04616">
        <ele>402.75</ele>
        <time>2021-08-13T07:31:55.000Z</time>
      </trkpt>
      <trkpt lat="43.09267" lon="-0.04617">
        <ele>402.78</ele>
        <time>2021-08-13T07:32:00.000Z</time>
      </trkpt>
      <trkpt lat="43.09283" lon="-0.04617">
        <ele>402.82</ele>
        <time>2021-08-13T07:32:05.000Z</time>
      </trkpt>
      <trkpt lat="43.09299" lon="-0.04617">
        <ele>402.86</ele>
        <time>2021-08-13T07:32:10.000Z</time>
      </trkpt>
      <trkpt lat="43.09312" lon="-0.04616">
        <ele>402.9</ele>
        <time>2021-08-13T07:32:15.000Z</time>
      </trkpt>
      <trkpt lat="43.09326" lon="-0.04617">
        <ele>402.93</ele>
        <time>2021-08-13T07:32:20.000Z</time>
      </trkpt>
      <trkpt lat="43.09338" lon="-0.04617">
        <ele>402.97</ele>
        <time>2021-08-13T07:32:25.000Z</time>
      </trkpt>
      <trkpt lat="43.09355" lon="-0.04619">
        <ele>403.01</ele>
        <time>2021-08-13T07:32:30.000Z</time>
      </trkpt>
      <trkpt lat="43.09373" lon="-0.0462">
        <ele>403.04</ele>
        <time>2021-08-13T07:32:35.000Z</time>
      </trkpt>
      <trkpt lat="43.09392" lon="-0.0462">
        <ele>403.17</ele>
        <time>2021-08-13T07:32:40.000Z</time>
      </trkpt>
      <trkpt lat="43.09411" lon="-0.04616">
        <ele>403.26</ele>
        <time>2021-08-13T07:32:45.000Z</time>
      </trkpt>
      <trkpt lat="43.09429" lon="-0.04612">
        <ele>403.28</ele>
        <time>2021-08-13T07:32:50.000Z</time>
      </trkpt>
      <trkpt lat="43.09447" lon="-0.04611">
        <ele>403.39</ele>
        <time>2021-08-13T07:32:55.000Z</time>
      </trkpt>
      <trkpt lat="43.09465" lon="-0.0461">
        <ele>403.43</ele>
        <time>2021-08-13T07:33:00.000Z</time>
      </trkpt>
      <trkpt lat="43.09486" lon="-0.04614">
        <ele>403.47</ele>
        <time>2021-08-13T07:33:05.000Z</time>
      </trkpt>
      <trkpt lat="43.09503" lon="-0.04621">
        <ele>403.49</ele>
        <time>2021-08-13T07:33:10.000Z</time>
      </trkpt>
      <trkpt lat="43.09521" lon="-0.04626">
        <ele>403.5</ele>
        <time>2021-08-13T07:33:15.000Z</time>
      </trkpt>
      <trkpt lat="43.09537" lon="-0.04629">
        <ele>403.51</ele>
        <time>2021-08-13T07:33:20.000Z</time>
      </trkpt>
      <trkpt lat="43.09549" lon="-0.04625">
        <ele>403.55</ele>
        <time>2021-08-13T07:33:55.000Z</time>
      </trkpt>
      <trkpt lat="43.09568" lon="-0.04626">
        <ele>403.56</ele>
        <time>2021-08-13T07:34:00.000Z</time>
      </trkpt>
      <trkpt lat="43.09579" lon="-0.04627">
        <ele>403.56</ele>
        <time>2021-08-13T07:34:05.000Z</time>
      </trkpt>
      <trkpt lat="43.09588" lon="-0.04628">
        <ele>403.62</ele>
        <time>2021-08-13T07:34:26.000Z</time>
      </trkpt>
      <trkpt lat="43.09604" lon="-0.04639">
        <ele>403.69</ele>
        <time>2021-08-13T07:34:31.000Z</time>
      </trkpt>
      <trkpt lat="43.09609" lon="-0.04653">
        <ele>403.76</ele>
        <time>2021-08-13T07:34:36.000Z</time>
      </trkpt>
      <trkpt lat="43.09618" lon="-0.04662">
        <ele>404.14</ele>
        <time>2021-08-13T07:36:25.000Z</time>
      </trkpt>
      <trkpt lat="43.09631" lon="-0.04666">
        <ele>404.37</ele>
        <time>2021-08-13T07:36:30.000Z</time>
      </trkpt>
      <trkpt lat="43.09654" lon="-0.04663">
        <ele>404.86</ele>
        <time>2021-08-13T07:36:35.000Z</time>
      </trkpt>
      <trkpt lat="43.09682" lon="-0.04661">
        <ele>405.09</ele>
        <time>2021-08-13T07:36:40.000Z</time>
      </trkpt>
      <trkpt lat="43.09714" lon="-0.04673">
        <ele>405.15</ele>
        <time>2021-08-13T07:36:45.000Z</time>
      </trkpt>
      <trkpt lat="43.09739" lon="-0.04687">
        <ele>405.14</ele>
        <time>2021-08-13T07:36:50.000Z</time>
      </trkpt>
      <trkpt lat="43.09763" lon="-0.04682">
        <ele>405.13</ele>
        <time>2021-08-13T07:36:55.000Z</time>
      </trkpt>
      <trkpt lat="43.09792" lon="-0.04673">
        <ele>405.06</ele>
        <time>2021-08-13T07:37:00.000Z</time>
      </trkpt>
      <trkpt lat="43.09807" lon="-0.0468">
        <ele>404.97</ele>
        <time>2021-08-13T07:37:05.000Z</time>
      </trkpt>
      <trkpt lat="43.0981" lon="-0.04701">
        <ele>404.87</ele>
        <time>2021-08-13T07:37:10.000Z</time>
      </trkpt>
      <trkpt lat="43.09814" lon="-0.04721">
        <ele>404.68</ele>
        <time>2021-08-13T07:37:15.000Z</time>
      </trkpt>
      <trkpt lat="43.09819" lon="-0.0474">
        <ele>403.99</ele>
        <time>2021-08-13T07:37:20.000Z</time>
      </trkpt>
      <trkpt lat="43.09824" lon="-0.04763">
        <ele>403.35</ele>
        <time>2021-08-13T07:37:25.000Z</time>
      </trkpt>
      <trkpt lat="43.0983" lon="-0.04791">
        <ele>402.25</ele>
        <time>2021-08-13T07:37:30.000Z</time>
      </trkpt>
      <trkpt lat="43.09835" lon="-0.0482">
        <ele>400.98</ele>
        <time>2021-08-13T07:37:35.000Z</time>
      </trkpt>
      <trkpt lat="43.09844" lon="-0.04856">
        <ele>400.22</ele>
        <time>2021-08-13T07:37:40.000Z</time>
      </trkpt>
      <trkpt lat="43.09853" lon="-0.04899">
        <ele>399.66</ele>
        <time>2021-08-13T07:37:45.000Z</time>
      </trkpt>
      <trkpt lat="43.09856" lon="-0.04931">
        <ele>399.32</ele>
        <time>2021-08-13T07:37:50.000Z</time>
      </trkpt>
      <trkpt lat="43.09849" lon="-0.04959">
        <ele>399.11</ele>
        <time>2021-08-13T07:37:55.000Z</time>
      </trkpt>
      <trkpt lat="43.09835" lon="-0.04996">
        <ele>398.93</ele>
        <time>2021-08-13T07:38:00.000Z</time>
      </trkpt>
      <trkpt lat="43.09827" lon="-0.05029">
        <ele>398.75</ele>
        <time>2021-08-13T07:38:05.000Z</time>
      </trkpt>
      <trkpt lat="43.09823" lon="-0.05062">
        <ele>398.12</ele>
        <time>2021-08-13T07:38:10.000Z</time>
      </trkpt>
      <trkpt lat="43.09819" lon="-0.0509">
        <ele>397.78</ele>
        <time>2021-08-13T07:38:15.000Z</time>
      </trkpt>
      <trkpt lat="43.09816" lon="-0.05114">
        <ele>397.68</ele>
        <time>2021-08-13T07:38:20.000Z</time>
      </trkpt>
      <trkpt lat="43.09814" lon="-0.05133">
        <ele>397.55</ele>
        <time>2021-08-13T07:38:25.000Z</time>
      </trkpt>
      <trkpt lat="43.09811" lon="-0.05149">
        <ele>397.39</ele>
        <time>2021-08-13T07:38:30.000Z</time>
      </trkpt>
      <trkpt lat="43.09807" lon="-0.05163">
        <ele>397.18</ele>
        <time>2021-08-13T07:38:36.000Z</time>
      </trkpt>
      <trkpt lat="43.09797" lon="-0.05178">
        <ele>396.99</ele>
        <time>2021-08-13T07:38:41.000Z</time>
      </trkpt>
      <trkpt lat="43.09783" lon="-0.0519">
        <ele>396.77</ele>
        <time>2021-08-13T07:38:46.000Z</time>
      </trkpt>
      <trkpt lat="43.09763" lon="-0.05195">
        <ele>395.1</ele>
        <time>2021-08-13T07:38:51.000Z</time>
      </trkpt>
      <trkpt lat="43.09739" lon="-0.05198">
        <ele>394.23</ele>
        <time>2021-08-13T07:38:56.000Z</time>
      </trkpt>
      <trkpt lat="43.0972" lon="-0.05207">
        <ele>393.8</ele>
        <time>2021-08-13T07:39:01.000Z</time>
      </trkpt>
      <trkpt lat="43.09705" lon="-0.05225">
        <ele>393.74</ele>
        <time>2021-08-13T07:39:06.000Z</time>
      </trkpt>
      <trkpt lat="43.09698" lon="-0.05245">
        <ele>393.68</ele>
        <time>2021-08-13T07:39:11.000Z</time>
      </trkpt>
      <trkpt lat="43.09694" lon="-0.05276">
        <ele>393.12</ele>
        <time>2021-08-13T07:39:16.000Z</time>
      </trkpt>
      <trkpt lat="43.09691" lon="-0.05305">
        <ele>392.83</ele>
        <time>2021-08-13T07:39:21.000Z</time>
      </trkpt>
      <trkpt lat="43.09687" lon="-0.05333">
        <ele>392.66</ele>
        <time>2021-08-13T07:39:26.000Z</time>
      </trkpt>
      <trkpt lat="43.09685" lon="-0.05358">
        <ele>392.58</ele>
        <time>2021-08-13T07:39:31.000Z</time>
      </trkpt>
      <trkpt lat="43.09683" lon="-0.05383">
        <ele>392.52</ele>
        <time>2021-08-13T07:39:36.000Z</time>
      </trkpt>
      <trkpt lat="43.09682" lon="-0.05406">
        <ele>392.45</ele>
        <time>2021-08-13T07:39:41.000Z</time>
      </trkpt>
      <trkpt lat="43.09681" lon="-0.05426">
        <ele>392.36</ele>
        <time>2021-08-13T07:39:46.000Z</time>
      </trkpt>
      <trkpt lat="43.09678" lon="-0.05445">
        <ele>392.27</ele>
        <time>2021-08-13T07:39:51.000Z</time>
      </trkpt>
      <trkpt lat="43.09675" lon="-0.05465">
        <ele>392.16</ele>
        <time>2021-08-13T07:39:56.000Z</time>
      </trkpt>
      <trkpt lat="43.09671" lon="-0.05491">
        <ele>392.02</ele>
        <time>2021-08-13T07:40:01.000Z</time>
      </trkpt>
      <trkpt lat="43.09666" lon="-0.05512">
        <ele>391.86</ele>
        <time>2021-08-13T07:40:06.000Z</time>
      </trkpt>
      <trkpt lat="43.09666" lon="-0.05538">
        <ele>391.7</ele>
        <time>2021-08-13T07:40:11.000Z</time>
      </trkpt>
      <trkpt lat="43.09669" lon="-0.0556">
        <ele>391.54</ele>
        <time>2021-08-13T07:40:16.000Z</time>
      </trkpt>
      <trkpt lat="43.09673" lon="-0.0558">
        <ele>391.37</ele>
        <time>2021-08-13T07:40:21.000Z</time>
      </trkpt>
      <trkpt lat="43.09675" lon="-0.05598">
        <ele>391.2</ele>
        <time>2021-08-13T07:40:26.000Z</time>
      </trkpt>
      <trkpt lat="43.09678" lon="-0.05613">
        <ele>391.03</ele>
        <time>2021-08-13T07:40:31.000Z</time>
      </trkpt>
      <trkpt lat="43.0968" lon="-0.05632">
        <ele>390.86</ele>
        <time>2021-08-13T07:40:36.000Z</time>
      </trkpt>
      <trkpt lat="43.09683" lon="-0.05649">
        <ele>390.69</ele>
        <time>2021-08-13T07:40:41.000Z</time>
      </trkpt>
      <trkpt lat="43.09687" lon="-0.05667">
        <ele>390.53</ele>
        <time>2021-08-13T07:40:46.000Z</time>
      </trkpt>
      <trkpt lat="43.09691" lon="-0.05679">
        <ele>390.38</ele>
        <time>2021-08-13T07:40:51.000Z</time>
      </trkpt>
      <trkpt lat="43.09694" lon="-0.05692">
        <ele>390.25</ele>
        <time>2021-08-13T07:40:56.000Z</time>
      </trkpt>
      <trkpt lat="43.09699" lon="-0.05704">
        <ele>390.13</ele>
        <time>2021-08-13T07:41:01.000Z</time>
      </trkpt>
      <trkpt lat="43.09704" lon="-0.05716">
        <ele>390.02</ele>
        <time>2021-08-13T07:41:06.000Z</time>
      </trkpt>
      <trkpt lat="43.0971" lon="-0.05729">
        <ele>389.92</ele>
        <time>2021-08-13T07:41:11.000Z</time>
      </trkpt>
      <trkpt lat="43.09714" lon="-0.05743">
        <ele>389.82</ele>
        <time>2021-08-13T07:41:16.000Z</time>
      </trkpt>
      <trkpt lat="43.09717" lon="-0.05757">
        <ele>389.74</ele>
        <time>2021-08-13T07:41:21.000Z</time>
      </trkpt>
      <trkpt lat="43.09722" lon="-0.05769">
        <ele>389.66</ele>
        <time>2021-08-13T07:41:26.000Z</time>
      </trkpt>
      <trkpt lat="43.09726" lon="-0.05782">
        <ele>389.6</ele>
        <time>2021-08-13T07:41:31.000Z</time>
      </trkpt>
      <trkpt lat="43.09729" lon="-0.05796">
        <ele>389.55</ele>
        <time>2021-08-13T07:41:36.000Z</time>
      </trkpt>
      <trkpt lat="43.0973" lon="-0.0581">
        <ele>389.5</ele>
        <time>2021-08-13T07:41:41.000Z</time>
      </trkpt>
      <trkpt lat="43.09729" lon="-0.05824">
        <ele>389.48</ele>
        <time>2021-08-13T07:41:46.000Z</time>
      </trkpt>
      <trkpt lat="43.09728" lon="-0.05837">
        <ele>389.46</ele>
        <time>2021-08-13T07:41:51.000Z</time>
      </trkpt>
      <trkpt lat="43.09727" lon="-0.05852">
        <ele>389.44</ele>
        <time>2021-08-13T07:41:57.000Z</time>
      </trkpt>
      <trkpt lat="43.09725" lon="-0.05865">
        <ele>389.44</ele>
        <time>2021-08-13T07:42:02.000Z</time>
      </trkpt>
      <trkpt lat="43.09723" lon="-0.05878">
        <ele>389.43</ele>
        <time>2021-08-13T07:42:07.000Z</time>
      </trkpt>
      <trkpt lat="43.09721" lon="-0.05895">
        <ele>389.44</ele>
        <time>2021-08-13T07:42:12.000Z</time>
      </trkpt>
      <trkpt lat="43.0972" lon="-0.0591">
        <ele>389.48</ele>
        <time>2021-08-13T07:42:18.000Z</time>
      </trkpt>
      <trkpt lat="43.09719" lon="-0.05923">
        <ele>389.52</ele>
        <time>2021-08-13T07:42:23.000Z</time>
      </trkpt>
      <trkpt lat="43.09719" lon="-0.05938">
        <ele>389.57</ele>
        <time>2021-08-13T07:42:29.000Z</time>
      </trkpt>
      <trkpt lat="43.09718" lon="-0.05953">
        <ele>389.63</ele>
        <time>2021-08-13T07:42:35.000Z</time>
      </trkpt>
      <trkpt lat="43.0972" lon="-0.05966">
        <ele>389.68</ele>
        <time>2021-08-13T07:42:40.000Z</time>
      </trkpt>
      <trkpt lat="43.09721" lon="-0.05979">
        <ele>389.74</ele>
        <time>2021-08-13T07:42:45.000Z</time>
      </trkpt>
      <trkpt lat="43.09722" lon="-0.05992">
        <ele>389.8</ele>
        <time>2021-08-13T07:42:50.000Z</time>
      </trkpt>
      <trkpt lat="43.09723" lon="-0.06007">
        <ele>389.86</ele>
        <time>2021-08-13T07:42:55.000Z</time>
      </trkpt>
      <trkpt lat="43.09725" lon="-0.06021">
        <ele>389.94</ele>
        <time>2021-08-13T07:42:59.999Z</time>
      </trkpt>
      <trkpt lat="43.09727" lon="-0.06035">
        <ele>390.02</ele>
        <time>2021-08-13T07:43:04.999Z</time>
      </trkpt>
      <trkpt lat="43.09728" lon="-0.06049">
        <ele>390.1</ele>
        <time>2021-08-13T07:43:09.999Z</time>
      </trkpt>
      <trkpt lat="43.09728" lon="-0.06063">
        <ele>390.19</ele>
        <time>2021-08-13T07:43:15.999Z</time>
      </trkpt>
      <trkpt lat="43.09726" lon="-0.06081">
        <ele>390.27</ele>
        <time>2021-08-13T07:43:20.999Z</time>
      </trkpt>
      <trkpt lat="43.09726" lon="-0.06095">
        <ele>390.39</ele>
        <time>2021-08-13T07:43:27.999Z</time>
      </trkpt>
      <trkpt lat="43.09726" lon="-0.06112">
        <ele>390.49</ele>
        <time>2021-08-13T07:43:33.999Z</time>
      </trkpt>
      <trkpt lat="43.09727" lon="-0.06128">
        <ele>390.57</ele>
        <time>2021-08-13T07:43:38.999Z</time>
      </trkpt>
      <trkpt lat="43.09727" lon="-0.06146">
        <ele>390.67</ele>
        <time>2021-08-13T07:43:43.999Z</time>
      </trkpt>
      <trkpt lat="43.09729" lon="-0.06162">
        <ele>390.77</ele>
        <time>2021-08-13T07:43:48.999Z</time>
      </trkpt>
      <trkpt lat="43.09732" lon="-0.06174">
        <ele>390.87</ele>
        <time>2021-08-13T07:43:53.999Z</time>
      </trkpt>
      <trkpt lat="43.09734" lon="-0.06187">
        <ele>390.99</ele>
        <time>2021-08-13T07:43:58.999Z</time>
      </trkpt>
      <trkpt lat="43.09738" lon="-0.062">
        <ele>391.15</ele>
        <time>2021-08-13T07:44:05.999Z</time>
      </trkpt>
      <trkpt lat="43.09741" lon="-0.06212">
        <ele>391.26</ele>
        <time>2021-08-13T07:44:10.999Z</time>
      </trkpt>
      <trkpt lat="43.09743" lon="-0.06226">
        <ele>391.37</ele>
        <time>2021-08-13T07:44:16.999Z</time>
      </trkpt>
      <trkpt lat="43.09745" lon="-0.06244">
        <ele>391.48</ele>
        <time>2021-08-13T07:44:21.999Z</time>
      </trkpt>
      <trkpt lat="43.09749" lon="-0.06256">
        <ele>391.59</ele>
        <time>2021-08-13T07:44:26.999Z</time>
      </trkpt>
      <trkpt lat="43.09751" lon="-0.06269">
        <ele>391.69</ele>
        <time>2021-08-13T07:44:31.999Z</time>
      </trkpt>
      <trkpt lat="43.09755" lon="-0.06289">
        <ele>391.79</ele>
        <time>2021-08-13T07:44:36.999Z</time>
      </trkpt>
      <trkpt lat="43.09759" lon="-0.063">
        <ele>391.89</ele>
        <time>2021-08-13T07:44:41.999Z</time>
      </trkpt>
      <trkpt lat="43.09764" lon="-0.06322">
        <ele>392</ele>
        <time>2021-08-13T07:44:46.999Z</time>
      </trkpt>
      <trkpt lat="43.09766" lon="-0.06338">
        <ele>392.13</ele>
        <time>2021-08-13T07:44:51.999Z</time>
      </trkpt>
      <trkpt lat="43.09767" lon="-0.06355">
        <ele>392.28</ele>
        <time>2021-08-13T07:44:56.999Z</time>
      </trkpt>
      <trkpt lat="43.09771" lon="-0.06373">
        <ele>392.46</ele>
        <time>2021-08-13T07:45:01.999Z</time>
      </trkpt>
      <trkpt lat="43.09774" lon="-0.06396">
        <ele>392.65</ele>
        <time>2021-08-13T07:45:06.999Z</time>
      </trkpt>
      <trkpt lat="43.0978" lon="-0.06423">
        <ele>393.63</ele>
        <time>2021-08-13T07:45:11.999Z</time>
      </trkpt>
      <trkpt lat="43.09789" lon="-0.06454">
        <ele>394.59</ele>
        <time>2021-08-13T07:45:16.999Z</time>
      </trkpt>
      <trkpt lat="43.09805" lon="-0.06488">
        <ele>395.1</ele>
        <time>2021-08-13T07:45:21.999Z</time>
      </trkpt>
      <trkpt lat="43.09832" lon="-0.06518">
        <ele>395.02</ele>
        <time>2021-08-13T07:45:26.999Z</time>
      </trkpt>
      <trkpt lat="43.09857" lon="-0.06553">
        <ele>394.51</ele>
        <time>2021-08-13T07:45:31.999Z</time>
      </trkpt>
      <trkpt lat="43.09866" lon="-0.06603">
        <ele>393.72</ele>
        <time>2021-08-13T07:45:36.999Z</time>
      </trkpt>
      <trkpt lat="43.0987" lon="-0.06656">
        <ele>392.54</ele>
        <time>2021-08-13T07:45:41.999Z</time>
      </trkpt>
      <trkpt lat="43.09864" lon="-0.0671">
        <ele>391.52</ele>
        <time>2021-08-13T07:45:46.999Z</time>
      </trkpt>
      <trkpt lat="43.09853" lon="-0.0676">
        <ele>390.19</ele>
        <time>2021-08-13T07:45:51.999Z</time>
      </trkpt>
      <trkpt lat="43.0984" lon="-0.06807">
        <ele>388.67</ele>
        <time>2021-08-13T07:45:56.999Z</time>
      </trkpt>
      <trkpt lat="43.09819" lon="-0.06847">
        <ele>387.26</ele>
        <time>2021-08-13T07:46:01.999Z</time>
      </trkpt>
      <trkpt lat="43.09799" lon="-0.06885">
        <ele>386.25</ele>
        <time>2021-08-13T07:46:06.999Z</time>
      </trkpt>
      <trkpt lat="43.09772" lon="-0.06911">
        <ele>386.18</ele>
        <time>2021-08-13T07:46:11.999Z</time>
      </trkpt>
      <trkpt lat="43.09742" lon="-0.06918">
        <ele>386.52</ele>
        <time>2021-08-13T07:46:16.999Z</time>
      </trkpt>
      <trkpt lat="43.0971" lon="-0.06906">
        <ele>386.06</ele>
        <time>2021-08-13T07:46:21.999Z</time>
      </trkpt>
      <trkpt lat="43.0969" lon="-0.06913">
        <ele>385.76</ele>
        <time>2021-08-13T07:46:26.999Z</time>
      </trkpt>
      <trkpt lat="43.09683" lon="-0.06921">
        <ele>385.79</ele>
        <time>2021-08-13T07:46:46.999Z</time>
      </trkpt>
      <trkpt lat="43.09673" lon="-0.06933">
        <ele>385.81</ele>
        <time>2021-08-13T07:46:51.999Z</time>
      </trkpt>
      <trkpt lat="43.09663" lon="-0.06947">
        <ele>385.84</ele>
        <time>2021-08-13T07:46:56.999Z</time>
      </trkpt>
      <trkpt lat="43.0966" lon="-0.06966">
        <ele>385.94</ele>
        <time>2021-08-13T07:47:01.999Z</time>
      </trkpt>
      <trkpt lat="43.09662" lon="-0.06989">
        <ele>386.04</ele>
        <time>2021-08-13T07:47:06.999Z</time>
      </trkpt>
      <trkpt lat="43.09659" lon="-0.07006">
        <ele>386.14</ele>
        <time>2021-08-13T07:47:11.999Z</time>
      </trkpt>
      <trkpt lat="43.09657" lon="-0.07019">
        <ele>386.25</ele>
        <time>2021-08-13T07:47:16.999Z</time>
      </trkpt>
      <trkpt lat="43.09649" lon="-0.07033">
        <ele>386.46</ele>
        <time>2021-08-13T07:47:21.999Z</time>
      </trkpt>
      <trkpt lat="43.09643" lon="-0.07045">
        <ele>386.68</ele>
        <time>2021-08-13T07:47:26.999Z</time>
      </trkpt>
      <trkpt lat="43.09639" lon="-0.07059">
        <ele>386.92</ele>
        <time>2021-08-13T07:47:31.999Z</time>
      </trkpt>
      <trkpt lat="43.09636" lon="-0.07073">
        <ele>387.16</ele>
        <time>2021-08-13T07:47:36.999Z</time>
      </trkpt>
      <trkpt lat="43.09633" lon="-0.07086">
        <ele>387.41</ele>
        <time>2021-08-13T07:47:41.999Z</time>
      </trkpt>
      <trkpt lat="43.09631" lon="-0.07101">
        <ele>387.74</ele>
        <time>2021-08-13T07:47:47.999Z</time>
      </trkpt>
      <trkpt lat="43.09629" lon="-0.07114">
        <ele>388.16</ele>
        <time>2021-08-13T07:47:54.999Z</time>
      </trkpt>
      <trkpt lat="43.09628" lon="-0.07127">
        <ele>388.68</ele>
        <time>2021-08-13T07:48:01.999Z</time>
      </trkpt>
      <trkpt lat="43.09627" lon="-0.0714">
        <ele>389.24</ele>
        <time>2021-08-13T07:48:08.999Z</time>
      </trkpt>
      <trkpt lat="43.09624" lon="-0.07153">
        <ele>389.79</ele>
        <time>2021-08-13T07:48:15.999Z</time>
      </trkpt>
      <trkpt lat="43.09618" lon="-0.07162">
        <ele>389.59</ele>
        <time>2021-08-13T07:53:25.999Z</time>
      </trkpt>
      <trkpt lat="43.09611" lon="-0.0717">
        <ele>389.79</ele>
        <time>2021-08-13T07:53:31.999Z</time>
      </trkpt>
      <trkpt lat="43.09603" lon="-0.07179">
        <ele>390.01</ele>
        <time>2021-08-13T07:53:38.999Z</time>
      </trkpt>
      <trkpt lat="43.09595" lon="-0.07186">
        <ele>390.21</ele>
        <time>2021-08-13T07:53:44.999Z</time>
      </trkpt>
      <trkpt lat="43.09591" lon="-0.07198">
        <ele>390.49</ele>
        <time>2021-08-13T07:53:51.999Z</time>
      </trkpt>
      <trkpt lat="43.09589" lon="-0.07212">
        <ele>390.7</ele>
        <time>2021-08-13T07:53:56.999Z</time>
      </trkpt>
      <trkpt lat="43.09588" lon="-0.07224">
        <ele>390.95</ele>
        <time>2021-08-13T07:54:03.000Z</time>
      </trkpt>
      <trkpt lat="43.09588" lon="-0.07238">
        <ele>391.24</ele>
        <time>2021-08-13T07:54:10.000Z</time>
      </trkpt>
      <trkpt lat="43.09586" lon="-0.07252">
        <ele>391.55</ele>
        <time>2021-08-13T07:54:18.000Z</time>
      </trkpt>
      <trkpt lat="43.09585" lon="-0.07266">
        <ele>391.91</ele>
        <time>2021-08-13T07:54:26.000Z</time>
      </trkpt>
      <trkpt lat="43.09582" lon="-0.07279">
        <ele>392.25</ele>
        <time>2021-08-13T07:54:33.000Z</time>
      </trkpt>
      <trkpt lat="43.0958" lon="-0.07292">
        <ele>392.59</ele>
        <time>2021-08-13T07:54:40.000Z</time>
      </trkpt>
      <trkpt lat="43.09577" lon="-0.07305">
        <ele>392.92</ele>
        <time>2021-08-13T07:54:47.000Z</time>
      </trkpt>
      <trkpt lat="43.09573" lon="-0.07318">
        <ele>393.17</ele>
        <time>2021-08-13T07:54:52.000Z</time>
      </trkpt>
      <trkpt lat="43.09568" lon="-0.0733">
        <ele>393.47</ele>
        <time>2021-08-13T07:54:58.000Z</time>
      </trkpt>
      <trkpt lat="43.09566" lon="-0.07344">
        <ele>393.82</ele>
        <time>2021-08-13T07:55:05.000Z</time>
      </trkpt>
      <trkpt lat="43.09564" lon="-0.07358">
        <ele>394.15</ele>
        <time>2021-08-13T07:55:12.000Z</time>
      </trkpt>
      <trkpt lat="43.09563" lon="-0.0737">
        <ele>394.42</ele>
        <time>2021-08-13T07:55:18.000Z</time>
      </trkpt>
      <trkpt lat="43.09563" lon="-0.07383">
        <ele>394.77</ele>
        <time>2021-08-13T07:55:26.000Z</time>
      </trkpt>
      <trkpt lat="43.09562" lon="-0.07396">
        <ele>395.01</ele>
        <time>2021-08-13T07:55:31.000Z</time>
      </trkpt>
      <trkpt lat="43.09563" lon="-0.07409">
        <ele>395.34</ele>
        <time>2021-08-13T07:55:37.000Z</time>
      </trkpt>
      <trkpt lat="43.0956" lon="-0.07423">
        <ele>395.68</ele>
        <time>2021-08-13T07:55:43.000Z</time>
      </trkpt>
      <trkpt lat="43.09559" lon="-0.07437">
        <ele>396.03</ele>
        <time>2021-08-13T07:55:49.000Z</time>
      </trkpt>
      <trkpt lat="43.09555" lon="-0.0745">
        <ele>396.38</ele>
        <time>2021-08-13T07:55:55.000Z</time>
      </trkpt>
      <trkpt lat="43.09553" lon="-0.07463">
        <ele>396.78</ele>
        <time>2021-08-13T07:56:02.000Z</time>
      </trkpt>
      <trkpt lat="43.09553" lon="-0.07477">
        <ele>397.11</ele>
        <time>2021-08-13T07:56:08.000Z</time>
      </trkpt>
      <trkpt lat="43.0955" lon="-0.07489">
        <ele>397.37</ele>
        <time>2021-08-13T07:56:13.000Z</time>
      </trkpt>
      <trkpt lat="43.09549" lon="-0.07501">
        <ele>397.67</ele>
        <time>2021-08-13T07:56:19.000Z</time>
      </trkpt>
      <trkpt lat="43.09548" lon="-0.07514">
        <ele>398.02</ele>
        <time>2021-08-13T07:56:26.000Z</time>
      </trkpt>
      <trkpt lat="43.09547" lon="-0.07526">
        <ele>398.51</ele>
        <time>2021-08-13T07:56:35.000Z</time>
      </trkpt>
      <trkpt lat="43.09543" lon="-0.07539">
        <ele>398.89</ele>
        <time>2021-08-13T07:56:41.000Z</time>
      </trkpt>
      <trkpt lat="43.09542" lon="-0.07555">
        <ele>399.42</ele>
        <time>2021-08-13T07:56:49.000Z</time>
      </trkpt>
      <trkpt lat="43.09537" lon="-0.07572">
        <ele>399.76</ele>
        <time>2021-08-13T07:56:54.000Z</time>
      </trkpt>
      <trkpt lat="43.09524" lon="-0.07597">
        <ele>401.97</ele>
        <time>2021-08-13T07:56:59.000Z</time>
      </trkpt>
      <trkpt lat="43.09499" lon="-0.07626">
        <ele>402.91</ele>
        <time>2021-08-13T07:57:04.000Z</time>
      </trkpt>
      <trkpt lat="43.09477" lon="-0.0764">
        <ele>403.32</ele>
        <time>2021-08-13T07:57:09.000Z</time>
      </trkpt>
      <trkpt lat="43.09466" lon="-0.07684">
        <ele>403.53</ele>
        <time>2021-08-13T07:57:14.000Z</time>
      </trkpt>
      <trkpt lat="43.09481" lon="-0.07717">
        <ele>403.65</ele>
        <time>2021-08-13T07:57:19.000Z</time>
      </trkpt>
      <trkpt lat="43.09497" lon="-0.07738">
        <ele>403.69</ele>
        <time>2021-08-13T07:57:24.000Z</time>
      </trkpt>
      <trkpt lat="43.09514" lon="-0.07753">
        <ele>403.7</ele>
        <time>2021-08-13T07:57:29.000Z</time>
      </trkpt>
      <trkpt lat="43.09523" lon="-0.07775">
        <ele>403.72</ele>
        <time>2021-08-13T07:57:34.000Z</time>
      </trkpt>
      <trkpt lat="43.09526" lon="-0.07794">
        <ele>403.76</ele>
        <time>2021-08-13T07:57:39.000Z</time>
      </trkpt>
      <trkpt lat="43.09534" lon="-0.07816">
        <ele>403.81</ele>
        <time>2021-08-13T07:57:44.000Z</time>
      </trkpt>
      <trkpt lat="43.09539" lon="-0.07836">
        <ele>403.86</ele>
        <time>2021-08-13T07:57:49.000Z</time>
      </trkpt>
      <trkpt lat="43.0955" lon="-0.07863">
        <ele>404.06</ele>
        <time>2021-08-13T07:57:54.000Z</time>
      </trkpt>
      <trkpt lat="43.09565" lon="-0.07893">
        <ele>404.58</ele>
        <time>2021-08-13T07:57:59.000Z</time>
      </trkpt>
      <trkpt lat="43.09583" lon="-0.0793">
        <ele>404.74</ele>
        <time>2021-08-13T07:58:04.000Z</time>
      </trkpt>
      <trkpt lat="43.09596" lon="-0.07966">
        <ele>404.87</ele>
        <time>2021-08-13T07:58:09.000Z</time>
      </trkpt>
      <trkpt lat="43.09603" lon="-0.07998">
        <ele>404.92</ele>
        <time>2021-08-13T07:58:14.000Z</time>
      </trkpt>
      <trkpt lat="43.09609" lon="-0.0803">
        <ele>404.86</ele>
        <time>2021-08-13T07:58:19.000Z</time>
      </trkpt>
      <trkpt lat="43.09616" lon="-0.08067">
        <ele>404.76</ele>
        <time>2021-08-13T07:58:24.000Z</time>
      </trkpt>
      <trkpt lat="43.09623" lon="-0.081">
        <ele>404.77</ele>
        <time>2021-08-13T07:58:29.000Z</time>
      </trkpt>
      <trkpt lat="43.09631" lon="-0.08137">
        <ele>404.74</ele>
        <time>2021-08-13T07:58:34.000Z</time>
      </trkpt>
      <trkpt lat="43.09638" lon="-0.08171">
        <ele>404.72</ele>
        <time>2021-08-13T07:58:39.000Z</time>
      </trkpt>
      <trkpt lat="43.09644" lon="-0.08202">
        <ele>404.72</ele>
        <time>2021-08-13T07:58:44.000Z</time>
      </trkpt>
      <trkpt lat="43.09651" lon="-0.0823">
        <ele>404.71</ele>
        <time>2021-08-13T07:58:49.000Z</time>
      </trkpt>
      <trkpt lat="43.09657" lon="-0.08253">
        <ele>404.7</ele>
        <time>2021-08-13T07:58:54.000Z</time>
      </trkpt>
      <trkpt lat="43.09662" lon="-0.08276">
        <ele>404.7</ele>
        <time>2021-08-13T07:58:59.000Z</time>
      </trkpt>
      <trkpt lat="43.09667" lon="-0.08305">
        <ele>404.7</ele>
        <time>2021-08-13T07:59:04.000Z</time>
      </trkpt>
      <trkpt lat="43.09673" lon="-0.08338">
        <ele>404.72</ele>
        <time>2021-08-13T07:59:09.000Z</time>
      </trkpt>
      <trkpt lat="43.09672" lon="-0.0837">
        <ele>404.84</ele>
        <time>2021-08-13T07:59:14.000Z</time>
      </trkpt>
      <trkpt lat="43.09669" lon="-0.08401">
        <ele>404.89</ele>
        <time>2021-08-13T07:59:19.000Z</time>
      </trkpt>
      <trkpt lat="43.09666" lon="-0.08424">
        <ele>404.97</ele>
        <time>2021-08-13T07:59:24.000Z</time>
      </trkpt>
      <trkpt lat="43.0967" lon="-0.08447">
        <ele>405.05</ele>
        <time>2021-08-13T07:59:29.000Z</time>
      </trkpt>
      <trkpt lat="43.09676" lon="-0.08477">
        <ele>405.13</ele>
        <time>2021-08-13T07:59:34.000Z</time>
      </trkpt>
      <trkpt lat="43.09684" lon="-0.08503">
        <ele>405.22</ele>
        <time>2021-08-13T07:59:39.000Z</time>
      </trkpt>
      <trkpt lat="43.09691" lon="-0.08526">
        <ele>405.3</ele>
        <time>2021-08-13T07:59:44.000Z</time>
      </trkpt>
      <trkpt lat="43.09697" lon="-0.08548">
        <ele>405.37</ele>
        <time>2021-08-13T07:59:49.000Z</time>
      </trkpt>
      <trkpt lat="43.09706" lon="-0.08569">
        <ele>405.44</ele>
        <time>2021-08-13T07:59:54.000Z</time>
      </trkpt>
      <trkpt lat="43.0971" lon="-0.08604">
        <ele>405.51</ele>
        <time>2021-08-13T07:59:59.000Z</time>
      </trkpt>
      <trkpt lat="43.09715" lon="-0.08624">
        <ele>405.62</ele>
        <time>2021-08-13T08:00:04.000Z</time>
      </trkpt>
      <trkpt lat="43.09714" lon="-0.08648">
        <ele>405.74</ele>
        <time>2021-08-13T08:00:09.000Z</time>
      </trkpt>
      <trkpt lat="43.09711" lon="-0.08669">
        <ele>405.88</ele>
        <time>2021-08-13T08:00:14.000Z</time>
      </trkpt>
      <trkpt lat="43.09708" lon="-0.08689">
        <ele>406.04</ele>
        <time>2021-08-13T08:00:19.000Z</time>
      </trkpt>
      <trkpt lat="43.09704" lon="-0.08712">
        <ele>406.23</ele>
        <time>2021-08-13T08:00:24.000Z</time>
      </trkpt>
      <trkpt lat="43.09702" lon="-0.08732">
        <ele>406.44</ele>
        <time>2021-08-13T08:00:29.000Z</time>
      </trkpt>
      <trkpt lat="43.09697" lon="-0.08757">
        <ele>406.66</ele>
        <time>2021-08-13T08:00:34.000Z</time>
      </trkpt>
      <trkpt lat="43.09695" lon="-0.08778">
        <ele>406.9</ele>
        <time>2021-08-13T08:00:39.000Z</time>
      </trkpt>
      <trkpt lat="43.09693" lon="-0.08796">
        <ele>407.17</ele>
        <time>2021-08-13T08:00:44.000Z</time>
      </trkpt>
      <trkpt lat="43.09689" lon="-0.08819">
        <ele>407.45</ele>
        <time>2021-08-13T08:00:49.000Z</time>
      </trkpt>
      <trkpt lat="43.09687" lon="-0.08847">
        <ele>407.73</ele>
        <time>2021-08-13T08:00:54.000Z</time>
      </trkpt>
      <trkpt lat="43.0969" lon="-0.08878">
        <ele>408</ele>
        <time>2021-08-13T08:00:59.000Z</time>
      </trkpt>
      <trkpt lat="43.09694" lon="-0.08904">
        <ele>408.25</ele>
        <time>2021-08-13T08:01:04.000Z</time>
      </trkpt>
      <trkpt lat="43.09695" lon="-0.08927">
        <ele>408.48</ele>
        <time>2021-08-13T08:01:09.000Z</time>
      </trkpt>
      <trkpt lat="43.0969" lon="-0.08955">
        <ele>408.7</ele>
        <time>2021-08-13T08:01:14.000Z</time>
      </trkpt>
      <trkpt lat="43.09685" lon="-0.08979">
        <ele>408.91</ele>
        <time>2021-08-13T08:01:19.000Z</time>
      </trkpt>
      <trkpt lat="43.09683" lon="-0.08996">
        <ele>409.13</ele>
        <time>2021-08-13T08:01:24.000Z</time>
      </trkpt>
      <trkpt lat="43.09682" lon="-0.09009">
        <ele>409.37</ele>
        <time>2021-08-13T08:01:29.000Z</time>
      </trkpt>
      <trkpt lat="43.09683" lon="-0.09025">
        <ele>409.64</ele>
        <time>2021-08-13T08:01:34.000Z</time>
      </trkpt>
      <trkpt lat="43.09686" lon="-0.09046">
        <ele>409.91</ele>
        <time>2021-08-13T08:01:39.000Z</time>
      </trkpt>
      <trkpt lat="43.09692" lon="-0.09071">
        <ele>410.18</ele>
        <time>2021-08-13T08:01:44.000Z</time>
      </trkpt>
      <trkpt lat="43.09699" lon="-0.09098">
        <ele>410.81</ele>
        <time>2021-08-13T08:01:49.000Z</time>
      </trkpt>
      <trkpt lat="43.09704" lon="-0.09125">
        <ele>411.4</ele>
        <time>2021-08-13T08:01:54.000Z</time>
      </trkpt>
      <trkpt lat="43.09706" lon="-0.09161">
        <ele>412.07</ele>
        <time>2021-08-13T08:01:59.000Z</time>
      </trkpt>
      <trkpt lat="43.09706" lon="-0.09199">
        <ele>412.26</ele>
        <time>2021-08-13T08:02:04.000Z</time>
      </trkpt>
      <trkpt lat="43.09706" lon="-0.09237">
        <ele>412.33</ele>
        <time>2021-08-13T08:02:09.000Z</time>
      </trkpt>
      <trkpt lat="43.09707" lon="-0.09278">
        <ele>412.27</ele>
        <time>2021-08-13T08:02:14.000Z</time>
      </trkpt>
      <trkpt lat="43.09706" lon="-0.09313">
        <ele>412.16</ele>
        <time>2021-08-13T08:02:19.000Z</time>
      </trkpt>
      <trkpt lat="43.09705" lon="-0.09351">
        <ele>412.04</ele>
        <time>2021-08-13T08:02:24.000Z</time>
      </trkpt>
      <trkpt lat="43.09705" lon="-0.09386">
        <ele>411.94</ele>
        <time>2021-08-13T08:02:29.000Z</time>
      </trkpt>
      <trkpt lat="43.09702" lon="-0.09427">
        <ele>411.89</ele>
        <time>2021-08-13T08:02:34.000Z</time>
      </trkpt>
      <trkpt lat="43.09695" lon="-0.09462">
        <ele>411.88</ele>
        <time>2021-08-13T08:02:39.000Z</time>
      </trkpt>
      <trkpt lat="43.09689" lon="-0.09493">
        <ele>411.86</ele>
        <time>2021-08-13T08:02:44.000Z</time>
      </trkpt>
      <trkpt lat="43.09683" lon="-0.09521">
        <ele>411.91</ele>
        <time>2021-08-13T08:02:49.000Z</time>
      </trkpt>
      <trkpt lat="43.09679" lon="-0.09545">
        <ele>411.94</ele>
        <time>2021-08-13T08:02:54.000Z</time>
      </trkpt>
      <trkpt lat="43.09676" lon="-0.09568">
        <ele>411.97</ele>
        <time>2021-08-13T08:02:59.000Z</time>
      </trkpt>
      <trkpt lat="43.09674" lon="-0.09586">
        <ele>412.01</ele>
        <time>2021-08-13T08:03:04.000Z</time>
      </trkpt>
      <trkpt lat="43.09671" lon="-0.09604">
        <ele>412.05</ele>
        <time>2021-08-13T08:03:09.000Z</time>
      </trkpt>
      <trkpt lat="43.09668" lon="-0.09621">
        <ele>412.09</ele>
        <time>2021-08-13T08:03:14.000Z</time>
      </trkpt>
      <trkpt lat="43.09666" lon="-0.09638">
        <ele>412.15</ele>
        <time>2021-08-13T08:03:19.000Z</time>
      </trkpt>
      <trkpt lat="43.09665" lon="-0.09655">
        <ele>412.2</ele>
        <time>2021-08-13T08:03:24.000Z</time>
      </trkpt>
      <trkpt lat="43.09666" lon="-0.09669">
        <ele>412.27</ele>
        <time>2021-08-13T08:03:29.000Z</time>
      </trkpt>
      <trkpt lat="43.09667" lon="-0.09682">
        <ele>412.34</ele>
        <time>2021-08-13T08:03:34.000Z</time>
      </trkpt>
      <trkpt lat="43.09666" lon="-0.09694">
        <ele>412.4</ele>
        <time>2021-08-13T08:03:39.000Z</time>
      </trkpt>
      <trkpt lat="43.09666" lon="-0.09708">
        <ele>412.47</ele>
        <time>2021-08-13T08:03:44.000Z</time>
      </trkpt>
      <trkpt lat="43.09667" lon="-0.09723">
        <ele>412.56</ele>
        <time>2021-08-13T08:03:50.000Z</time>
      </trkpt>
      <trkpt lat="43.09665" lon="-0.0974">
        <ele>412.65</ele>
        <time>2021-08-13T08:03:55.000Z</time>
      </trkpt>
      <trkpt lat="43.09665" lon="-0.09753">
        <ele>412.78</ele>
        <time>2021-08-13T08:04:01.000Z</time>
      </trkpt>
      <trkpt lat="43.09664" lon="-0.0977">
        <ele>412.9</ele>
        <time>2021-08-13T08:04:06.000Z</time>
      </trkpt>
      <trkpt lat="43.09663" lon="-0.09785">
        <ele>413.02</ele>
        <time>2021-08-13T08:04:11.000Z</time>
      </trkpt>
      <trkpt lat="43.09663" lon="-0.09798">
        <ele>413.15</ele>
        <time>2021-08-13T08:04:16.000Z</time>
      </trkpt>
      <trkpt lat="43.09663" lon="-0.09812">
        <ele>413.28</ele>
        <time>2021-08-13T08:04:21.000Z</time>
      </trkpt>
      <trkpt lat="43.09663" lon="-0.09827">
        <ele>413.45</ele>
        <time>2021-08-13T08:04:27.000Z</time>
      </trkpt>
      <trkpt lat="43.09661" lon="-0.09841">
        <ele>413.6</ele>
        <time>2021-08-13T08:04:32.000Z</time>
      </trkpt>
      <trkpt lat="43.0966" lon="-0.09854">
        <ele>413.78</ele>
        <time>2021-08-13T08:04:37.000Z</time>
      </trkpt>
      <trkpt lat="43.0966" lon="-0.09868">
        <ele>414.02</ele>
        <time>2021-08-13T08:04:44.000Z</time>
      </trkpt>
      <trkpt lat="43.09656" lon="-0.09881">
        <ele>414.22</ele>
        <time>2021-08-13T08:04:50.000Z</time>
      </trkpt>
      <trkpt lat="43.09653" lon="-0.09894">
        <ele>414.37</ele>
        <time>2021-08-13T08:04:55.000Z</time>
      </trkpt>
      <trkpt lat="43.0965" lon="-0.09906">
        <ele>414.52</ele>
        <time>2021-08-13T08:05:00.000Z</time>
      </trkpt>
      <trkpt lat="43.09647" lon="-0.09919">
        <ele>414.65</ele>
        <time>2021-08-13T08:05:05.000Z</time>
      </trkpt>
      <trkpt lat="43.09642" lon="-0.09931">
        <ele>414.8</ele>
        <time>2021-08-13T08:05:11.000Z</time>
      </trkpt>
      <trkpt lat="43.09636" lon="-0.09943">
        <ele>414.92</ele>
        <time>2021-08-13T08:05:16.999Z</time>
      </trkpt>
      <trkpt lat="43.0963" lon="-0.09955">
        <ele>415.02</ele>
        <time>2021-08-13T08:05:21.999Z</time>
      </trkpt>
      <trkpt lat="43.09624" lon="-0.09968">
        <ele>415.11</ele>
        <time>2021-08-13T08:05:26.999Z</time>
      </trkpt>
      <trkpt lat="43.09616" lon="-0.09984">
        <ele>415.2</ele>
        <time>2021-08-13T08:05:31.999Z</time>
      </trkpt>
      <trkpt lat="43.09609" lon="-0.1">
        <ele>415.29</ele>
        <time>2021-08-13T08:05:36.999Z</time>
      </trkpt>
      <trkpt lat="43.09597" lon="-0.10028">
        <ele>415.37</ele>
        <time>2021-08-13T08:05:41.999Z</time>
      </trkpt>
      <trkpt lat="43.0958" lon="-0.1007">
        <ele>415.78</ele>
        <time>2021-08-13T08:05:46.999Z</time>
      </trkpt>
      <trkpt lat="43.09562" lon="-0.1011">
        <ele>415.99</ele>
        <time>2021-08-13T08:05:51.999Z</time>
      </trkpt>
      <trkpt lat="43.09548" lon="-0.10144">
        <ele>416.08</ele>
        <time>2021-08-13T08:05:56.999Z</time>
      </trkpt>
      <trkpt lat="43.09538" lon="-0.10175">
        <ele>416.11</ele>
        <time>2021-08-13T08:06:01.999Z</time>
      </trkpt>
      <trkpt lat="43.09523" lon="-0.10222">
        <ele>416.14</ele>
        <time>2021-08-13T08:06:06.999Z</time>
      </trkpt>
      <trkpt lat="43.09509" lon="-0.10263">
        <ele>416.17</ele>
        <time>2021-08-13T08:06:11.999Z</time>
      </trkpt>
      <trkpt lat="43.09496" lon="-0.10301">
        <ele>416.21</ele>
        <time>2021-08-13T08:06:16.999Z</time>
      </trkpt>
      <trkpt lat="43.09482" lon="-0.10343">
        <ele>416.22</ele>
        <time>2021-08-13T08:06:21.999Z</time>
      </trkpt>
      <trkpt lat="43.0947" lon="-0.1038">
        <ele>416.19</ele>
        <time>2021-08-13T08:06:26.999Z</time>
      </trkpt>
      <trkpt lat="43.09466" lon="-0.10421">
        <ele>416.11</ele>
        <time>2021-08-13T08:06:31.999Z</time>
      </trkpt>
      <trkpt lat="43.0947" lon="-0.10456">
        <ele>416.08</ele>
        <time>2021-08-13T08:06:36.999Z</time>
      </trkpt>
      <trkpt lat="43.09474" lon="-0.10493">
        <ele>416.14</ele>
        <time>2021-08-13T08:06:41.999Z</time>
      </trkpt>
      <trkpt lat="43.09478" lon="-0.1052">
        <ele>416.17</ele>
        <time>2021-08-13T08:06:46.999Z</time>
      </trkpt>
      <trkpt lat="43.0948" lon="-0.10549">
        <ele>416.28</ele>
        <time>2021-08-13T08:06:51.999Z</time>
      </trkpt>
      <trkpt lat="43.09486" lon="-0.10572">
        <ele>416.3</ele>
        <time>2021-08-13T08:06:56.999Z</time>
      </trkpt>
      <trkpt lat="43.09489" lon="-0.10603">
        <ele>416.31</ele>
        <time>2021-08-13T08:07:01.999Z</time>
      </trkpt>
      <trkpt lat="43.09489" lon="-0.10639">
        <ele>416.16</ele>
        <time>2021-08-13T08:07:06.999Z</time>
      </trkpt>
      <trkpt lat="43.09488" lon="-0.10676">
        <ele>415.91</ele>
        <time>2021-08-13T08:07:11.999Z</time>
      </trkpt>
      <trkpt lat="43.09487" lon="-0.10714">
        <ele>415.73</ele>
        <time>2021-08-13T08:07:16.999Z</time>
      </trkpt>
      <trkpt lat="43.09489" lon="-0.10749">
        <ele>415.34</ele>
        <time>2021-08-13T08:07:21.999Z</time>
      </trkpt>
      <trkpt lat="43.09489" lon="-0.10782">
        <ele>414.8</ele>
        <time>2021-08-13T08:07:26.999Z</time>
      </trkpt>
      <trkpt lat="43.09486" lon="-0.10826">
        <ele>414.32</ele>
        <time>2021-08-13T08:07:31.999Z</time>
      </trkpt>
      <trkpt lat="43.09481" lon="-0.10862">
        <ele>413.76</ele>
        <time>2021-08-13T08:07:36.999Z</time>
      </trkpt>
      <trkpt lat="43.09472" lon="-0.10897">
        <ele>413.41</ele>
        <time>2021-08-13T08:07:41.999Z</time>
      </trkpt>
      <trkpt lat="43.09461" lon="-0.10931">
        <ele>413.14</ele>
        <time>2021-08-13T08:07:46.999Z</time>
      </trkpt>
      <trkpt lat="43.09451" lon="-0.10971">
        <ele>412.61</ele>
        <time>2021-08-13T08:07:51.999Z</time>
      </trkpt>
      <trkpt lat="43.0944" lon="-0.1101">
        <ele>412.25</ele>
        <time>2021-08-13T08:07:56.999Z</time>
      </trkpt>
      <trkpt lat="43.09435" lon="-0.11043">
        <ele>411.92</ele>
        <time>2021-08-13T08:08:01.999Z</time>
      </trkpt>
      <trkpt lat="43.09435" lon="-0.11078">
        <ele>411.63</ele>
        <time>2021-08-13T08:08:06.999Z</time>
      </trkpt>
      <trkpt lat="43.09439" lon="-0.1111">
        <ele>411.28</ele>
        <time>2021-08-13T08:08:11.999Z</time>
      </trkpt>
      <trkpt lat="43.09446" lon="-0.11139">
        <ele>410.91</ele>
        <time>2021-08-13T08:08:16.999Z</time>
      </trkpt>
      <trkpt lat="43.09454" lon="-0.11181">
        <ele>410.43</ele>
        <time>2021-08-13T08:08:21.999Z</time>
      </trkpt>
      <trkpt lat="43.09461" lon="-0.11211">
        <ele>410.19</ele>
        <time>2021-08-13T08:08:26.999Z</time>
      </trkpt>
      <trkpt lat="43.09468" lon="-0.11246">
        <ele>409.79</ele>
        <time>2021-08-13T08:08:31.999Z</time>
      </trkpt>
      <trkpt lat="43.09474" lon="-0.11284">
        <ele>409.43</ele>
        <time>2021-08-13T08:08:36.999Z</time>
      </trkpt>
      <trkpt lat="43.09482" lon="-0.1132">
        <ele>409.06</ele>
        <time>2021-08-13T08:08:41.999Z</time>
      </trkpt>
      <trkpt lat="43.09494" lon="-0.11352">
        <ele>408.83</ele>
        <time>2021-08-13T08:08:46.999Z</time>
      </trkpt>
      <trkpt lat="43.09501" lon="-0.11372">
        <ele>408.8</ele>
        <time>2021-08-13T08:08:51.999Z</time>
      </trkpt>
      <trkpt lat="43.09506" lon="-0.11386">
        <ele>408.76</ele>
        <time>2021-08-13T08:08:56.999Z</time>
      </trkpt>
      <trkpt lat="43.09508" lon="-0.114">
        <ele>408.72</ele>
        <time>2021-08-13T08:09:01.999Z</time>
      </trkpt>
      <trkpt lat="43.09511" lon="-0.11415">
        <ele>408.68</ele>
        <time>2021-08-13T08:09:06.999Z</time>
      </trkpt>
      <trkpt lat="43.09513" lon="-0.11428">
        <ele>408.62</ele>
        <time>2021-08-13T08:09:11.999Z</time>
      </trkpt>
      <trkpt lat="43.09517" lon="-0.11441">
        <ele>408.54</ele>
        <time>2021-08-13T08:09:16.999Z</time>
      </trkpt>
      <trkpt lat="43.09518" lon="-0.11453">
        <ele>408.44</ele>
        <time>2021-08-13T08:09:22.999Z</time>
      </trkpt>
      <trkpt lat="43.09516" lon="-0.11466">
        <ele>408.35</ele>
        <time>2021-08-13T08:09:28.999Z</time>
      </trkpt>
      <trkpt lat="43.09515" lon="-0.1148">
        <ele>408.28</ele>
        <time>2021-08-13T08:09:33.999Z</time>
      </trkpt>
      <trkpt lat="43.09512" lon="-0.11493">
        <ele>408.22</ele>
        <time>2021-08-13T08:09:38.999Z</time>
      </trkpt>
      <trkpt lat="43.09507" lon="-0.11511">
        <ele>408.15</ele>
        <time>2021-08-13T08:09:43.999Z</time>
      </trkpt>
      <trkpt lat="43.09503" lon="-0.11524">
        <ele>408.11</ele>
        <time>2021-08-13T08:09:48.999Z</time>
      </trkpt>
      <trkpt lat="43.09499" lon="-0.11538">
        <ele>408.07</ele>
        <time>2021-08-13T08:09:53.999Z</time>
      </trkpt>
      <trkpt lat="43.09503" lon="-0.11553">
        <ele>408.04</ele>
        <time>2021-08-13T08:09:58.999Z</time>
      </trkpt>
      <trkpt lat="43.09511" lon="-0.11579">
        <ele>407.81</ele>
        <time>2021-08-13T08:10:03.999Z</time>
      </trkpt>
      <trkpt lat="43.09517" lon="-0.11612">
        <ele>407.67</ele>
        <time>2021-08-13T08:10:08.999Z</time>
      </trkpt>
      <trkpt lat="43.09521" lon="-0.11642">
        <ele>407.6</ele>
        <time>2021-08-13T08:10:13.999Z</time>
      </trkpt>
      <trkpt lat="43.09527" lon="-0.11659">
        <ele>407.58</ele>
        <time>2021-08-13T08:10:18.999Z</time>
      </trkpt>
      <trkpt lat="43.09534" lon="-0.11673">
        <ele>407.56</ele>
        <time>2021-08-13T08:10:23.999Z</time>
      </trkpt>
      <trkpt lat="43.09541" lon="-0.11685">
        <ele>407.54</ele>
        <time>2021-08-13T08:10:28.999Z</time>
      </trkpt>
      <trkpt lat="43.09547" lon="-0.11698">
        <ele>407.53</ele>
        <time>2021-08-13T08:10:34.999Z</time>
      </trkpt>
      <trkpt lat="43.09551" lon="-0.11709">
        <ele>407.52</ele>
        <time>2021-08-13T08:10:41.999Z</time>
      </trkpt>
      <trkpt lat="43.09555" lon="-0.11722">
        <ele>407.54</ele>
        <time>2021-08-13T08:10:48.999Z</time>
      </trkpt>
      <trkpt lat="43.09558" lon="-0.11733">
        <ele>407.57</ele>
        <time>2021-08-13T08:10:54.999Z</time>
      </trkpt>
      <trkpt lat="43.09563" lon="-0.11751">
        <ele>407.62</ele>
        <time>2021-08-13T08:10:59.999Z</time>
      </trkpt>
      <trkpt lat="43.09565" lon="-0.11781">
        <ele>407.7</ele>
        <time>2021-08-13T08:11:04.999Z</time>
      </trkpt>
      <trkpt lat="43.09558" lon="-0.1182">
        <ele>407.65</ele>
        <time>2021-08-13T08:11:09.999Z</time>
      </trkpt>
      <trkpt lat="43.09539" lon="-0.11859">
        <ele>407.62</ele>
        <time>2021-08-13T08:11:14.999Z</time>
      </trkpt>
      <trkpt lat="43.09523" lon="-0.11901">
        <ele>407.53</ele>
        <time>2021-08-13T08:11:19.999Z</time>
      </trkpt>
      <trkpt lat="43.09546" lon="-0.11934">
        <ele>407.16</ele>
        <time>2021-08-13T08:11:24.999Z</time>
      </trkpt>
      <trkpt lat="43.09577" lon="-0.11964">
        <ele>407.2</ele>
        <time>2021-08-13T08:11:29.999Z</time>
      </trkpt>
      <trkpt lat="43.0961" lon="-0.12001">
        <ele>405.94</ele>
        <time>2021-08-13T08:11:34.999Z</time>
      </trkpt>
      <trkpt lat="43.09612" lon="-0.12059">
        <ele>403.34</ele>
        <time>2021-08-13T08:11:39.999Z</time>
      </trkpt>
      <trkpt lat="43.0958" lon="-0.12114">
        <ele>401.07</ele>
        <time>2021-08-13T08:11:44.999Z</time>
      </trkpt>
      <trkpt lat="43.09563" lon="-0.12172">
        <ele>399.38</ele>
        <time>2021-08-13T08:11:49.999Z</time>
      </trkpt>
      <trkpt lat="43.09586" lon="-0.12208">
        <ele>399.2</ele>
        <time>2021-08-13T08:11:54.999Z</time>
      </trkpt>
      <trkpt lat="43.09606" lon="-0.12247">
        <ele>397.89</ele>
        <time>2021-08-13T08:11:59.999Z</time>
      </trkpt>
      <trkpt lat="43.09615" lon="-0.12296">
        <ele>395.69</ele>
        <time>2021-08-13T08:12:04.999Z</time>
      </trkpt>
      <trkpt lat="43.0962" lon="-0.12347">
        <ele>393.15</ele>
        <time>2021-08-13T08:12:09.999Z</time>
      </trkpt>
      <trkpt lat="43.09622" lon="-0.12397">
        <ele>391.08</ele>
        <time>2021-08-13T08:12:14.999Z</time>
      </trkpt>
      <trkpt lat="43.09636" lon="-0.12441">
        <ele>389.18</ele>
        <time>2021-08-13T08:12:19.999Z</time>
      </trkpt>
      <trkpt lat="43.09659" lon="-0.12479">
        <ele>387.5</ele>
        <time>2021-08-13T08:12:24.999Z</time>
      </trkpt>
      <trkpt lat="43.09684" lon="-0.12514">
        <ele>385.78</ele>
        <time>2021-08-13T08:12:29.999Z</time>
      </trkpt>
      <trkpt lat="43.09701" lon="-0.12557">
        <ele>384.17</ele>
        <time>2021-08-13T08:12:34.999Z</time>
      </trkpt>
      <trkpt lat="43.09717" lon="-0.12599">
        <ele>382.81</ele>
        <time>2021-08-13T08:12:39.999Z</time>
      </trkpt>
      <trkpt lat="43.0973" lon="-0.12639">
        <ele>381.49</ele>
        <time>2021-08-13T08:12:44.999Z</time>
      </trkpt>
      <trkpt lat="43.0974" lon="-0.12675">
        <ele>379.9</ele>
        <time>2021-08-13T08:12:49.999Z</time>
      </trkpt>
      <trkpt lat="43.09747" lon="-0.12724">
        <ele>376.79</ele>
        <time>2021-08-13T08:12:54.999Z</time>
      </trkpt>
      <trkpt lat="43.09758" lon="-0.12768">
        <ele>374</ele>
        <time>2021-08-13T08:12:59.999Z</time>
      </trkpt>
      <trkpt lat="43.09768" lon="-0.12795">
        <ele>372.79</ele>
        <time>2021-08-13T08:13:04.999Z</time>
      </trkpt>
      <trkpt lat="43.09788" lon="-0.12827">
        <ele>370.81</ele>
        <time>2021-08-13T08:13:09.999Z</time>
      </trkpt>
      <trkpt lat="43.09799" lon="-0.12855">
        <ele>370.77</ele>
        <time>2021-08-13T08:13:14.999Z</time>
      </trkpt>
      <trkpt lat="43.09798" lon="-0.12876">
        <ele>371.03</ele>
        <time>2021-08-13T08:13:19.999Z</time>
      </trkpt>
      <trkpt lat="43.09797" lon="-0.12892">
        <ele>371.29</ele>
        <time>2021-08-13T08:13:24.999Z</time>
      </trkpt>
      <trkpt lat="43.09796" lon="-0.1291">
        <ele>371.56</ele>
        <time>2021-08-13T08:13:29.999Z</time>
      </trkpt>
      <trkpt lat="43.09796" lon="-0.12928">
        <ele>371.91</ele>
        <time>2021-08-13T08:13:34.999Z</time>
      </trkpt>
      <trkpt lat="43.09796" lon="-0.12944">
        <ele>372.25</ele>
        <time>2021-08-13T08:13:39.999Z</time>
      </trkpt>
      <trkpt lat="43.09795" lon="-0.12959">
        <ele>372.59</ele>
        <time>2021-08-13T08:13:44.999Z</time>
      </trkpt>
      <trkpt lat="43.09796" lon="-0.12973">
        <ele>372.86</ele>
        <time>2021-08-13T08:13:49.999Z</time>
      </trkpt>
      <trkpt lat="43.09796" lon="-0.12989">
        <ele>373.05</ele>
        <time>2021-08-13T08:13:54.999Z</time>
      </trkpt>
      <trkpt lat="43.09798" lon="-0.1301">
        <ele>373.15</ele>
        <time>2021-08-13T08:13:59.999Z</time>
      </trkpt>
      <trkpt lat="43.09804" lon="-0.13031">
        <ele>373.19</ele>
        <time>2021-08-13T08:14:04.999Z</time>
      </trkpt>
      <trkpt lat="43.09812" lon="-0.13053">
        <ele>373</ele>
        <time>2021-08-13T08:14:09.999Z</time>
      </trkpt>
      <trkpt lat="43.09823" lon="-0.1308">
        <ele>372.55</ele>
        <time>2021-08-13T08:14:14.999Z</time>
      </trkpt>
      <trkpt lat="43.09833" lon="-0.13111">
        <ele>372.04</ele>
        <time>2021-08-13T08:14:19.999Z</time>
      </trkpt>
      <trkpt lat="43.09849" lon="-0.13138">
        <ele>371.68</ele>
        <time>2021-08-13T08:14:24.999Z</time>
      </trkpt>
      <trkpt lat="43.0986" lon="-0.13163">
        <ele>371.15</ele>
        <time>2021-08-13T08:14:29.999Z</time>
      </trkpt>
      <trkpt lat="43.09877" lon="-0.1319">
        <ele>370.48</ele>
        <time>2021-08-13T08:14:34.999Z</time>
      </trkpt>
      <trkpt lat="43.09903" lon="-0.13222">
        <ele>369.52</ele>
        <time>2021-08-13T08:14:39.999Z</time>
      </trkpt>
      <trkpt lat="43.09931" lon="-0.1326">
        <ele>368.33</ele>
        <time>2021-08-13T08:14:44.999Z</time>
      </trkpt>
      <trkpt lat="43.0995" lon="-0.13297">
        <ele>367.18</ele>
        <time>2021-08-13T08:14:49.999Z</time>
      </trkpt>
      <trkpt lat="43.09962" lon="-0.13329">
        <ele>366.11</ele>
        <time>2021-08-13T08:14:54.999Z</time>
      </trkpt>
      <trkpt lat="43.09968" lon="-0.13352">
        <ele>365.55</ele>
        <time>2021-08-13T08:14:59.999Z</time>
      </trkpt>
      <trkpt lat="43.09973" lon="-0.13373">
        <ele>365.23</ele>
        <time>2021-08-13T08:15:04.999Z</time>
      </trkpt>
      <trkpt lat="43.09979" lon="-0.13393">
        <ele>364.85</ele>
        <time>2021-08-13T08:15:09.999Z</time>
      </trkpt>
      <trkpt lat="43.09985" lon="-0.13412">
        <ele>364.47</ele>
        <time>2021-08-13T08:15:14.999Z</time>
      </trkpt>
      <trkpt lat="43.09991" lon="-0.1343">
        <ele>364.04</ele>
        <time>2021-08-13T08:15:19.999Z</time>
      </trkpt>
      <trkpt lat="43.10001" lon="-0.1345">
        <ele>363.57</ele>
        <time>2021-08-13T08:15:24.999Z</time>
      </trkpt>
      <trkpt lat="43.1001" lon="-0.13473">
        <ele>362.37</ele>
        <time>2021-08-13T08:15:29.999Z</time>
      </trkpt>
      <trkpt lat="43.10014" lon="-0.13495">
        <ele>361.97</ele>
        <time>2021-08-13T08:15:34.999Z</time>
      </trkpt>
      <trkpt lat="43.10014" lon="-0.13518">
        <ele>361.56</ele>
        <time>2021-08-13T08:15:39.999Z</time>
      </trkpt>
      <trkpt lat="43.10009" lon="-0.1354">
        <ele>361.16</ele>
        <time>2021-08-13T08:15:44.999Z</time>
      </trkpt>
      <trkpt lat="43.10003" lon="-0.13556">
        <ele>360.76</ele>
        <time>2021-08-13T08:15:49.999Z</time>
      </trkpt>
      <trkpt lat="43.09995" lon="-0.13578">
        <ele>360.38</ele>
        <time>2021-08-13T08:15:54.999Z</time>
      </trkpt>
      <trkpt lat="43.09987" lon="-0.13603">
        <ele>360.05</ele>
        <time>2021-08-13T08:15:59.999Z</time>
      </trkpt>
      <trkpt lat="43.09981" lon="-0.1363">
        <ele>358.13</ele>
        <time>2021-08-13T08:16:04.999Z</time>
      </trkpt>
      <trkpt lat="43.09975" lon="-0.13654">
        <ele>357.48</ele>
        <time>2021-08-13T08:16:09.999Z</time>
      </trkpt>
      <trkpt lat="43.09969" lon="-0.13681">
        <ele>357.14</ele>
        <time>2021-08-13T08:16:14.999Z</time>
      </trkpt>
      <trkpt lat="43.09962" lon="-0.13711">
        <ele>357.09</ele>
        <time>2021-08-13T08:16:19.999Z</time>
      </trkpt>
      <trkpt lat="43.09958" lon="-0.13742">
        <ele>357.13</ele>
        <time>2021-08-13T08:16:24.999Z</time>
      </trkpt>
      <trkpt lat="43.09954" lon="-0.13767">
        <ele>357.15</ele>
        <time>2021-08-13T08:16:29.000Z</time>
      </trkpt>
      <trkpt lat="43.09951" lon="-0.13796">
        <ele>357.14</ele>
        <time>2021-08-13T08:16:34.000Z</time>
      </trkpt>
      <trkpt lat="43.09949" lon="-0.1382">
        <ele>357.12</ele>
        <time>2021-08-13T08:16:39.000Z</time>
      </trkpt>
      <trkpt lat="43.09961" lon="-0.13833">
        <ele>357.09</ele>
        <time>2021-08-13T08:16:44.000Z</time>
      </trkpt>
      <trkpt lat="43.0998" lon="-0.13837">
        <ele>357.07</ele>
        <time>2021-08-13T08:16:49.000Z</time>
      </trkpt>
      <trkpt lat="43.09997" lon="-0.13838">
        <ele>357.01</ele>
        <time>2021-08-13T08:16:54.000Z</time>
      </trkpt>
      <trkpt lat="43.10013" lon="-0.13843">
        <ele>357</ele>
        <time>2021-08-13T08:16:59.000Z</time>
      </trkpt>
      <trkpt lat="43.10026" lon="-0.13854">
        <ele>357</ele>
        <time>2021-08-13T08:17:04.000Z</time>
      </trkpt>
      <trkpt lat="43.1003" lon="-0.13874">
        <ele>357</ele>
        <time>2021-08-13T08:17:09.000Z</time>
      </trkpt>
      <trkpt lat="43.10027" lon="-0.13895">
        <ele>357</ele>
        <time>2021-08-13T08:17:14.000Z</time>
      </trkpt>
      <trkpt lat="43.10026" lon="-0.13919">
        <ele>356.98</ele>
        <time>2021-08-13T08:17:19.000Z</time>
      </trkpt>
      <trkpt lat="43.10026" lon="-0.13943">
        <ele>356.96</ele>
        <time>2021-08-13T08:17:24.000Z</time>
      </trkpt>
      <trkpt lat="43.10026" lon="-0.13967">
        <ele>356.94</ele>
        <time>2021-08-13T08:17:29.000Z</time>
      </trkpt>
      <trkpt lat="43.10028" lon="-0.13996">
        <ele>356.7</ele>
        <time>2021-08-13T08:17:34.000Z</time>
      </trkpt>
      <trkpt lat="43.10029" lon="-0.14032">
        <ele>356.48</ele>
        <time>2021-08-13T08:17:39.000Z</time>
      </trkpt>
      <trkpt lat="43.10037" lon="-0.14063">
        <ele>356.32</ele>
        <time>2021-08-13T08:17:44.000Z</time>
      </trkpt>
      <trkpt lat="43.10052" lon="-0.14074">
        <ele>356.3</ele>
        <time>2021-08-13T08:17:49.000Z</time>
      </trkpt>
      <trkpt lat="43.10061" lon="-0.14094">
        <ele>356.27</ele>
        <time>2021-08-13T08:17:54.000Z</time>
      </trkpt>
      <trkpt lat="43.1006" lon="-0.1412">
        <ele>356.11</ele>
        <time>2021-08-13T08:17:59.000Z</time>
      </trkpt>
      <trkpt lat="43.10059" lon="-0.14149">
        <ele>356.03</ele>
        <time>2021-08-13T08:18:04.000Z</time>
      </trkpt>
      <trkpt lat="43.10058" lon="-0.14169">
        <ele>355.98</ele>
        <time>2021-08-13T08:18:09.000Z</time>
      </trkpt>
      <trkpt lat="43.10069" lon="-0.14178">
        <ele>355.96</ele>
        <time>2021-08-13T08:18:14.000Z</time>
      </trkpt>
      <trkpt lat="43.10089" lon="-0.14186">
        <ele>355.88</ele>
        <time>2021-08-13T08:18:19.000Z</time>
      </trkpt>
      <trkpt lat="43.10109" lon="-0.14187">
        <ele>355.86</ele>
        <time>2021-08-13T08:18:24.000Z</time>
      </trkpt>
      <trkpt lat="43.10133" lon="-0.1419">
        <ele>355.8</ele>
        <time>2021-08-13T08:18:29.000Z</time>
      </trkpt>
      <trkpt lat="43.10159" lon="-0.14208">
        <ele>355.72</ele>
        <time>2021-08-13T08:18:34.000Z</time>
      </trkpt>
      <trkpt lat="43.1019" lon="-0.14239">
        <ele>355.3</ele>
        <time>2021-08-13T08:18:39.000Z</time>
      </trkpt>
      <trkpt lat="43.10228" lon="-0.14287">
        <ele>354.59</ele>
        <time>2021-08-13T08:18:44.000Z</time>
      </trkpt>
      <trkpt lat="43.10255" lon="-0.14322">
        <ele>353.76</ele>
        <time>2021-08-13T08:18:49.000Z</time>
      </trkpt>
      <trkpt lat="43.10273" lon="-0.14344">
        <ele>353.01</ele>
        <time>2021-08-13T08:18:54.000Z</time>
      </trkpt>
      <trkpt lat="43.1029" lon="-0.14378">
        <ele>352.19</ele>
        <time>2021-08-13T08:18:59.000Z</time>
      </trkpt>
      <trkpt lat="43.10306" lon="-0.14414">
        <ele>351.54</ele>
        <time>2021-08-13T08:19:04.000Z</time>
      </trkpt>
      <trkpt lat="43.10321" lon="-0.14411">
        <ele>351.36</ele>
        <time>2021-08-13T08:19:09.000Z</time>
      </trkpt>
      <trkpt lat="43.10328" lon="-0.14402">
        <ele>351.27</ele>
        <time>2021-08-13T08:19:14.000Z</time>
      </trkpt>
      <trkpt lat="43.10335" lon="-0.14391">
        <ele>351.18</ele>
        <time>2021-08-13T08:19:20.000Z</time>
      </trkpt>
      <trkpt lat="43.10342" lon="-0.14382">
        <ele>351.13</ele>
        <time>2021-08-13T08:19:25.000Z</time>
      </trkpt>
      <trkpt lat="43.10347" lon="-0.1437">
        <ele>351.23</ele>
        <time>2021-08-13T08:19:31.000Z</time>
      </trkpt>
      <trkpt lat="43.10351" lon="-0.14357">
        <ele>351.48</ele>
        <time>2021-08-13T08:19:38.000Z</time>
      </trkpt>
      <trkpt lat="43.10358" lon="-0.14346">
        <ele>351.62</ele>
        <time>2021-08-13T08:19:44.000Z</time>
      </trkpt>
      <trkpt lat="43.10363" lon="-0.14334">
        <ele>351.66</ele>
        <time>2021-08-13T08:19:50.000Z</time>
      </trkpt>
      <trkpt lat="43.10371" lon="-0.14327">
        <ele>351.66</ele>
        <time>2021-08-13T08:19:55.000Z</time>
      </trkpt>
      <trkpt lat="43.10382" lon="-0.1433">
        <ele>351.79</ele>
        <time>2021-08-13T08:20:08.000Z</time>
      </trkpt>
      <trkpt lat="43.10376" lon="-0.14342">
        <ele>351.84</ele>
        <time>2021-08-13T08:20:14.000Z</time>
      </trkpt>
      <trkpt lat="43.10369" lon="-0.14356">
        <ele>351.85</ele>
        <time>2021-08-13T08:20:19.000Z</time>
      </trkpt>
      <trkpt lat="43.10362" lon="-0.14369">
        <ele>351.85</ele>
        <time>2021-08-13T08:20:24.000Z</time>
      </trkpt>
      <trkpt lat="43.10357" lon="-0.14382">
        <ele>351.84</ele>
        <time>2021-08-13T08:20:29.000Z</time>
      </trkpt>
      <trkpt lat="43.1035" lon="-0.14395">
        <ele>351.8</ele>
        <time>2021-08-13T08:20:34.000Z</time>
      </trkpt>
      <trkpt lat="43.10343" lon="-0.14409">
        <ele>351.76</ele>
        <time>2021-08-13T08:20:39.000Z</time>
      </trkpt>
      <trkpt lat="43.10335" lon="-0.14423">
        <ele>351.7</ele>
        <time>2021-08-13T08:20:44.000Z</time>
      </trkpt>
      <trkpt lat="43.10328" lon="-0.14437">
        <ele>351.64</ele>
        <time>2021-08-13T08:20:49.000Z</time>
      </trkpt>
      <trkpt lat="43.1032" lon="-0.1445">
        <ele>351.59</ele>
        <time>2021-08-13T08:20:54.000Z</time>
      </trkpt>
      <trkpt lat="43.10313" lon="-0.14463">
        <ele>351.57</ele>
        <time>2021-08-13T08:20:59.000Z</time>
      </trkpt>
      <trkpt lat="43.10306" lon="-0.14476">
        <ele>351.57</ele>
        <time>2021-08-13T08:21:04.000Z</time>
      </trkpt>
      <trkpt lat="43.10297" lon="-0.14489">
        <ele>351.59</ele>
        <time>2021-08-13T08:21:09.000Z</time>
      </trkpt>
      <trkpt lat="43.10289" lon="-0.14502">
        <ele>351.61</ele>
        <time>2021-08-13T08:21:14.000Z</time>
      </trkpt>
      <trkpt lat="43.1028" lon="-0.14516">
        <ele>351.64</ele>
        <time>2021-08-13T08:21:19.000Z</time>
      </trkpt>
      <trkpt lat="43.1027" lon="-0.14532">
        <ele>351.67</ele>
        <time>2021-08-13T08:21:24.000Z</time>
      </trkpt>
      <trkpt lat="43.10259" lon="-0.14547">
        <ele>351.69</ele>
        <time>2021-08-13T08:21:29.000Z</time>
      </trkpt>
      <trkpt lat="43.10246" lon="-0.14567">
        <ele>351.78</ele>
        <time>2021-08-13T08:21:34.000Z</time>
      </trkpt>
      <trkpt lat="43.10233" lon="-0.14588">
        <ele>351.89</ele>
        <time>2021-08-13T08:21:39.000Z</time>
      </trkpt>
      <trkpt lat="43.10221" lon="-0.14611">
        <ele>351.89</ele>
        <time>2021-08-13T08:21:44.000Z</time>
      </trkpt>
      <trkpt lat="43.10209" lon="-0.14638">
        <ele>351.82</ele>
        <time>2021-08-13T08:21:49.000Z</time>
      </trkpt>
      <trkpt lat="43.10198" lon="-0.14666">
        <ele>351.66</ele>
        <time>2021-08-13T08:21:54.000Z</time>
      </trkpt>
      <trkpt lat="43.10187" lon="-0.147">
        <ele>351.56</ele>
        <time>2021-08-13T08:21:59.000Z</time>
      </trkpt>
      <trkpt lat="43.10178" lon="-0.14736">
        <ele>351.53</ele>
        <time>2021-08-13T08:22:04.000Z</time>
      </trkpt>
      <trkpt lat="43.1017" lon="-0.14772">
        <ele>351.5</ele>
        <time>2021-08-13T08:22:09.000Z</time>
      </trkpt>
      <trkpt lat="43.10165" lon="-0.14807">
        <ele>351.39</ele>
        <time>2021-08-13T08:22:14.000Z</time>
      </trkpt>
      <trkpt lat="43.10158" lon="-0.14844">
        <ele>351.2</ele>
        <time>2021-08-13T08:22:19.000Z</time>
      </trkpt>
      <trkpt lat="43.10151" lon="-0.14883">
        <ele>350.99</ele>
        <time>2021-08-13T08:22:24.000Z</time>
      </trkpt>
      <trkpt lat="43.10142" lon="-0.14926">
        <ele>350.78</ele>
        <time>2021-08-13T08:22:29.000Z</time>
      </trkpt>
      <trkpt lat="43.10134" lon="-0.14969">
        <ele>350.62</ele>
        <time>2021-08-13T08:22:34.000Z</time>
      </trkpt>
      <trkpt lat="43.10127" lon="-0.15009">
        <ele>350.55</ele>
        <time>2021-08-13T08:22:39.000Z</time>
      </trkpt>
      <trkpt lat="43.1012" lon="-0.15047">
        <ele>350.52</ele>
        <time>2021-08-13T08:22:44.000Z</time>
      </trkpt>
      <trkpt lat="43.10114" lon="-0.15085">
        <ele>350.27</ele>
        <time>2021-08-13T08:22:49.000Z</time>
      </trkpt>
      <trkpt lat="43.10108" lon="-0.15122">
        <ele>350.2</ele>
        <time>2021-08-13T08:22:54.000Z</time>
      </trkpt>
      <trkpt lat="43.10103" lon="-0.15155">
        <ele>350.27</ele>
        <time>2021-08-13T08:22:59.000Z</time>
      </trkpt>
      <trkpt lat="43.10096" lon="-0.15192">
        <ele>350.3</ele>
        <time>2021-08-13T08:23:04.000Z</time>
      </trkpt>
      <trkpt lat="43.1009" lon="-0.15224">
        <ele>350.56</ele>
        <time>2021-08-13T08:23:09.000Z</time>
      </trkpt>
      <trkpt lat="43.10084" lon="-0.15253">
        <ele>351.19</ele>
        <time>2021-08-13T08:23:14.000Z</time>
      </trkpt>
      <trkpt lat="43.10079" lon="-0.15278">
        <ele>351.39</ele>
        <time>2021-08-13T08:23:19.000Z</time>
      </trkpt>
      <trkpt lat="43.10076" lon="-0.15299">
        <ele>351.51</ele>
        <time>2021-08-13T08:23:24.000Z</time>
      </trkpt>
      <trkpt lat="43.10073" lon="-0.15322">
        <ele>351.67</ele>
        <time>2021-08-13T08:23:29.000Z</time>
      </trkpt>
      <trkpt lat="43.10074" lon="-0.15349">
        <ele>352.57</ele>
        <time>2021-08-13T08:23:34.000Z</time>
      </trkpt>
      <trkpt lat="43.10078" lon="-0.15377">
        <ele>353.19</ele>
        <time>2021-08-13T08:23:39.000Z</time>
      </trkpt>
      <trkpt lat="43.10083" lon="-0.15411">
        <ele>353.04</ele>
        <time>2021-08-13T08:23:44.000Z</time>
      </trkpt>
      <trkpt lat="43.10089" lon="-0.15447">
        <ele>352.78</ele>
        <time>2021-08-13T08:23:49.000Z</time>
      </trkpt>
      <trkpt lat="43.10095" lon="-0.15481">
        <ele>352.61</ele>
        <time>2021-08-13T08:23:54.000Z</time>
      </trkpt>
      <trkpt lat="43.101" lon="-0.15519">
        <ele>352.61</ele>
        <time>2021-08-13T08:23:59.000Z</time>
      </trkpt>
      <trkpt lat="43.10109" lon="-0.15559">
        <ele>352.61</ele>
        <time>2021-08-13T08:24:04.000Z</time>
      </trkpt>
      <trkpt lat="43.10118" lon="-0.15604">
        <ele>352.4</ele>
        <time>2021-08-13T08:24:09.000Z</time>
      </trkpt>
      <trkpt lat="43.10128" lon="-0.15646">
        <ele>352.23</ele>
        <time>2021-08-13T08:24:14.000Z</time>
      </trkpt>
      <trkpt lat="43.10136" lon="-0.15687">
        <ele>352.12</ele>
        <time>2021-08-13T08:24:19.000Z</time>
      </trkpt>
      <trkpt lat="43.10144" lon="-0.1572">
        <ele>352.06</ele>
        <time>2021-08-13T08:24:24.000Z</time>
      </trkpt>
      <trkpt lat="43.10153" lon="-0.15747">
        <ele>351.98</ele>
        <time>2021-08-13T08:24:29.000Z</time>
      </trkpt>
      <trkpt lat="43.10166" lon="-0.15767">
        <ele>351.96</ele>
        <time>2021-08-13T08:24:34.000Z</time>
      </trkpt>
      <trkpt lat="43.10178" lon="-0.15783">
        <ele>351.95</ele>
        <time>2021-08-13T08:24:39.000Z</time>
      </trkpt>
      <trkpt lat="43.1019" lon="-0.15799">
        <ele>351.94</ele>
        <time>2021-08-13T08:24:44.000Z</time>
      </trkpt>
      <trkpt lat="43.10203" lon="-0.15818">
        <ele>351.8</ele>
        <time>2021-08-13T08:24:49.000Z</time>
      </trkpt>
      <trkpt lat="43.10217" lon="-0.15838">
        <ele>351.69</ele>
        <time>2021-08-13T08:24:54.000Z</time>
      </trkpt>
      <trkpt lat="43.10232" lon="-0.15859">
        <ele>351.75</ele>
        <time>2021-08-13T08:24:59.000Z</time>
      </trkpt>
      <trkpt lat="43.10248" lon="-0.15875">
        <ele>351.78</ele>
        <time>2021-08-13T08:25:04.000Z</time>
      </trkpt>
      <trkpt lat="43.10267" lon="-0.15893">
        <ele>351.9</ele>
        <time>2021-08-13T08:25:09.000Z</time>
      </trkpt>
      <trkpt lat="43.10286" lon="-0.15908">
        <ele>351.99</ele>
        <time>2021-08-13T08:25:14.000Z</time>
      </trkpt>
      <trkpt lat="43.10307" lon="-0.15913">
        <ele>351.98</ele>
        <time>2021-08-13T08:25:19.000Z</time>
      </trkpt>
      <trkpt lat="43.10326" lon="-0.15913">
        <ele>351.97</ele>
        <time>2021-08-13T08:25:24.000Z</time>
      </trkpt>
      <trkpt lat="43.10342" lon="-0.15916">
        <ele>351.97</ele>
        <time>2021-08-13T08:25:29.000Z</time>
      </trkpt>
      <trkpt lat="43.10347" lon="-0.15936">
        <ele>351.99</ele>
        <time>2021-08-13T08:25:34.000Z</time>
      </trkpt>
      <trkpt lat="43.10356" lon="-0.15961">
        <ele>351.96</ele>
        <time>2021-08-13T08:25:39.000Z</time>
      </trkpt>
      <trkpt lat="43.1036" lon="-0.15987">
        <ele>351.93</ele>
        <time>2021-08-13T08:25:44.000Z</time>
      </trkpt>
      <trkpt lat="43.10367" lon="-0.16022">
        <ele>351.85</ele>
        <time>2021-08-13T08:25:49.000Z</time>
      </trkpt>
      <trkpt lat="43.10375" lon="-0.16062">
        <ele>351.81</ele>
        <time>2021-08-13T08:25:54.000Z</time>
      </trkpt>
      <trkpt lat="43.10373" lon="-0.16101">
        <ele>351.95</ele>
        <time>2021-08-13T08:25:59.000Z</time>
      </trkpt>
      <trkpt lat="43.10364" lon="-0.16142">
        <ele>352.04</ele>
        <time>2021-08-13T08:26:04.000Z</time>
      </trkpt>
      <trkpt lat="43.10349" lon="-0.16178">
        <ele>351.72</ele>
        <time>2021-08-13T08:26:09.000Z</time>
      </trkpt>
      <trkpt lat="43.10336" lon="-0.16221">
        <ele>351.16</ele>
        <time>2021-08-13T08:26:14.000Z</time>
      </trkpt>
      <trkpt lat="43.10321" lon="-0.16266">
        <ele>350.41</ele>
        <time>2021-08-13T08:26:19.000Z</time>
      </trkpt>
      <trkpt lat="43.10306" lon="-0.16311">
        <ele>349.93</ele>
        <time>2021-08-13T08:26:24.000Z</time>
      </trkpt>
      <trkpt lat="43.10299" lon="-0.16357">
        <ele>348.85</ele>
        <time>2021-08-13T08:26:29.000Z</time>
      </trkpt>
      <trkpt lat="43.10293" lon="-0.16399">
        <ele>348.72</ele>
        <time>2021-08-13T08:26:34.000Z</time>
      </trkpt>
      <trkpt lat="43.10291" lon="-0.16438">
        <ele>347.77</ele>
        <time>2021-08-13T08:26:39.000Z</time>
      </trkpt>
      <trkpt lat="43.10288" lon="-0.16477">
        <ele>346.76</ele>
        <time>2021-08-13T08:26:44.000Z</time>
      </trkpt>
      <trkpt lat="43.10284" lon="-0.16518">
        <ele>345.41</ele>
        <time>2021-08-13T08:26:49.000Z</time>
      </trkpt>
      <trkpt lat="43.10276" lon="-0.16557">
        <ele>344.71</ele>
        <time>2021-08-13T08:26:54.000Z</time>
      </trkpt>
      <trkpt lat="43.10269" lon="-0.16591">
        <ele>344.46</ele>
        <time>2021-08-13T08:26:59.000Z</time>
      </trkpt>
      <trkpt lat="43.10259" lon="-0.16617">
        <ele>344.06</ele>
        <time>2021-08-13T08:27:04.000Z</time>
      </trkpt>
      <trkpt lat="43.10255" lon="-0.1663">
        <ele>343.94</ele>
        <time>2021-08-13T08:27:34.999Z</time>
      </trkpt>
      <trkpt lat="43.10254" lon="-0.16643">
        <ele>343.73</ele>
        <time>2021-08-13T08:27:40.999Z</time>
      </trkpt>
      <trkpt lat="43.10252" lon="-0.16656">
        <ele>343.46</ele>
        <time>2021-08-13T08:27:46.999Z</time>
      </trkpt>
      <trkpt lat="43.10254" lon="-0.16668">
        <ele>343.09</ele>
        <time>2021-08-13T08:27:55.999Z</time>
      </trkpt>
      <trkpt lat="43.10251" lon="-0.16687">
        <ele>342.88</ele>
        <time>2021-08-13T08:28:00.999Z</time>
      </trkpt>
      <trkpt lat="43.10246" lon="-0.16675">
        <ele>341.68</ele>
        <time>2021-08-13T08:28:08.999Z</time>
      </trkpt>
      <trkpt lat="43.10245" lon="-0.16638">
        <ele>340.16</ele>
        <time>2021-08-13T08:28:13.999Z</time>
      </trkpt>
      <trkpt lat="43.10228" lon="-0.16609">
        <ele>339.4</ele>
        <time>2021-08-13T08:28:18.999Z</time>
      </trkpt>
      <trkpt lat="43.10205" lon="-0.16597">
        <ele>338.79</ele>
        <time>2021-08-13T08:28:23.999Z</time>
      </trkpt>
      <trkpt lat="43.10182" lon="-0.16585">
        <ele>338.09</ele>
        <time>2021-08-13T08:28:28.999Z</time>
      </trkpt>
      <trkpt lat="43.1015" lon="-0.16571">
        <ele>337.18</ele>
        <time>2021-08-13T08:28:33.999Z</time>
      </trkpt>
      <trkpt lat="43.1013" lon="-0.16561">
        <ele>336.79</ele>
        <time>2021-08-13T08:28:38.999Z</time>
      </trkpt>
      <trkpt lat="43.10117" lon="-0.16568">
        <ele>336.7</ele>
        <time>2021-08-13T08:28:43.999Z</time>
      </trkpt>
      <trkpt lat="43.10103" lon="-0.16585">
        <ele>336.63</ele>
        <time>2021-08-13T08:28:48.999Z</time>
      </trkpt>
      <trkpt lat="43.10093" lon="-0.16613">
        <ele>336.54</ele>
        <time>2021-08-13T08:28:53.999Z</time>
      </trkpt>
      <trkpt lat="43.10088" lon="-0.16638">
        <ele>336.46</ele>
        <time>2021-08-13T08:28:58.999Z</time>
      </trkpt>
      <trkpt lat="43.10082" lon="-0.16665">
        <ele>335.88</ele>
        <time>2021-08-13T08:29:03.999Z</time>
      </trkpt>
      <trkpt lat="43.10076" lon="-0.16693">
        <ele>335.31</ele>
        <time>2021-08-13T08:29:08.999Z</time>
      </trkpt>
      <trkpt lat="43.10067" lon="-0.16726">
        <ele>334.99</ele>
        <time>2021-08-13T08:29:13.999Z</time>
      </trkpt>
      <trkpt lat="43.10057" lon="-0.16758">
        <ele>334.81</ele>
        <time>2021-08-13T08:29:18.999Z</time>
      </trkpt>
      <trkpt lat="43.10047" lon="-0.16789">
        <ele>334.61</ele>
        <time>2021-08-13T08:29:23.999Z</time>
      </trkpt>
      <trkpt lat="43.10037" lon="-0.16821">
        <ele>334.5</ele>
        <time>2021-08-13T08:29:28.999Z</time>
      </trkpt>
      <trkpt lat="43.10026" lon="-0.16853">
        <ele>334.41</ele>
        <time>2021-08-13T08:29:33.999Z</time>
      </trkpt>
      <trkpt lat="43.10011" lon="-0.16885">
        <ele>334.32</ele>
        <time>2021-08-13T08:29:38.999Z</time>
      </trkpt>
      <trkpt lat="43.09992" lon="-0.16917">
        <ele>334.19</ele>
        <time>2021-08-13T08:29:43.999Z</time>
      </trkpt>
      <trkpt lat="43.09973" lon="-0.1695">
        <ele>333.97</ele>
        <time>2021-08-13T08:29:48.999Z</time>
      </trkpt>
      <trkpt lat="43.09958" lon="-0.16986">
        <ele>333.55</ele>
        <time>2021-08-13T08:29:53.999Z</time>
      </trkpt>
      <trkpt lat="43.09948" lon="-0.17025">
        <ele>333.13</ele>
        <time>2021-08-13T08:29:58.999Z</time>
      </trkpt>
      <trkpt lat="43.09944" lon="-0.17066">
        <ele>332.71</ele>
        <time>2021-08-13T08:30:03.999Z</time>
      </trkpt>
      <trkpt lat="43.09939" lon="-0.17108">
        <ele>332.27</ele>
        <time>2021-08-13T08:30:08.999Z</time>
      </trkpt>
      <trkpt lat="43.09935" lon="-0.17148">
        <ele>331.85</ele>
        <time>2021-08-13T08:30:13.999Z</time>
      </trkpt>
      <trkpt lat="43.09931" lon="-0.17188">
        <ele>331.45</ele>
        <time>2021-08-13T08:30:18.999Z</time>
      </trkpt>
      <trkpt lat="43.09928" lon="-0.17228">
        <ele>330.98</ele>
        <time>2021-08-13T08:30:23.999Z</time>
      </trkpt>
      <trkpt lat="43.09919" lon="-0.17268">
        <ele>330.45</ele>
        <time>2021-08-13T08:30:28.999Z</time>
      </trkpt>
      <trkpt lat="43.0991" lon="-0.17309">
        <ele>329.89</ele>
        <time>2021-08-13T08:30:33.999Z</time>
      </trkpt>
      <trkpt lat="43.09915" lon="-0.17349">
        <ele>329.23</ele>
        <time>2021-08-13T08:30:38.999Z</time>
      </trkpt>
      <trkpt lat="43.09923" lon="-0.17392">
        <ele>328.72</ele>
        <time>2021-08-13T08:30:43.999Z</time>
      </trkpt>
      <trkpt lat="43.09931" lon="-0.17433">
        <ele>328.58</ele>
        <time>2021-08-13T08:30:48.999Z</time>
      </trkpt>
      <trkpt lat="43.09946" lon="-0.17464">
        <ele>328.69</ele>
        <time>2021-08-13T08:30:53.999Z</time>
      </trkpt>
      <trkpt lat="43.09964" lon="-0.17485">
        <ele>328.75</ele>
        <time>2021-08-13T08:30:58.999Z</time>
      </trkpt>
      <trkpt lat="43.09984" lon="-0.17499">
        <ele>329.24</ele>
        <time>2021-08-13T08:31:03.999Z</time>
      </trkpt>
      <trkpt lat="43.10003" lon="-0.17514">
        <ele>329.15</ele>
        <time>2021-08-13T08:31:08.999Z</time>
      </trkpt>
      <trkpt lat="43.10019" lon="-0.1753">
        <ele>329.28</ele>
        <time>2021-08-13T08:31:13.999Z</time>
      </trkpt>
      <trkpt lat="43.10031" lon="-0.17546">
        <ele>329.26</ele>
        <time>2021-08-13T08:31:18.999Z</time>
      </trkpt>
      <trkpt lat="43.10037" lon="-0.17561">
        <ele>329.22</ele>
        <time>2021-08-13T08:31:23.999Z</time>
      </trkpt>
      <trkpt lat="43.10038" lon="-0.17578">
        <ele>329.16</ele>
        <time>2021-08-13T08:31:28.999Z</time>
      </trkpt>
      <trkpt lat="43.10037" lon="-0.17594">
        <ele>329.08</ele>
        <time>2021-08-13T08:31:33.999Z</time>
      </trkpt>
      <trkpt lat="43.10034" lon="-0.17608">
        <ele>329.01</ele>
        <time>2021-08-13T08:31:38.999Z</time>
      </trkpt>
      <trkpt lat="43.10032" lon="-0.17621">
        <ele>329.01</ele>
        <time>2021-08-13T08:31:43.999Z</time>
      </trkpt>
      <trkpt lat="43.10029" lon="-0.17635">
        <ele>329.03</ele>
        <time>2021-08-13T08:31:48.999Z</time>
      </trkpt>
      <trkpt lat="43.10029" lon="-0.17649">
        <ele>329.07</ele>
        <time>2021-08-13T08:31:54.999Z</time>
      </trkpt>
      <trkpt lat="43.10029" lon="-0.17665">
        <ele>329.09</ele>
        <time>2021-08-13T08:31:59.999Z</time>
      </trkpt>
      <trkpt lat="43.10027" lon="-0.17684">
        <ele>329.11</ele>
        <time>2021-08-13T08:32:04.999Z</time>
      </trkpt>
      <trkpt lat="43.10028" lon="-0.17701">
        <ele>329.18</ele>
        <time>2021-08-13T08:32:09.999Z</time>
      </trkpt>
      <trkpt lat="43.10031" lon="-0.17719">
        <ele>329.25</ele>
        <time>2021-08-13T08:32:14.999Z</time>
      </trkpt>
      <trkpt lat="43.10036" lon="-0.17735">
        <ele>329.34</ele>
        <time>2021-08-13T08:32:19.999Z</time>
      </trkpt>
      <trkpt lat="43.10041" lon="-0.17752">
        <ele>329.38</ele>
        <time>2021-08-13T08:32:24.999Z</time>
      </trkpt>
      <trkpt lat="43.10048" lon="-0.17769">
        <ele>329.33</ele>
        <time>2021-08-13T08:32:29.999Z</time>
      </trkpt>
      <trkpt lat="43.10054" lon="-0.17785">
        <ele>329.28</ele>
        <time>2021-08-13T08:32:34.999Z</time>
      </trkpt>
      <trkpt lat="43.10057" lon="-0.178">
        <ele>329.22</ele>
        <time>2021-08-13T08:32:39.999Z</time>
      </trkpt>
      <trkpt lat="43.1006" lon="-0.17816">
        <ele>329.14</ele>
        <time>2021-08-13T08:32:44.999Z</time>
      </trkpt>
      <trkpt lat="43.10062" lon="-0.17833">
        <ele>329.06</ele>
        <time>2021-08-13T08:32:49.999Z</time>
      </trkpt>
      <trkpt lat="43.10064" lon="-0.17851">
        <ele>328.98</ele>
        <time>2021-08-13T08:32:54.999Z</time>
      </trkpt>
      <trkpt lat="43.10066" lon="-0.17875">
        <ele>328.93</ele>
        <time>2021-08-13T08:32:59.999Z</time>
      </trkpt>
      <trkpt lat="43.10069" lon="-0.17893">
        <ele>328.91</ele>
        <time>2021-08-13T08:33:04.999Z</time>
      </trkpt>
      <trkpt lat="43.10073" lon="-0.17908">
        <ele>328.92</ele>
        <time>2021-08-13T08:33:09.999Z</time>
      </trkpt>
      <trkpt lat="43.10081" lon="-0.17921">
        <ele>328.94</ele>
        <time>2021-08-13T08:33:14.999Z</time>
      </trkpt>
      <trkpt lat="43.10089" lon="-0.17938">
        <ele>328.96</ele>
        <time>2021-08-13T08:33:19.999Z</time>
      </trkpt>
      <trkpt lat="43.10099" lon="-0.17958">
        <ele>328.98</ele>
        <time>2021-08-13T08:33:24.999Z</time>
      </trkpt>
      <trkpt lat="43.1011" lon="-0.17983">
        <ele>329.05</ele>
        <time>2021-08-13T08:33:29.999Z</time>
      </trkpt>
      <trkpt lat="43.10129" lon="-0.18026">
        <ele>329.17</ele>
        <time>2021-08-13T08:33:34.999Z</time>
      </trkpt>
      <trkpt lat="43.10161" lon="-0.18071">
        <ele>329.02</ele>
        <time>2021-08-13T08:33:39.999Z</time>
      </trkpt>
      <trkpt lat="43.10196" lon="-0.18109">
        <ele>328.85</ele>
        <time>2021-08-13T08:33:44.999Z</time>
      </trkpt>
      <trkpt lat="43.10221" lon="-0.1815">
        <ele>328.03</ele>
        <time>2021-08-13T08:33:49.999Z</time>
      </trkpt>
      <trkpt lat="43.10236" lon="-0.18196">
        <ele>327.17</ele>
        <time>2021-08-13T08:33:54.999Z</time>
      </trkpt>
      <trkpt lat="43.10244" lon="-0.18246">
        <ele>326.7</ele>
        <time>2021-08-13T08:33:59.999Z</time>
      </trkpt>
      <trkpt lat="43.10245" lon="-0.18297">
        <ele>326.51</ele>
        <time>2021-08-13T08:34:04.999Z</time>
      </trkpt>
      <trkpt lat="43.10243" lon="-0.18348">
        <ele>326.03</ele>
        <time>2021-08-13T08:34:09.999Z</time>
      </trkpt>
      <trkpt lat="43.10244" lon="-0.18395">
        <ele>325.41</ele>
        <time>2021-08-13T08:34:14.999Z</time>
      </trkpt>
      <trkpt lat="43.10243" lon="-0.18435">
        <ele>324.98</ele>
        <time>2021-08-13T08:34:19.999Z</time>
      </trkpt>
      <trkpt lat="43.10242" lon="-0.18469">
        <ele>324.41</ele>
        <time>2021-08-13T08:34:24.999Z</time>
      </trkpt>
      <trkpt lat="43.10236" lon="-0.18502">
        <ele>323.51</ele>
        <time>2021-08-13T08:34:29.999Z</time>
      </trkpt>
      <trkpt lat="43.1023" lon="-0.18537">
        <ele>322.17</ele>
        <time>2021-08-13T08:34:34.999Z</time>
      </trkpt>
      <trkpt lat="43.10225" lon="-0.18573">
        <ele>321</ele>
        <time>2021-08-13T08:34:39.999Z</time>
      </trkpt>
      <trkpt lat="43.10226" lon="-0.18609">
        <ele>320.4</ele>
        <time>2021-08-13T08:34:44.999Z</time>
      </trkpt>
      <trkpt lat="43.10235" lon="-0.18646">
        <ele>320.26</ele>
        <time>2021-08-13T08:34:49.999Z</time>
      </trkpt>
      <trkpt lat="43.10246" lon="-0.18682">
        <ele>320</ele>
        <time>2021-08-13T08:34:54.999Z</time>
      </trkpt>
      <trkpt lat="43.10257" lon="-0.18718">
        <ele>319.65</ele>
        <time>2021-08-13T08:34:59.999Z</time>
      </trkpt>
      <trkpt lat="43.10271" lon="-0.18751">
        <ele>319.44</ele>
        <time>2021-08-13T08:35:04.999Z</time>
      </trkpt>
      <trkpt lat="43.10285" lon="-0.1878">
        <ele>319.24</ele>
        <time>2021-08-13T08:35:09.999Z</time>
      </trkpt>
      <trkpt lat="43.10299" lon="-0.18807">
        <ele>319.04</ele>
        <time>2021-08-13T08:35:14.999Z</time>
      </trkpt>
      <trkpt lat="43.10314" lon="-0.18833">
        <ele>318.88</ele>
        <time>2021-08-13T08:35:19.999Z</time>
      </trkpt>
      <trkpt lat="43.10329" lon="-0.18858">
        <ele>318.67</ele>
        <time>2021-08-13T08:35:24.999Z</time>
      </trkpt>
      <trkpt lat="43.10345" lon="-0.18887">
        <ele>318.48</ele>
        <time>2021-08-13T08:35:29.999Z</time>
      </trkpt>
      <trkpt lat="43.10369" lon="-0.18909">
        <ele>318.26</ele>
        <time>2021-08-13T08:35:34.999Z</time>
      </trkpt>
      <trkpt lat="43.10391" lon="-0.18932">
        <ele>318.14</ele>
        <time>2021-08-13T08:35:39.999Z</time>
      </trkpt>
      <trkpt lat="43.10409" lon="-0.18955">
        <ele>318.03</ele>
        <time>2021-08-13T08:35:44.999Z</time>
      </trkpt>
      <trkpt lat="43.1042" lon="-0.18977">
        <ele>317.99</ele>
        <time>2021-08-13T08:35:49.999Z</time>
      </trkpt>
      <trkpt lat="43.10426" lon="-0.19003">
        <ele>317.81</ele>
        <time>2021-08-13T08:35:54.999Z</time>
      </trkpt>
      <trkpt lat="43.10436" lon="-0.19033">
        <ele>317.67</ele>
        <time>2021-08-13T08:35:59.999Z</time>
      </trkpt>
      <trkpt lat="43.10449" lon="-0.19059">
        <ele>317.49</ele>
        <time>2021-08-13T08:36:04.999Z</time>
      </trkpt>
      <trkpt lat="43.10465" lon="-0.19086">
        <ele>317.34</ele>
        <time>2021-08-13T08:36:09.999Z</time>
      </trkpt>
      <trkpt lat="43.10476" lon="-0.19113">
        <ele>317.23</ele>
        <time>2021-08-13T08:36:14.999Z</time>
      </trkpt>
      <trkpt lat="43.1048" lon="-0.19138">
        <ele>317.22</ele>
        <time>2021-08-13T08:36:19.999Z</time>
      </trkpt>
      <trkpt lat="43.10481" lon="-0.19157">
        <ele>317.21</ele>
        <time>2021-08-13T08:36:24.999Z</time>
      </trkpt>
      <trkpt lat="43.10484" lon="-0.19175">
        <ele>317.21</ele>
        <time>2021-08-13T08:36:29.999Z</time>
      </trkpt>
      <trkpt lat="43.10498" lon="-0.19192">
        <ele>317.28</ele>
        <time>2021-08-13T08:36:34.999Z</time>
      </trkpt>
      <trkpt lat="43.10517" lon="-0.192">
        <ele>317.43</ele>
        <time>2021-08-13T08:36:39.999Z</time>
      </trkpt>
      <trkpt lat="43.10539" lon="-0.19206">
        <ele>317.88</ele>
        <time>2021-08-13T08:36:44.999Z</time>
      </trkpt>
      <trkpt lat="43.10562" lon="-0.19216">
        <ele>318.09</ele>
        <time>2021-08-13T08:36:49.999Z</time>
      </trkpt>
      <trkpt lat="43.10591" lon="-0.19223">
        <ele>318.36</ele>
        <time>2021-08-13T08:36:54.999Z</time>
      </trkpt>
      <trkpt lat="43.10613" lon="-0.19228">
        <ele>318.48</ele>
        <time>2021-08-13T08:36:59.999Z</time>
      </trkpt>
      <trkpt lat="43.1064" lon="-0.19231">
        <ele>318.55</ele>
        <time>2021-08-13T08:37:04.999Z</time>
      </trkpt>
      <trkpt lat="43.10667" lon="-0.19233">
        <ele>318.49</ele>
        <time>2021-08-13T08:37:09.999Z</time>
      </trkpt>
      <trkpt lat="43.10692" lon="-0.19232">
        <ele>318.44</ele>
        <time>2021-08-13T08:37:14.999Z</time>
      </trkpt>
      <trkpt lat="43.10716" lon="-0.19231">
        <ele>318.47</ele>
        <time>2021-08-13T08:37:19.999Z</time>
      </trkpt>
      <trkpt lat="43.10739" lon="-0.19232">
        <ele>318.53</ele>
        <time>2021-08-13T08:37:24.999Z</time>
      </trkpt>
      <trkpt lat="43.10764" lon="-0.19232">
        <ele>318.62</ele>
        <time>2021-08-13T08:37:29.999Z</time>
      </trkpt>
      <trkpt lat="43.10786" lon="-0.19233">
        <ele>318.74</ele>
        <time>2021-08-13T08:37:34.999Z</time>
      </trkpt>
      <trkpt lat="43.10807" lon="-0.19233">
        <ele>318.88</ele>
        <time>2021-08-13T08:37:39.999Z</time>
      </trkpt>
      <trkpt lat="43.10823" lon="-0.19241">
        <ele>318.92</ele>
        <time>2021-08-13T08:37:44.999Z</time>
      </trkpt>
      <trkpt lat="43.10833" lon="-0.19254">
        <ele>318.97</ele>
        <time>2021-08-13T08:37:49.999Z</time>
      </trkpt>
      <trkpt lat="43.10846" lon="-0.19269">
        <ele>319.01</ele>
        <time>2021-08-13T08:37:54.999Z</time>
      </trkpt>
      <trkpt lat="43.10862" lon="-0.19277">
        <ele>319.06</ele>
        <time>2021-08-13T08:37:59.999Z</time>
      </trkpt>
      <trkpt lat="43.10878" lon="-0.19282">
        <ele>319.12</ele>
        <time>2021-08-13T08:38:04.999Z</time>
      </trkpt>
      <trkpt lat="43.10895" lon="-0.19285">
        <ele>319.18</ele>
        <time>2021-08-13T08:38:09.999Z</time>
      </trkpt>
      <trkpt lat="43.10912" lon="-0.19288">
        <ele>319.23</ele>
        <time>2021-08-13T08:38:14.999Z</time>
      </trkpt>
      <trkpt lat="43.10928" lon="-0.19293">
        <ele>319.27</ele>
        <time>2021-08-13T08:38:19.999Z</time>
      </trkpt>
      <trkpt lat="43.10947" lon="-0.19298">
        <ele>319.3</ele>
        <time>2021-08-13T08:38:25.000Z</time>
      </trkpt>
      <trkpt lat="43.10964" lon="-0.19303">
        <ele>319.33</ele>
        <time>2021-08-13T08:38:30.000Z</time>
      </trkpt>
      <trkpt lat="43.10983" lon="-0.19308">
        <ele>319.39</ele>
        <time>2021-08-13T08:38:35.000Z</time>
      </trkpt>
      <trkpt lat="43.11001" lon="-0.19312">
        <ele>319.48</ele>
        <time>2021-08-13T08:38:40.000Z</time>
      </trkpt>
      <trkpt lat="43.1102" lon="-0.19317">
        <ele>319.52</ele>
        <time>2021-08-13T08:38:45.000Z</time>
      </trkpt>
      <trkpt lat="43.11039" lon="-0.19321">
        <ele>319.52</ele>
        <time>2021-08-13T08:38:50.000Z</time>
      </trkpt>
      <trkpt lat="43.11059" lon="-0.19325">
        <ele>319.5</ele>
        <time>2021-08-13T08:38:55.000Z</time>
      </trkpt>
      <trkpt lat="43.11081" lon="-0.19329">
        <ele>319.47</ele>
        <time>2021-08-13T08:39:00.000Z</time>
      </trkpt>
      <trkpt lat="43.11101" lon="-0.19333">
        <ele>319.43</ele>
        <time>2021-08-13T08:39:05.000Z</time>
      </trkpt>
      <trkpt lat="43.11123" lon="-0.19335">
        <ele>319.36</ele>
        <time>2021-08-13T08:39:10.000Z</time>
      </trkpt>
      <trkpt lat="43.11147" lon="-0.19339">
        <ele>319.28</ele>
        <time>2021-08-13T08:39:15.000Z</time>
      </trkpt>
      <trkpt lat="43.11171" lon="-0.19342">
        <ele>319.19</ele>
        <time>2021-08-13T08:39:20.000Z</time>
      </trkpt>
      <trkpt lat="43.11197" lon="-0.19348">
        <ele>319.1</ele>
        <time>2021-08-13T08:39:25.000Z</time>
      </trkpt>
      <trkpt lat="43.11223" lon="-0.19358">
        <ele>319.02</ele>
        <time>2021-08-13T08:39:30.000Z</time>
      </trkpt>
      <trkpt lat="43.11248" lon="-0.19378">
        <ele>318.94</ele>
        <time>2021-08-13T08:39:35.000Z</time>
      </trkpt>
      <trkpt lat="43.11271" lon="-0.19401">
        <ele>318.85</ele>
        <time>2021-08-13T08:39:40.000Z</time>
      </trkpt>
      <trkpt lat="43.11294" lon="-0.19424">
        <ele>318.73</ele>
        <time>2021-08-13T08:39:45.000Z</time>
      </trkpt>
      <trkpt lat="43.11316" lon="-0.19441">
        <ele>318.61</ele>
        <time>2021-08-13T08:39:50.000Z</time>
      </trkpt>
      <trkpt lat="43.11334" lon="-0.19454">
        <ele>318.5</ele>
        <time>2021-08-13T08:39:55.000Z</time>
      </trkpt>
      <trkpt lat="43.11358" lon="-0.19467">
        <ele>318.47</ele>
        <time>2021-08-13T08:40:00.000Z</time>
      </trkpt>
      <trkpt lat="43.1138" lon="-0.19477">
        <ele>318.43</ele>
        <time>2021-08-13T08:40:05.000Z</time>
      </trkpt>
      <trkpt lat="43.11407" lon="-0.19488">
        <ele>318.36</ele>
        <time>2021-08-13T08:40:10.000Z</time>
      </trkpt>
      <trkpt lat="43.11436" lon="-0.19497">
        <ele>318.31</ele>
        <time>2021-08-13T08:40:15.000Z</time>
      </trkpt>
      <trkpt lat="43.11464" lon="-0.19506">
        <ele>318.22</ele>
        <time>2021-08-13T08:40:20.000Z</time>
      </trkpt>
      <trkpt lat="43.1149" lon="-0.19514">
        <ele>318.11</ele>
        <time>2021-08-13T08:40:25.000Z</time>
      </trkpt>
      <trkpt lat="43.11513" lon="-0.19521">
        <ele>317.97</ele>
        <time>2021-08-13T08:40:30.000Z</time>
      </trkpt>
      <trkpt lat="43.11535" lon="-0.19529">
        <ele>317.87</ele>
        <time>2021-08-13T08:40:35.000Z</time>
      </trkpt>
      <trkpt lat="43.11558" lon="-0.19537">
        <ele>317.77</ele>
        <time>2021-08-13T08:40:40.000Z</time>
      </trkpt>
      <trkpt lat="43.11581" lon="-0.19546">
        <ele>317.69</ele>
        <time>2021-08-13T08:40:45.000Z</time>
      </trkpt>
      <trkpt lat="43.11604" lon="-0.19562">
        <ele>317.6</ele>
        <time>2021-08-13T08:40:50.000Z</time>
      </trkpt>
      <trkpt lat="43.11626" lon="-0.19582">
        <ele>317.49</ele>
        <time>2021-08-13T08:40:55.000Z</time>
      </trkpt>
      <trkpt lat="43.11645" lon="-0.19605">
        <ele>317.35</ele>
        <time>2021-08-13T08:41:00.000Z</time>
      </trkpt>
      <trkpt lat="43.1166" lon="-0.1963">
        <ele>317.2</ele>
        <time>2021-08-13T08:41:05.000Z</time>
      </trkpt>
      <trkpt lat="43.11676" lon="-0.19653">
        <ele>317.04</ele>
        <time>2021-08-13T08:41:10.000Z</time>
      </trkpt>
      <trkpt lat="43.11691" lon="-0.19676">
        <ele>316.89</ele>
        <time>2021-08-13T08:41:15.000Z</time>
      </trkpt>
      <trkpt lat="43.11707" lon="-0.19701">
        <ele>316.73</ele>
        <time>2021-08-13T08:41:20.000Z</time>
      </trkpt>
      <trkpt lat="43.11723" lon="-0.19726">
        <ele>316.59</ele>
        <time>2021-08-13T08:41:25.000Z</time>
      </trkpt>
      <trkpt lat="43.11739" lon="-0.1975">
        <ele>316.46</ele>
        <time>2021-08-13T08:41:30.000Z</time>
      </trkpt>
      <trkpt lat="43.11756" lon="-0.19774">
        <ele>316.34</ele>
        <time>2021-08-13T08:41:35.000Z</time>
      </trkpt>
      <trkpt lat="43.11774" lon="-0.19798">
        <ele>316.22</ele>
        <time>2021-08-13T08:41:40.000Z</time>
      </trkpt>
      <trkpt lat="43.11791" lon="-0.19821">
        <ele>316.08</ele>
        <time>2021-08-13T08:41:45.000Z</time>
      </trkpt>
      <trkpt lat="43.11809" lon="-0.19843">
        <ele>315.94</ele>
        <time>2021-08-13T08:41:50.000Z</time>
      </trkpt>
      <trkpt lat="43.11824" lon="-0.1987">
        <ele>315.79</ele>
        <time>2021-08-13T08:41:55.000Z</time>
      </trkpt>
      <trkpt lat="43.11836" lon="-0.19904">
        <ele>315.64</ele>
        <time>2021-08-13T08:42:00.000Z</time>
      </trkpt>
      <trkpt lat="43.11847" lon="-0.19938">
        <ele>315.53</ele>
        <time>2021-08-13T08:42:05.000Z</time>
      </trkpt>
      <trkpt lat="43.11854" lon="-0.19976">
        <ele>315.42</ele>
        <time>2021-08-13T08:42:10.000Z</time>
      </trkpt>
      <trkpt lat="43.1186" lon="-0.20026">
        <ele>315.24</ele>
        <time>2021-08-13T08:42:15.000Z</time>
      </trkpt>
      <trkpt lat="43.11873" lon="-0.20071">
        <ele>314.73</ele>
        <time>2021-08-13T08:42:20.000Z</time>
      </trkpt>
      <trkpt lat="43.11886" lon="-0.20117">
        <ele>314.19</ele>
        <time>2021-08-13T08:42:25.000Z</time>
      </trkpt>
      <trkpt lat="43.11897" lon="-0.20157">
        <ele>313.79</ele>
        <time>2021-08-13T08:42:30.000Z</time>
      </trkpt>
      <trkpt lat="43.11904" lon="-0.20192">
        <ele>313.84</ele>
        <time>2021-08-13T08:42:35.000Z</time>
      </trkpt>
      <trkpt lat="43.11912" lon="-0.2022">
        <ele>313.8</ele>
        <time>2021-08-13T08:42:40.000Z</time>
      </trkpt>
      <trkpt lat="43.1192" lon="-0.20241">
        <ele>313.74</ele>
        <time>2021-08-13T08:42:45.000Z</time>
      </trkpt>
      <trkpt lat="43.1193" lon="-0.20266">
        <ele>313.46</ele>
        <time>2021-08-13T08:42:50.000Z</time>
      </trkpt>
      <trkpt lat="43.11948" lon="-0.20293">
        <ele>313.12</ele>
        <time>2021-08-13T08:42:55.000Z</time>
      </trkpt>
      <trkpt lat="43.11969" lon="-0.20308">
        <ele>312.52</ele>
        <time>2021-08-13T08:43:00.000Z</time>
      </trkpt>
      <trkpt lat="43.11989" lon="-0.20325">
        <ele>311.97</ele>
        <time>2021-08-13T08:43:05.000Z</time>
      </trkpt>
      <trkpt lat="43.12005" lon="-0.20344">
        <ele>311.6</ele>
        <time>2021-08-13T08:43:10.000Z</time>
      </trkpt>
      <trkpt lat="43.12018" lon="-0.20362">
        <ele>311.45</ele>
        <time>2021-08-13T08:43:15.000Z</time>
      </trkpt>
      <trkpt lat="43.12032" lon="-0.20385">
        <ele>310.97</ele>
        <time>2021-08-13T08:43:20.000Z</time>
      </trkpt>
      <trkpt lat="43.12046" lon="-0.20401">
        <ele>310.87</ele>
        <time>2021-08-13T08:43:25.000Z</time>
      </trkpt>
      <trkpt lat="43.12059" lon="-0.20416">
        <ele>310.8</ele>
        <time>2021-08-13T08:43:30.000Z</time>
      </trkpt>
      <trkpt lat="43.12073" lon="-0.20431">
        <ele>310.7</ele>
        <time>2021-08-13T08:43:35.000Z</time>
      </trkpt>
      <trkpt lat="43.12096" lon="-0.20454">
        <ele>310.21</ele>
        <time>2021-08-13T08:43:40.000Z</time>
      </trkpt>
      <trkpt lat="43.12114" lon="-0.20473">
        <ele>309.71</ele>
        <time>2021-08-13T08:43:45.000Z</time>
      </trkpt>
      <trkpt lat="43.12133" lon="-0.2049">
        <ele>309.48</ele>
        <time>2021-08-13T08:43:50.000Z</time>
      </trkpt>
      <trkpt lat="43.1215" lon="-0.2051">
        <ele>309.4</ele>
        <time>2021-08-13T08:43:55.000Z</time>
      </trkpt>
      <trkpt lat="43.12164" lon="-0.20528">
        <ele>309.3</ele>
        <time>2021-08-13T08:44:00.000Z</time>
      </trkpt>
      <trkpt lat="43.12176" lon="-0.20545">
        <ele>309.29</ele>
        <time>2021-08-13T08:44:05.000Z</time>
      </trkpt>
      <trkpt lat="43.12191" lon="-0.20564">
        <ele>309.13</ele>
        <time>2021-08-13T08:44:10.000Z</time>
      </trkpt>
      <trkpt lat="43.12209" lon="-0.20587">
        <ele>308.98</ele>
        <time>2021-08-13T08:44:15.000Z</time>
      </trkpt>
      <trkpt lat="43.12229" lon="-0.20619">
        <ele>308.69</ele>
        <time>2021-08-13T08:44:20.000Z</time>
      </trkpt>
      <trkpt lat="43.12251" lon="-0.20647">
        <ele>308.33</ele>
        <time>2021-08-13T08:44:25.000Z</time>
      </trkpt>
      <trkpt lat="43.12272" lon="-0.2067">
        <ele>308.03</ele>
        <time>2021-08-13T08:44:30.000Z</time>
      </trkpt>
      <trkpt lat="43.12286" lon="-0.20687">
        <ele>307.96</ele>
        <time>2021-08-13T08:44:35.000Z</time>
      </trkpt>
      <trkpt lat="43.12303" lon="-0.20705">
        <ele>307.83</ele>
        <time>2021-08-13T08:44:40.000Z</time>
      </trkpt>
      <trkpt lat="43.12335" lon="-0.20721">
        <ele>307.73</ele>
        <time>2021-08-13T08:44:45.000Z</time>
      </trkpt>
      <trkpt lat="43.12368" lon="-0.20722">
        <ele>307.5</ele>
        <time>2021-08-13T08:44:50.000Z</time>
      </trkpt>
      <trkpt lat="43.12397" lon="-0.20725">
        <ele>307.32</ele>
        <time>2021-08-13T08:44:55.000Z</time>
      </trkpt>
      <trkpt lat="43.12421" lon="-0.20738">
        <ele>306.88</ele>
        <time>2021-08-13T08:45:00.000Z</time>
      </trkpt>
      <trkpt lat="43.12445" lon="-0.20747">
        <ele>306.11</ele>
        <time>2021-08-13T08:45:05.000Z</time>
      </trkpt>
      <trkpt lat="43.12468" lon="-0.20746">
        <ele>305.6</ele>
        <time>2021-08-13T08:45:10.000Z</time>
      </trkpt>
      <trkpt lat="43.12491" lon="-0.20742">
        <ele>305.24</ele>
        <time>2021-08-13T08:45:15.000Z</time>
      </trkpt>
      <trkpt lat="43.12511" lon="-0.20745">
        <ele>304.58</ele>
        <time>2021-08-13T08:45:20.000Z</time>
      </trkpt>
      <trkpt lat="43.12534" lon="-0.20746">
        <ele>304.66</ele>
        <time>2021-08-13T08:45:25.000Z</time>
      </trkpt>
      <trkpt lat="43.12556" lon="-0.20748">
        <ele>304.79</ele>
        <time>2021-08-13T08:45:30.000Z</time>
      </trkpt>
      <trkpt lat="43.12575" lon="-0.20749">
        <ele>304.73</ele>
        <time>2021-08-13T08:45:35.000Z</time>
      </trkpt>
      <trkpt lat="43.12596" lon="-0.20749">
        <ele>304.88</ele>
        <time>2021-08-13T08:45:40.000Z</time>
      </trkpt>
      <trkpt lat="43.12615" lon="-0.2075">
        <ele>304.98</ele>
        <time>2021-08-13T08:45:45.000Z</time>
      </trkpt>
      <trkpt lat="43.12633" lon="-0.20751">
        <ele>305.11</ele>
        <time>2021-08-13T08:45:50.000Z</time>
      </trkpt>
      <trkpt lat="43.12651" lon="-0.20752">
        <ele>305.18</ele>
        <time>2021-08-13T08:45:55.000Z</time>
      </trkpt>
      <trkpt lat="43.1267" lon="-0.20751">
        <ele>305.26</ele>
        <time>2021-08-13T08:46:00.000Z</time>
      </trkpt>
      <trkpt lat="43.12687" lon="-0.20751">
        <ele>305.29</ele>
        <time>2021-08-13T08:46:05.000Z</time>
      </trkpt>
      <trkpt lat="43.12706" lon="-0.20753">
        <ele>305.3</ele>
        <time>2021-08-13T08:46:10.000Z</time>
      </trkpt>
      <trkpt lat="43.12723" lon="-0.20762">
        <ele>305.23</ele>
        <time>2021-08-13T08:46:15.000Z</time>
      </trkpt>
      <trkpt lat="43.12739" lon="-0.20773">
        <ele>305.15</ele>
        <time>2021-08-13T08:46:20.000Z</time>
      </trkpt>
      <trkpt lat="43.12756" lon="-0.20784">
        <ele>304.94</ele>
        <time>2021-08-13T08:46:25.000Z</time>
      </trkpt>
      <trkpt lat="43.12774" lon="-0.20794">
        <ele>304.87</ele>
        <time>2021-08-13T08:46:30.000Z</time>
      </trkpt>
      <trkpt lat="43.12793" lon="-0.20807">
        <ele>304.65</ele>
        <time>2021-08-13T08:46:35.000Z</time>
      </trkpt>
      <trkpt lat="43.1281" lon="-0.20819">
        <ele>304.5</ele>
        <time>2021-08-13T08:46:40.000Z</time>
      </trkpt>
      <trkpt lat="43.12828" lon="-0.20832">
        <ele>304.32</ele>
        <time>2021-08-13T08:46:45.000Z</time>
      </trkpt>
      <trkpt lat="43.12846" lon="-0.20843">
        <ele>303.98</ele>
        <time>2021-08-13T08:46:50.000Z</time>
      </trkpt>
      <trkpt lat="43.12863" lon="-0.20855">
        <ele>303.66</ele>
        <time>2021-08-13T08:46:55.000Z</time>
      </trkpt>
      <trkpt lat="43.12879" lon="-0.20867">
        <ele>303.46</ele>
        <time>2021-08-13T08:47:00.000Z</time>
      </trkpt>
      <trkpt lat="43.12896" lon="-0.20881">
        <ele>303.19</ele>
        <time>2021-08-13T08:47:05.000Z</time>
      </trkpt>
      <trkpt lat="43.12913" lon="-0.20895">
        <ele>303.06</ele>
        <time>2021-08-13T08:47:10.000Z</time>
      </trkpt>
      <trkpt lat="43.1293" lon="-0.20905">
        <ele>303</ele>
        <time>2021-08-13T08:47:15.000Z</time>
      </trkpt>
      <trkpt lat="43.12946" lon="-0.20916">
        <ele>302.98</ele>
        <time>2021-08-13T08:47:20.000Z</time>
      </trkpt>
      <trkpt lat="43.1296" lon="-0.20929">
        <ele>302.98</ele>
        <time>2021-08-13T08:47:25.000Z</time>
      </trkpt>
      <trkpt lat="43.1297" lon="-0.20943">
        <ele>302.99</ele>
        <time>2021-08-13T08:47:30.000Z</time>
      </trkpt>
      <trkpt lat="43.12963" lon="-0.2096">
        <ele>302.99</ele>
        <time>2021-08-13T08:47:35.000Z</time>
      </trkpt>
      <trkpt lat="43.12952" lon="-0.2098">
        <ele>303</ele>
        <time>2021-08-13T08:47:40.000Z</time>
      </trkpt>
      <trkpt lat="43.12943" lon="-0.21">
        <ele>303.01</ele>
        <time>2021-08-13T08:47:45.000Z</time>
      </trkpt>
      <trkpt lat="43.12936" lon="-0.21018">
        <ele>303.03</ele>
        <time>2021-08-13T08:47:50.000Z</time>
      </trkpt>
      <trkpt lat="43.12949" lon="-0.21031">
        <ele>303.07</ele>
        <time>2021-08-13T08:47:55.000Z</time>
      </trkpt>
      <trkpt lat="43.12966" lon="-0.21045">
        <ele>303.25</ele>
        <time>2021-08-13T08:48:00.000Z</time>
      </trkpt>
      <trkpt lat="43.12983" lon="-0.21062">
        <ele>303.32</ele>
        <time>2021-08-13T08:48:05.000Z</time>
      </trkpt>
      <trkpt lat="43.12997" lon="-0.2108">
        <ele>303.3</ele>
        <time>2021-08-13T08:48:10.000Z</time>
      </trkpt>
      <trkpt lat="43.13012" lon="-0.21098">
        <ele>303.28</ele>
        <time>2021-08-13T08:48:15.000Z</time>
      </trkpt>
      <trkpt lat="43.13027" lon="-0.21111">
        <ele>303.28</ele>
        <time>2021-08-13T08:48:20.000Z</time>
      </trkpt>
      <trkpt lat="43.13036" lon="-0.21121">
        <ele>303.27</ele>
        <time>2021-08-13T08:48:37.000Z</time>
      </trkpt>
      <trkpt lat="43.13051" lon="-0.21136">
        <ele>303.15</ele>
        <time>2021-08-13T08:48:42.000Z</time>
      </trkpt>
      <trkpt lat="43.13071" lon="-0.2116">
        <ele>302.88</ele>
        <time>2021-08-13T08:48:47.000Z</time>
      </trkpt>
      <trkpt lat="43.13094" lon="-0.21187">
        <ele>302.56</ele>
        <time>2021-08-13T08:48:52.000Z</time>
      </trkpt>
      <trkpt lat="43.13111" lon="-0.21201">
        <ele>302.46</ele>
        <time>2021-08-13T08:48:57.000Z</time>
      </trkpt>
      <trkpt lat="43.13118" lon="-0.21225">
        <ele>302.04</ele>
        <time>2021-08-13T08:49:02.000Z</time>
      </trkpt>
      <trkpt lat="43.13123" lon="-0.21253">
        <ele>301.72</ele>
        <time>2021-08-13T08:49:07.000Z</time>
      </trkpt>
      <trkpt lat="43.13127" lon="-0.21284">
        <ele>301.47</ele>
        <time>2021-08-13T08:49:12.000Z</time>
      </trkpt>
      <trkpt lat="43.13128" lon="-0.21313">
        <ele>301.3</ele>
        <time>2021-08-13T08:49:17.000Z</time>
      </trkpt>
      <trkpt lat="43.13126" lon="-0.21343">
        <ele>301.08</ele>
        <time>2021-08-13T08:49:21.999Z</time>
      </trkpt>
      <trkpt lat="43.13125" lon="-0.21379">
        <ele>300.88</ele>
        <time>2021-08-13T08:49:26.999Z</time>
      </trkpt>
      <trkpt lat="43.13128" lon="-0.21413">
        <ele>300.75</ele>
        <time>2021-08-13T08:49:31.999Z</time>
      </trkpt>
      <trkpt lat="43.13132" lon="-0.21448">
        <ele>300.62</ele>
        <time>2021-08-13T08:49:36.999Z</time>
      </trkpt>
      <trkpt lat="43.13141" lon="-0.2148">
        <ele>300.5</ele>
        <time>2021-08-13T08:49:41.999Z</time>
      </trkpt>
      <trkpt lat="43.1315" lon="-0.21515">
        <ele>300.34</ele>
        <time>2021-08-13T08:49:46.999Z</time>
      </trkpt>
      <trkpt lat="43.13149" lon="-0.21559">
        <ele>300.03</ele>
        <time>2021-08-13T08:49:51.999Z</time>
      </trkpt>
      <trkpt lat="43.13142" lon="-0.216">
        <ele>299.72</ele>
        <time>2021-08-13T08:49:56.999Z</time>
      </trkpt>
      <trkpt lat="43.13148" lon="-0.21635">
        <ele>299.32</ele>
        <time>2021-08-13T08:50:01.999Z</time>
      </trkpt>
      <trkpt lat="43.13158" lon="-0.21667">
        <ele>298.97</ele>
        <time>2021-08-13T08:50:06.999Z</time>
      </trkpt>
      <trkpt lat="43.13168" lon="-0.21696">
        <ele>298.72</ele>
        <time>2021-08-13T08:50:11.999Z</time>
      </trkpt>
      <trkpt lat="43.13181" lon="-0.21723">
        <ele>298.4</ele>
        <time>2021-08-13T08:50:16.999Z</time>
      </trkpt>
      <trkpt lat="43.13191" lon="-0.21747">
        <ele>298.45</ele>
        <time>2021-08-13T08:50:21.999Z</time>
      </trkpt>
      <trkpt lat="43.13196" lon="-0.21768">
        <ele>298.53</ele>
        <time>2021-08-13T08:50:26.999Z</time>
      </trkpt>
      <trkpt lat="43.13198" lon="-0.2179">
        <ele>298.63</ele>
        <time>2021-08-13T08:50:31.999Z</time>
      </trkpt>
      <trkpt lat="43.13196" lon="-0.21813">
        <ele>298.71</ele>
        <time>2021-08-13T08:50:36.999Z</time>
      </trkpt>
      <trkpt lat="43.13196" lon="-0.2183">
        <ele>298.78</ele>
        <time>2021-08-13T08:50:41.999Z</time>
      </trkpt>
      <trkpt lat="43.13198" lon="-0.21846">
        <ele>298.83</ele>
        <time>2021-08-13T08:50:46.999Z</time>
      </trkpt>
      <trkpt lat="43.13203" lon="-0.21863">
        <ele>298.9</ele>
        <time>2021-08-13T08:50:51.999Z</time>
      </trkpt>
      <trkpt lat="43.13211" lon="-0.21877">
        <ele>298.95</ele>
        <time>2021-08-13T08:50:56.999Z</time>
      </trkpt>
      <trkpt lat="43.13224" lon="-0.21893">
        <ele>298.95</ele>
        <time>2021-08-13T08:51:01.999Z</time>
      </trkpt>
      <trkpt lat="43.13239" lon="-0.2191">
        <ele>298.65</ele>
        <time>2021-08-13T08:51:06.999Z</time>
      </trkpt>
      <trkpt lat="43.13255" lon="-0.21927">
        <ele>298.35</ele>
        <time>2021-08-13T08:51:11.999Z</time>
      </trkpt>
      <trkpt lat="43.13267" lon="-0.21944">
        <ele>298.3</ele>
        <time>2021-08-13T08:51:16.999Z</time>
      </trkpt>
      <trkpt lat="43.13281" lon="-0.21964">
        <ele>297.86</ele>
        <time>2021-08-13T08:51:21.999Z</time>
      </trkpt>
      <trkpt lat="43.13298" lon="-0.21976">
        <ele>297.77</ele>
        <time>2021-08-13T08:51:26.999Z</time>
      </trkpt>
      <trkpt lat="43.13315" lon="-0.21982">
        <ele>297.79</ele>
        <time>2021-08-13T08:51:31.999Z</time>
      </trkpt>
      <trkpt lat="43.13333" lon="-0.21984">
        <ele>297.8</ele>
        <time>2021-08-13T08:51:36.999Z</time>
      </trkpt>
      <trkpt lat="43.13349" lon="-0.2199">
        <ele>297.83</ele>
        <time>2021-08-13T08:51:41.999Z</time>
      </trkpt>
      <trkpt lat="43.13368" lon="-0.22">
        <ele>298.16</ele>
        <time>2021-08-13T08:51:46.999Z</time>
      </trkpt>
      <trkpt lat="43.13389" lon="-0.22008">
        <ele>298.29</ele>
        <time>2021-08-13T08:51:51.999Z</time>
      </trkpt>
      <trkpt lat="43.13409" lon="-0.22017">
        <ele>298.35</ele>
        <time>2021-08-13T08:51:56.999Z</time>
      </trkpt>
      <trkpt lat="43.13429" lon="-0.22027">
        <ele>298.47</ele>
        <time>2021-08-13T08:52:01.999Z</time>
      </trkpt>
      <trkpt lat="43.13448" lon="-0.22046">
        <ele>298.57</ele>
        <time>2021-08-13T08:52:06.999Z</time>
      </trkpt>
      <trkpt lat="43.13472" lon="-0.22061">
        <ele>298.65</ele>
        <time>2021-08-13T08:52:11.999Z</time>
      </trkpt>
      <trkpt lat="43.13494" lon="-0.2207">
        <ele>298.73</ele>
        <time>2021-08-13T08:52:16.999Z</time>
      </trkpt>
      <trkpt lat="43.13516" lon="-0.22078">
        <ele>298.78</ele>
        <time>2021-08-13T08:52:21.999Z</time>
      </trkpt>
      <trkpt lat="43.13539" lon="-0.22087">
        <ele>298.86</ele>
        <time>2021-08-13T08:52:26.999Z</time>
      </trkpt>
      <trkpt lat="43.13558" lon="-0.22097">
        <ele>298.84</ele>
        <time>2021-08-13T08:52:31.999Z</time>
      </trkpt>
      <trkpt lat="43.13583" lon="-0.22114">
        <ele>298.78</ele>
        <time>2021-08-13T08:52:36.999Z</time>
      </trkpt>
      <trkpt lat="43.13607" lon="-0.22134">
        <ele>298.71</ele>
        <time>2021-08-13T08:52:41.999Z</time>
      </trkpt>
      <trkpt lat="43.13626" lon="-0.22149">
        <ele>298.67</ele>
        <time>2021-08-13T08:52:46.999Z</time>
      </trkpt>
      <trkpt lat="43.1365" lon="-0.22166">
        <ele>298.58</ele>
        <time>2021-08-13T08:52:51.999Z</time>
      </trkpt>
      <trkpt lat="43.13677" lon="-0.2218">
        <ele>298.54</ele>
        <time>2021-08-13T08:52:56.999Z</time>
      </trkpt>
      <trkpt lat="43.13699" lon="-0.22196">
        <ele>298.44</ele>
        <time>2021-08-13T08:53:01.999Z</time>
      </trkpt>
      <trkpt lat="43.13721" lon="-0.22218">
        <ele>298.33</ele>
        <time>2021-08-13T08:53:06.999Z</time>
      </trkpt>
      <trkpt lat="43.13744" lon="-0.22239">
        <ele>298.24</ele>
        <time>2021-08-13T08:53:11.999Z</time>
      </trkpt>
      <trkpt lat="43.13765" lon="-0.22255">
        <ele>298.19</ele>
        <time>2021-08-13T08:53:16.999Z</time>
      </trkpt>
      <trkpt lat="43.13786" lon="-0.2227">
        <ele>298.2</ele>
        <time>2021-08-13T08:53:21.999Z</time>
      </trkpt>
      <trkpt lat="43.13806" lon="-0.22287">
        <ele>298.22</ele>
        <time>2021-08-13T08:53:26.999Z</time>
      </trkpt>
      <trkpt lat="43.13827" lon="-0.22302">
        <ele>298.27</ele>
        <time>2021-08-13T08:53:31.999Z</time>
      </trkpt>
      <trkpt lat="43.13847" lon="-0.22317">
        <ele>298.3</ele>
        <time>2021-08-13T08:53:36.999Z</time>
      </trkpt>
      <trkpt lat="43.13868" lon="-0.22332">
        <ele>298.31</ele>
        <time>2021-08-13T08:53:41.999Z</time>
      </trkpt>
      <trkpt lat="43.13888" lon="-0.2235">
        <ele>298.34</ele>
        <time>2021-08-13T08:53:46.999Z</time>
      </trkpt>
      <trkpt lat="43.13907" lon="-0.22369">
        <ele>298.35</ele>
        <time>2021-08-13T08:53:51.999Z</time>
      </trkpt>
      <trkpt lat="43.1393" lon="-0.22385">
        <ele>298.35</ele>
        <time>2021-08-13T08:53:56.999Z</time>
      </trkpt>
      <trkpt lat="43.13954" lon="-0.22395">
        <ele>298.34</ele>
        <time>2021-08-13T08:54:01.999Z</time>
      </trkpt>
      <trkpt lat="43.13978" lon="-0.22403">
        <ele>298.36</ele>
        <time>2021-08-13T08:54:06.999Z</time>
      </trkpt>
      <trkpt lat="43.14002" lon="-0.22411">
        <ele>298.4</ele>
        <time>2021-08-13T08:54:11.999Z</time>
      </trkpt>
      <trkpt lat="43.14027" lon="-0.2242">
        <ele>298.44</ele>
        <time>2021-08-13T08:54:16.999Z</time>
      </trkpt>
      <trkpt lat="43.1405" lon="-0.22427">
        <ele>298.48</ele>
        <time>2021-08-13T08:54:21.999Z</time>
      </trkpt>
      <trkpt lat="43.14072" lon="-0.22437">
        <ele>298.52</ele>
        <time>2021-08-13T08:54:26.999Z</time>
      </trkpt>
      <trkpt lat="43.14096" lon="-0.22447">
        <ele>298.52</ele>
        <time>2021-08-13T08:54:31.999Z</time>
      </trkpt>
      <trkpt lat="43.14118" lon="-0.22456">
        <ele>298.49</ele>
        <time>2021-08-13T08:54:36.999Z</time>
      </trkpt>
      <trkpt lat="43.1414" lon="-0.22465">
        <ele>298.42</ele>
        <time>2021-08-13T08:54:41.999Z</time>
      </trkpt>
      <trkpt lat="43.14166" lon="-0.22475">
        <ele>298.37</ele>
        <time>2021-08-13T08:54:46.999Z</time>
      </trkpt>
      <trkpt lat="43.14192" lon="-0.22488">
        <ele>298.35</ele>
        <time>2021-08-13T08:54:51.999Z</time>
      </trkpt>
      <trkpt lat="43.14215" lon="-0.22498">
        <ele>298.34</ele>
        <time>2021-08-13T08:54:56.999Z</time>
      </trkpt>
      <trkpt lat="43.14239" lon="-0.22509">
        <ele>298.31</ele>
        <time>2021-08-13T08:55:01.999Z</time>
      </trkpt>
      <trkpt lat="43.14263" lon="-0.2252">
        <ele>298.27</ele>
        <time>2021-08-13T08:55:06.999Z</time>
      </trkpt>
      <trkpt lat="43.14286" lon="-0.2253">
        <ele>298.19</ele>
        <time>2021-08-13T08:55:11.999Z</time>
      </trkpt>
      <trkpt lat="43.14313" lon="-0.22542">
        <ele>298.12</ele>
        <time>2021-08-13T08:55:16.999Z</time>
      </trkpt>
      <trkpt lat="43.14337" lon="-0.22554">
        <ele>298.07</ele>
        <time>2021-08-13T08:55:21.999Z</time>
      </trkpt>
      <trkpt lat="43.14363" lon="-0.22567">
        <ele>298.02</ele>
        <time>2021-08-13T08:55:26.999Z</time>
      </trkpt>
      <trkpt lat="43.1439" lon="-0.22578">
        <ele>297.94</ele>
        <time>2021-08-13T08:55:31.999Z</time>
      </trkpt>
      <trkpt lat="43.14415" lon="-0.22591">
        <ele>297.9</ele>
        <time>2021-08-13T08:55:36.999Z</time>
      </trkpt>
      <trkpt lat="43.1444" lon="-0.22604">
        <ele>297.84</ele>
        <time>2021-08-13T08:55:41.999Z</time>
      </trkpt>
      <trkpt lat="43.14463" lon="-0.22616">
        <ele>297.73</ele>
        <time>2021-08-13T08:55:46.999Z</time>
      </trkpt>
      <trkpt lat="43.14489" lon="-0.22627">
        <ele>297.67</ele>
        <time>2021-08-13T08:55:51.999Z</time>
      </trkpt>
      <trkpt lat="43.14513" lon="-0.22648">
        <ele>297.62</ele>
        <time>2021-08-13T08:55:56.999Z</time>
      </trkpt>
      <trkpt lat="43.14527" lon="-0.2268">
        <ele>297.5</ele>
        <time>2021-08-13T08:56:01.999Z</time>
      </trkpt>
      <trkpt lat="43.14536" lon="-0.22715">
        <ele>297.37</ele>
        <time>2021-08-13T08:56:06.999Z</time>
      </trkpt>
      <trkpt lat="43.14547" lon="-0.22746">
        <ele>297.26</ele>
        <time>2021-08-13T08:56:11.999Z</time>
      </trkpt>
      <trkpt lat="43.14559" lon="-0.22775">
        <ele>297.17</ele>
        <time>2021-08-13T08:56:16.999Z</time>
      </trkpt>
      <trkpt lat="43.14572" lon="-0.22807">
        <ele>297.07</ele>
        <time>2021-08-13T08:56:21.999Z</time>
      </trkpt>
      <trkpt lat="43.14589" lon="-0.22837">
        <ele>296.97</ele>
        <time>2021-08-13T08:56:26.999Z</time>
      </trkpt>
      <trkpt lat="43.14606" lon="-0.22866">
        <ele>296.9</ele>
        <time>2021-08-13T08:56:31.999Z</time>
      </trkpt>
      <trkpt lat="43.14625" lon="-0.22894">
        <ele>296.81</ele>
        <time>2021-08-13T08:56:36.999Z</time>
      </trkpt>
      <trkpt lat="43.14643" lon="-0.22923">
        <ele>296.71</ele>
        <time>2021-08-13T08:56:41.999Z</time>
      </trkpt>
      <trkpt lat="43.14662" lon="-0.22952">
        <ele>296.6</ele>
        <time>2021-08-13T08:56:46.999Z</time>
      </trkpt>
      <trkpt lat="43.14675" lon="-0.22983">
        <ele>296.51</ele>
        <time>2021-08-13T08:56:51.999Z</time>
      </trkpt>
      <trkpt lat="43.14693" lon="-0.23008">
        <ele>296.42</ele>
        <time>2021-08-13T08:56:56.999Z</time>
      </trkpt>
      <trkpt lat="43.14713" lon="-0.2303">
        <ele>296.34</ele>
        <time>2021-08-13T08:57:01.999Z</time>
      </trkpt>
      <trkpt lat="43.14725" lon="-0.2306">
        <ele>296.31</ele>
        <time>2021-08-13T08:57:06.999Z</time>
      </trkpt>
      <trkpt lat="43.14735" lon="-0.23091">
        <ele>296.23</ele>
        <time>2021-08-13T08:57:11.999Z</time>
      </trkpt>
      <trkpt lat="43.14749" lon="-0.23116">
        <ele>296.1</ele>
        <time>2021-08-13T08:57:16.999Z</time>
      </trkpt>
      <trkpt lat="43.1476" lon="-0.23137">
        <ele>295.96</ele>
        <time>2021-08-13T08:57:21.999Z</time>
      </trkpt>
      <trkpt lat="43.14766" lon="-0.23161">
        <ele>295.91</ele>
        <time>2021-08-13T08:57:26.999Z</time>
      </trkpt>
      <trkpt lat="43.14772" lon="-0.23179">
        <ele>295.87</ele>
        <time>2021-08-13T08:57:31.999Z</time>
      </trkpt>
      <trkpt lat="43.14773" lon="-0.23193">
        <ele>295.84</ele>
        <time>2021-08-13T08:57:40.999Z</time>
      </trkpt>
      <trkpt lat="43.14766" lon="-0.23213">
        <ele>295.81</ele>
        <time>2021-08-13T08:57:45.999Z</time>
      </trkpt>
      <trkpt lat="43.14759" lon="-0.23236">
        <ele>295.62</ele>
        <time>2021-08-13T08:57:50.999Z</time>
      </trkpt>
      <trkpt lat="43.14753" lon="-0.23264">
        <ele>295.44</ele>
        <time>2021-08-13T08:57:55.999Z</time>
      </trkpt>
      <trkpt lat="43.14748" lon="-0.23294">
        <ele>295.35</ele>
        <time>2021-08-13T08:58:00.999Z</time>
      </trkpt>
      <trkpt lat="43.14747" lon="-0.23325">
        <ele>295.27</ele>
        <time>2021-08-13T08:58:05.999Z</time>
      </trkpt>
      <trkpt lat="43.14745" lon="-0.23356">
        <ele>295.17</ele>
        <time>2021-08-13T08:58:10.999Z</time>
      </trkpt>
      <trkpt lat="43.14744" lon="-0.23386">
        <ele>295.06</ele>
        <time>2021-08-13T08:58:15.999Z</time>
      </trkpt>
      <trkpt lat="43.14742" lon="-0.23416">
        <ele>295</ele>
        <time>2021-08-13T08:58:20.999Z</time>
      </trkpt>
      <trkpt lat="43.1474" lon="-0.23447">
        <ele>294.93</ele>
        <time>2021-08-13T08:58:25.999Z</time>
      </trkpt>
      <trkpt lat="43.14739" lon="-0.23479">
        <ele>294.84</ele>
        <time>2021-08-13T08:58:30.999Z</time>
      </trkpt>
      <trkpt lat="43.14737" lon="-0.23512">
        <ele>294.77</ele>
        <time>2021-08-13T08:58:35.999Z</time>
      </trkpt>
      <trkpt lat="43.14732" lon="-0.2354">
        <ele>294.74</ele>
        <time>2021-08-13T08:58:40.999Z</time>
      </trkpt>
      <trkpt lat="43.14724" lon="-0.23566">
        <ele>294.75</ele>
        <time>2021-08-13T08:58:45.999Z</time>
      </trkpt>
      <trkpt lat="43.1471" lon="-0.23587">
        <ele>294.76</ele>
        <time>2021-08-13T08:58:50.999Z</time>
      </trkpt>
      <trkpt lat="43.14696" lon="-0.23604">
        <ele>294.79</ele>
        <time>2021-08-13T08:58:55.999Z</time>
      </trkpt>
      <trkpt lat="43.14681" lon="-0.23623">
        <ele>294.76</ele>
        <time>2021-08-13T08:59:00.999Z</time>
      </trkpt>
      <trkpt lat="43.14666" lon="-0.23645">
        <ele>294.73</ele>
        <time>2021-08-13T08:59:05.999Z</time>
      </trkpt>
      <trkpt lat="43.14646" lon="-0.23667">
        <ele>294.72</ele>
        <time>2021-08-13T08:59:10.999Z</time>
      </trkpt>
      <trkpt lat="43.14625" lon="-0.23695">
        <ele>294.67</ele>
        <time>2021-08-13T08:59:15.999Z</time>
      </trkpt>
      <trkpt lat="43.14605" lon="-0.2373">
        <ele>294.52</ele>
        <time>2021-08-13T08:59:20.999Z</time>
      </trkpt>
      <trkpt lat="43.14589" lon="-0.23769">
        <ele>294.42</ele>
        <time>2021-08-13T08:59:25.999Z</time>
      </trkpt>
      <trkpt lat="43.14575" lon="-0.23803">
        <ele>294.88</ele>
        <time>2021-08-13T08:59:30.999Z</time>
      </trkpt>
      <trkpt lat="43.14564" lon="-0.23828">
        <ele>294.78</ele>
        <time>2021-08-13T08:59:35.999Z</time>
      </trkpt>
      <trkpt lat="43.14553" lon="-0.23849">
        <ele>294.27</ele>
        <time>2021-08-13T08:59:40.999Z</time>
      </trkpt>
      <trkpt lat="43.14543" lon="-0.23872">
        <ele>293.96</ele>
        <time>2021-08-13T08:59:45.999Z</time>
      </trkpt>
      <trkpt lat="43.14532" lon="-0.23893">
        <ele>294.06</ele>
        <time>2021-08-13T08:59:50.999Z</time>
      </trkpt>
      <trkpt lat="43.14521" lon="-0.23916">
        <ele>294.33</ele>
        <time>2021-08-13T08:59:55.999Z</time>
      </trkpt>
      <trkpt lat="43.14509" lon="-0.2394">
        <ele>294.8</ele>
        <time>2021-08-13T09:00:00.999Z</time>
      </trkpt>
      <trkpt lat="43.14498" lon="-0.23964">
        <ele>295.61</ele>
        <time>2021-08-13T09:00:05.999Z</time>
      </trkpt>
      <trkpt lat="43.14489" lon="-0.23984">
        <ele>295.99</ele>
        <time>2021-08-13T09:00:10.000Z</time>
      </trkpt>
      <trkpt lat="43.14477" lon="-0.24014">
        <ele>295.21</ele>
        <time>2021-08-13T09:00:15.000Z</time>
      </trkpt>
      <trkpt lat="43.14466" lon="-0.24044">
        <ele>294.69</ele>
        <time>2021-08-13T09:00:20.000Z</time>
      </trkpt>
      <trkpt lat="43.14457" lon="-0.24075">
        <ele>294.54</ele>
        <time>2021-08-13T09:00:25.000Z</time>
      </trkpt>
      <trkpt lat="43.1445" lon="-0.24102">
        <ele>294.8</ele>
        <time>2021-08-13T09:00:30.000Z</time>
      </trkpt>
      <trkpt lat="43.14446" lon="-0.2413">
        <ele>295.2</ele>
        <time>2021-08-13T09:00:35.000Z</time>
      </trkpt>
      <trkpt lat="43.14443" lon="-0.24155">
        <ele>295.53</ele>
        <time>2021-08-13T09:00:40.000Z</time>
      </trkpt>
      <trkpt lat="43.14439" lon="-0.24183">
        <ele>296.11</ele>
        <time>2021-08-13T09:00:45.000Z</time>
      </trkpt>
      <trkpt lat="43.14436" lon="-0.24206">
        <ele>296.13</ele>
        <time>2021-08-13T09:00:50.000Z</time>
      </trkpt>
      <trkpt lat="43.14428" lon="-0.24238">
        <ele>295.77</ele>
        <time>2021-08-13T09:00:55.000Z</time>
      </trkpt>
      <trkpt lat="43.1442" lon="-0.24265">
        <ele>295.1</ele>
        <time>2021-08-13T09:01:00.000Z</time>
      </trkpt>
      <trkpt lat="43.14411" lon="-0.24291">
        <ele>294.35</ele>
        <time>2021-08-13T09:01:05.000Z</time>
      </trkpt>
      <trkpt lat="43.144" lon="-0.24314">
        <ele>294.05</ele>
        <time>2021-08-13T09:01:10.000Z</time>
      </trkpt>
      <trkpt lat="43.14388" lon="-0.24339">
        <ele>293.92</ele>
        <time>2021-08-13T09:01:15.000Z</time>
      </trkpt>
      <trkpt lat="43.14376" lon="-0.24364">
        <ele>293.82</ele>
        <time>2021-08-13T09:01:20.000Z</time>
      </trkpt>
      <trkpt lat="43.1436" lon="-0.24392">
        <ele>293.75</ele>
        <time>2021-08-13T09:01:25.000Z</time>
      </trkpt>
      <trkpt lat="43.14342" lon="-0.24425">
        <ele>293.76</ele>
        <time>2021-08-13T09:01:30.000Z</time>
      </trkpt>
      <trkpt lat="43.14324" lon="-0.24462">
        <ele>293.45</ele>
        <time>2021-08-13T09:01:35.000Z</time>
      </trkpt>
      <trkpt lat="43.14306" lon="-0.24498">
        <ele>293.03</ele>
        <time>2021-08-13T09:01:40.000Z</time>
      </trkpt>
      <trkpt lat="43.14288" lon="-0.24536">
        <ele>293.04</ele>
        <time>2021-08-13T09:01:45.000Z</time>
      </trkpt>
      <trkpt lat="43.14271" lon="-0.24573">
        <ele>293.37</ele>
        <time>2021-08-13T09:01:50.000Z</time>
      </trkpt>
      <trkpt lat="43.14254" lon="-0.2461">
        <ele>293.6</ele>
        <time>2021-08-13T09:01:55.000Z</time>
      </trkpt>
      <trkpt lat="43.14238" lon="-0.24645">
        <ele>293.97</ele>
        <time>2021-08-13T09:02:00.000Z</time>
      </trkpt>
      <trkpt lat="43.14223" lon="-0.24679">
        <ele>294.24</ele>
        <time>2021-08-13T09:02:05.000Z</time>
      </trkpt>
      <trkpt lat="43.1421" lon="-0.24709">
        <ele>294.43</ele>
        <time>2021-08-13T09:02:10.000Z</time>
      </trkpt>
      <trkpt lat="43.14198" lon="-0.24737">
        <ele>294.88</ele>
        <time>2021-08-13T09:02:15.000Z</time>
      </trkpt>
      <trkpt lat="43.14186" lon="-0.24764">
        <ele>295.18</ele>
        <time>2021-08-13T09:02:20.000Z</time>
      </trkpt>
      <trkpt lat="43.14173" lon="-0.24791">
        <ele>295.13</ele>
        <time>2021-08-13T09:02:25.000Z</time>
      </trkpt>
      <trkpt lat="43.14161" lon="-0.24818">
        <ele>295.19</ele>
        <time>2021-08-13T09:02:30.000Z</time>
      </trkpt>
      <trkpt lat="43.14149" lon="-0.24845">
        <ele>295.32</ele>
        <time>2021-08-13T09:02:35.000Z</time>
      </trkpt>
      <trkpt lat="43.14136" lon="-0.24873">
        <ele>295.43</ele>
        <time>2021-08-13T09:02:40.000Z</time>
      </trkpt>
      <trkpt lat="43.14124" lon="-0.24899">
        <ele>295.7</ele>
        <time>2021-08-13T09:02:45.000Z</time>
      </trkpt>
      <trkpt lat="43.14111" lon="-0.24926">
        <ele>296.14</ele>
        <time>2021-08-13T09:02:50.000Z</time>
      </trkpt>
      <trkpt lat="43.141" lon="-0.24953">
        <ele>296.56</ele>
        <time>2021-08-13T09:02:55.000Z</time>
      </trkpt>
      <trkpt lat="43.14089" lon="-0.24978">
        <ele>297.05</ele>
        <time>2021-08-13T09:03:00.000Z</time>
      </trkpt>
      <trkpt lat="43.14078" lon="-0.25005">
        <ele>297.84</ele>
        <time>2021-08-13T09:03:05.000Z</time>
      </trkpt>
      <trkpt lat="43.14072" lon="-0.25038">
        <ele>298.44</ele>
        <time>2021-08-13T09:03:10.000Z</time>
      </trkpt>
      <trkpt lat="43.14069" lon="-0.2507">
        <ele>298.94</ele>
        <time>2021-08-13T09:03:15.000Z</time>
      </trkpt>
      <trkpt lat="43.14065" lon="-0.25104">
        <ele>299.14</ele>
        <time>2021-08-13T09:03:20.000Z</time>
      </trkpt>
      <trkpt lat="43.14062" lon="-0.25137">
        <ele>298.82</ele>
        <time>2021-08-13T09:03:25.000Z</time>
      </trkpt>
      <trkpt lat="43.14061" lon="-0.25171">
        <ele>298.44</ele>
        <time>2021-08-13T09:03:30.000Z</time>
      </trkpt>
      <trkpt lat="43.1406" lon="-0.2521">
        <ele>298.02</ele>
        <time>2021-08-13T09:03:35.000Z</time>
      </trkpt>
      <trkpt lat="43.14059" lon="-0.25246">
        <ele>297.7</ele>
        <time>2021-08-13T09:03:40.000Z</time>
      </trkpt>
      <trkpt lat="43.1406" lon="-0.25273">
        <ele>297.6</ele>
        <time>2021-08-13T09:03:45.000Z</time>
      </trkpt>
      <trkpt lat="43.1406" lon="-0.2529">
        <ele>297.7</ele>
        <time>2021-08-13T09:03:50.000Z</time>
      </trkpt>
      <trkpt lat="43.14062" lon="-0.25304">
        <ele>297.89</ele>
        <time>2021-08-13T09:03:55.000Z</time>
      </trkpt>
      <trkpt lat="43.14065" lon="-0.25316">
        <ele>298.16</ele>
        <time>2021-08-13T09:04:00.000Z</time>
      </trkpt>
      <trkpt lat="43.14067" lon="-0.25329">
        <ele>298.55</ele>
        <time>2021-08-13T09:04:06.000Z</time>
      </trkpt>
      <trkpt lat="43.1407" lon="-0.25343">
        <ele>299.11</ele>
        <time>2021-08-13T09:04:13.000Z</time>
      </trkpt>
      <trkpt lat="43.14073" lon="-0.25356">
        <ele>299.69</ele>
        <time>2021-08-13T09:04:19.000Z</time>
      </trkpt>
      <trkpt lat="43.14075" lon="-0.25369">
        <ele>300.31</ele>
        <time>2021-08-13T09:04:25.000Z</time>
      </trkpt>
      <trkpt lat="43.14075" lon="-0.25381">
        <ele>300.93</ele>
        <time>2021-08-13T09:04:31.000Z</time>
      </trkpt>
      <trkpt lat="43.14072" lon="-0.25394">
        <ele>301.57</ele>
        <time>2021-08-13T09:04:37.000Z</time>
      </trkpt>
      <trkpt lat="43.14068" lon="-0.25406">
        <ele>302.29</ele>
        <time>2021-08-13T09:04:44.000Z</time>
      </trkpt>
      <trkpt lat="43.14064" lon="-0.25419">
        <ele>302.99</ele>
        <time>2021-08-13T09:04:51.000Z</time>
      </trkpt>
      <trkpt lat="43.1406" lon="-0.25431">
        <ele>303.63</ele>
        <time>2021-08-13T09:04:57.000Z</time>
      </trkpt>
      <trkpt lat="43.14056" lon="-0.25444">
        <ele>304.5</ele>
        <time>2021-08-13T09:05:04.000Z</time>
      </trkpt>
      <trkpt lat="43.14051" lon="-0.25457">
        <ele>305.68</ele>
        <time>2021-08-13T09:05:13.000Z</time>
      </trkpt>
      <trkpt lat="43.14046" lon="-0.25469">
        <ele>306.48</ele>
        <time>2021-08-13T09:05:19.000Z</time>
      </trkpt>
      <trkpt lat="43.1404" lon="-0.25481">
        <ele>307.31</ele>
        <time>2021-08-13T09:05:25.000Z</time>
      </trkpt>
      <trkpt lat="43.14037" lon="-0.25496">
        <ele>308.19</ele>
        <time>2021-08-13T09:05:31.000Z</time>
      </trkpt>
      <trkpt lat="43.14046" lon="-0.25502">
        <ele>309.09</ele>
        <time>2021-08-13T09:05:37.000Z</time>
      </trkpt>
      <trkpt lat="43.14056" lon="-0.25507">
        <ele>309.79</ele>
        <time>2021-08-13T09:05:42.000Z</time>
      </trkpt>
      <trkpt lat="43.14065" lon="-0.25511">
        <ele>310.45</ele>
        <time>2021-08-13T09:05:47.000Z</time>
      </trkpt>
      <trkpt lat="43.14076" lon="-0.25514">
        <ele>311.06</ele>
        <time>2021-08-13T09:05:52.000Z</time>
      </trkpt>
      <trkpt lat="43.14085" lon="-0.25518">
        <ele>311.63</ele>
        <time>2021-08-13T09:05:57.000Z</time>
      </trkpt>
      <trkpt lat="43.14093" lon="-0.25521">
        <ele>312.31</ele>
        <time>2021-08-13T09:06:03.000Z</time>
      </trkpt>
      <trkpt lat="43.14103" lon="-0.25524">
        <ele>312.85</ele>
        <time>2021-08-13T09:06:08.000Z</time>
      </trkpt>
      <trkpt lat="43.14112" lon="-0.25528">
        <ele>313.38</ele>
        <time>2021-08-13T09:06:13.000Z</time>
      </trkpt>
      <trkpt lat="43.1411" lon="-0.25543">
        <ele>314.43</ele>
        <time>2021-08-13T09:06:43.000Z</time>
      </trkpt>
      <trkpt lat="43.14106" lon="-0.25555">
        <ele>314.72</ele>
        <time>2021-08-13T09:06:53.000Z</time>
      </trkpt>
      <trkpt lat="43.14108" lon="-0.25557">
        <ele>315.12</ele>
        <time>2021-08-13T09:07:10.000Z</time>
      </trkpt>
    </trkseg>
  </trk>
</gpx>